Time,TemperatureF,DewpointF,PressureIn,WindDirection,WindDirectionDegrees,WindSpeedMPH,WindSpeedGustMPH,Humidity,HourlyPrecipIn,Conditions,Clouds,dailyrainin,SoftwareType,DateUTC
2013-06-30 00:00:00,63.5,62.0,29.68,West,263,0.0,7.0,95,0.21,,---,0.00,VWS V14.01,2013-06-30 04:00:00,
2013-06-30 00:01:00,63.5,62.0,29.68,North,350,2.0,2.0,95,0.21,,---,0.01,VWS V14.01,2013-06-30 04:01:00,
2013-06-30 00:02:00,63.5,62.0,29.69,NNE,22,0.0,2.0,95,0.21,,---,0.01,VWS V14.01,2013-06-30 04:02:00,
2013-06-30 00:03:00,63.4,62.0,29.69,NE,53,5.0,5.0,95,0.21,,---,0.01,VWS V14.01,2013-06-30 04:03:00,
2013-06-30 00:04:00,63.4,62.0,29.69,NNW,335,0.0,5.0,95,0.21,,---,0.01,VWS V14.01,2013-06-30 04:04:00,
2013-06-30 00:05:00,63.4,62.0,29.69,ENE,71,2.0,5.0,95,0.22,,---,0.02,VWS V14.01,2013-06-30 04:05:00,
2013-06-30 00:06:00,63.4,62.0,29.69,East,80,0.0,5.0,95,0.22,,---,0.02,VWS V14.01,2013-06-30 04:06:00,
2013-06-30 00:07:00,63.4,62.0,29.69,NNE,25,2.0,5.0,95,0.22,,---,0.02,VWS V14.01,2013-06-30 04:07:00,
2013-06-30 00:08:00,63.4,62.0,29.69,NE,53,0.0,5.0,95,0.23,,---,0.03,VWS V14.01,2013-06-30 04:08:00,
2013-06-30 00:09:00,63.4,62.0,29.69,North,352,1.0,5.0,95,0.23,,---,0.03,VWS V14.01,2013-06-30 04:09:00,
2013-06-30 00:10:00,63.3,61.8,29.69,NE,55,1.0,5.0,95,0.23,,---,0.03,VWS V14.01,2013-06-30 04:10:00,
2013-06-30 00:11:00,63.4,62.0,29.69,North,4,0.0,5.0,95,0.23,,---,0.03,VWS V14.01,2013-06-30 04:11:00,
2013-06-30 00:12:00,63.3,61.8,29.69,WNW,295,0.0,5.0,95,0.23,,---,0.03,VWS V14.01,2013-06-30 04:12:00,
2013-06-30 00:13:00,63.3,61.8,29.69,SSE,149,1.0,5.0,95,0.24,,---,0.04,VWS V14.01,2013-06-30 04:13:00,
2013-06-30 00:14:00,63.3,61.8,29.69,North,4,2.0,5.0,95,0.24,,---,0.04,VWS V14.01,2013-06-30 04:14:00,
2013-06-30 00:15:00,63.3,61.8,29.69,WNW,283,1.0,5.0,95,0.24,,---,0.04,VWS V14.01,2013-06-30 04:15:00,
2013-06-30 00:16:00,63.3,61.8,29.69,NNW,340,1.0,5.0,95,0.24,,---,0.04,VWS V14.01,2013-06-30 04:16:00,
2013-06-30 00:17:00,63.3,61.8,29.69,WSW,245,1.0,5.0,95,0.25,,---,0.05,VWS V14.01,2013-06-30 04:17:00,
2013-06-30 00:18:00,63.3,62.1,29.69,WSW,239,1.0,5.0,96,0.25,,---,0.05,VWS V14.01,2013-06-30 04:18:00,
2013-06-30 00:19:00,63.3,62.1,29.69,North,358,0.0,5.0,96,0.26,,---,0.06,VWS V14.01,2013-06-30 04:19:00,
2013-06-30 00:20:00,63.3,62.1,29.69,North,359,0.0,5.0,96,0.26,,---,0.06,VWS V14.01,2013-06-30 04:20:00,
2013-06-30 00:21:00,63.3,62.1,29.69,NW,326,1.0,5.0,96,0.26,,---,0.06,VWS V14.01,2013-06-30 04:21:00,
2013-06-30 00:22:00,63.3,62.1,29.69,East,80,1.0,5.0,96,0.27,,---,0.07,VWS V14.01,2013-06-30 04:22:00,
2013-06-30 00:23:00,63.3,62.1,29.69,NW,304,0.0,5.0,96,0.27,,---,0.07,VWS V14.01,2013-06-30 04:23:00,
2013-06-30 00:24:00,63.2,62.0,29.69,NW,309,0.0,5.0,96,0.28,,---,0.08,VWS V14.01,2013-06-30 04:24:00,
2013-06-30 00:25:00,63.2,62.0,29.69,NNE,20,1.0,5.0,96,0.28,,---,0.08,VWS V14.01,2013-06-30 04:25:00,
2013-06-30 00:26:00,63.2,62.0,29.69,SE,129,1.0,5.0,96,0.29,,---,0.09,VWS V14.01,2013-06-30 04:26:00,
2013-06-30 00:27:00,63.2,62.0,29.69,SE,132,0.0,5.0,96,0.29,,---,0.09,VWS V14.01,2013-06-30 04:27:00,
2013-06-30 00:28:00,63.2,62.0,29.69,SSE,160,0.0,5.0,96,0.29,,---,0.09,VWS V14.01,2013-06-30 04:28:00,
2013-06-30 00:29:00,63.2,62.0,29.69,SSE,159,0.0,5.0,96,0.30,,---,0.10,VWS V14.01,2013-06-30 04:29:00,
2013-06-30 00:30:00,63.2,62.0,29.69,ENE,70,1.0,5.0,96,0.31,,---,0.11,VWS V14.01,2013-06-30 04:30:00,
2013-06-30 00:31:00,63.2,62.0,29.69,ENE,70,0.0,1.0,96,0.28,,---,0.11,VWS V14.01,2013-06-30 04:31:00,
2013-06-30 00:32:00,63.1,61.9,29.69,North,356,2.0,2.0,96,0.28,,---,0.11,VWS V14.01,2013-06-30 04:32:00,
2013-06-30 00:33:00,63.2,62.0,29.69,NE,34,1.0,4.0,96,0.29,,---,0.12,VWS V14.01,2013-06-30 04:33:00,
2013-06-30 00:34:00,63.1,61.9,29.69,NNE,15,1.0,4.0,96,0.29,,---,0.12,VWS V14.01,2013-06-30 04:34:00,
2013-06-30 00:35:00,63.1,61.9,29.69,NNW,347,2.0,4.0,96,0.29,,---,0.12,VWS V14.01,2013-06-30 04:35:00,
2013-06-30 00:36:00,63.1,61.9,29.69,NNW,343,1.0,4.0,96,0.30,,---,0.13,VWS V14.01,2013-06-30 04:36:00,
2013-06-30 00:37:00,63.1,61.9,29.69,NW,322,1.0,4.0,96,0.30,,---,0.13,VWS V14.01,2013-06-30 04:37:00,
2013-06-30 00:38:00,63.1,61.9,29.69,NNW,339,1.0,4.0,96,0.31,,---,0.14,VWS V14.01,2013-06-30 04:38:00,
2013-06-30 00:39:00,63.1,61.9,29.69,NNW,339,1.0,4.0,96,0.31,,---,0.14,VWS V14.01,2013-06-30 04:39:00,
2013-06-30 00:40:00,63.1,61.9,29.69,North,358,1.0,4.0,96,0.32,,---,0.15,VWS V14.01,2013-06-30 04:40:00,
2013-06-30 00:41:00,63.1,61.9,29.69,NW,312,1.0,4.0,96,0.32,,---,0.15,VWS V14.01,2013-06-30 04:41:00,
2013-06-30 00:42:00,63.1,61.9,29.69,NNW,335,1.0,4.0,96,0.33,,---,0.16,VWS V14.01,2013-06-30 04:42:00,
2013-06-30 00:43:00,63.1,61.9,29.70,North,359,4.0,4.0,96,0.33,,---,0.16,VWS V14.01,2013-06-30 04:43:00,
2013-06-30 00:44:00,63.1,61.9,29.70,NNW,331,0.0,4.0,96,0.34,,---,0.17,VWS V14.01,2013-06-30 04:44:00,
2013-06-30 00:45:00,63.1,61.9,29.70,NNE,18,2.0,4.0,96,0.34,,---,0.17,VWS V14.01,2013-06-30 04:45:00,
2013-06-30 00:46:00,63.1,61.9,29.69,NNW,330,1.0,4.0,96,0.35,,---,0.18,VWS V14.01,2013-06-30 04:46:00,
2013-06-30 00:47:00,63.1,61.9,29.70,NW,325,1.0,4.0,96,0.35,,---,0.18,VWS V14.01,2013-06-30 04:47:00,
2013-06-30 00:48:00,63.1,61.9,29.70,ENE,63,1.0,4.0,96,0.36,,---,0.19,VWS V14.01,2013-06-30 04:48:00,
2013-06-30 00:49:00,63.1,61.9,29.70,North,349,1.0,4.0,96,0.36,,---,0.19,VWS V14.01,2013-06-30 04:49:00,
2013-06-30 00:50:00,63.1,61.9,29.70,NNW,345,0.0,4.0,96,0.37,,---,0.20,VWS V14.01,2013-06-30 04:50:00,
2013-06-30 00:51:00,63.0,61.8,29.70,North,5,3.0,4.0,96,0.37,,---,0.20,VWS V14.01,2013-06-30 04:51:00,
2013-06-30 00:52:00,63.0,61.8,29.70,North,1,0.0,4.0,96,0.38,,---,0.21,VWS V14.01,2013-06-30 04:52:00,
2013-06-30 00:53:00,63.0,61.8,29.70,NNE,16,2.0,4.0,96,0.38,,---,0.21,VWS V14.01,2013-06-30 04:53:00,
2013-06-30 00:54:00,63.0,61.8,29.70,ENE,68,0.0,4.0,96,0.39,,---,0.22,VWS V14.01,2013-06-30 04:54:00,
2013-06-30 00:55:00,63.0,61.8,29.70,NNW,329,2.0,4.0,96,0.40,,---,0.23,VWS V14.01,2013-06-30 04:55:00,
2013-06-30 00:56:00,63.0,61.8,29.70,NNW,340,3.0,4.0,96,0.40,,---,0.23,VWS V14.01,2013-06-30 04:56:00,
2013-06-30 00:57:00,63.0,61.8,29.70,NNW,343,1.0,4.0,96,0.41,,---,0.24,VWS V14.01,2013-06-30 04:57:00,
2013-06-30 00:58:00,63.0,61.8,29.70,NNE,18,1.0,4.0,96,0.41,,---,0.24,VWS V14.01,2013-06-30 04:58:00,
2013-06-30 00:59:00,63.0,61.8,29.70,NNW,335,4.0,4.0,96,0.42,,---,0.25,VWS V14.01,2013-06-30 04:59:00,
2013-06-30 01:00:00,63.0,61.8,29.70,NNW,333,2.0,5.0,96,0.42,,---,0.25,VWS V14.01,2013-06-30 05:00:00,
2013-06-30 01:01:00,62.9,61.8,29.70,NNW,337,2.0,4.0,96,0.25,,---,0.25,VWS V14.01,2013-06-30 05:01:00,
2013-06-30 01:02:00,62.9,61.8,29.70,NNW,333,1.0,4.0,96,0.25,,---,0.25,VWS V14.01,2013-06-30 05:02:00,
2013-06-30 01:03:00,62.9,61.8,29.70,NNW,335,2.0,4.0,96,0.26,,---,0.26,VWS V14.01,2013-06-30 05:03:00,
2013-06-30 01:04:00,62.9,61.8,29.70,NNE,14,3.0,4.0,96,0.26,,---,0.26,VWS V14.01,2013-06-30 05:04:00,
2013-06-30 01:05:00,62.9,61.8,29.70,NNW,340,1.0,4.0,96,0.26,,---,0.26,VWS V14.01,2013-06-30 05:05:00,
2013-06-30 01:06:00,62.8,61.7,29.70,NNW,333,4.0,6.0,96,0.26,,---,0.26,VWS V14.01,2013-06-30 05:06:00,
2013-06-30 01:07:00,62.8,61.7,29.70,North,356,3.0,6.0,96,0.27,,---,0.27,VWS V14.01,2013-06-30 05:07:00,
2013-06-30 01:08:00,62.8,61.7,29.70,North,4,4.0,6.0,96,0.27,,---,0.27,VWS V14.01,2013-06-30 05:08:00,
2013-06-30 01:09:00,62.7,61.5,29.70,NNW,340,4.0,6.0,96,0.27,,---,0.27,VWS V14.01,2013-06-30 05:09:00,
2013-06-30 01:10:00,62.7,61.5,29.70,NW,325,3.0,6.0,96,0.27,,---,0.27,VWS V14.01,2013-06-30 05:10:00,
2013-06-30 01:11:00,62.7,61.5,29.70,NW,323,1.0,6.0,96,0.27,,---,0.27,VWS V14.01,2013-06-30 05:11:00,
2013-06-30 01:12:00,62.7,61.5,29.70,NW,307,2.0,6.0,96,0.27,,---,0.27,VWS V14.01,2013-06-30 05:12:00,
2013-06-30 01:13:00,62.7,61.2,29.70,NNW,343,0.0,6.0,95,0.27,,---,0.27,VWS V14.01,2013-06-30 05:13:00,
2013-06-30 01:14:00,62.6,61.2,29.70,NNW,336,1.0,6.0,95,0.27,,---,0.27,VWS V14.01,2013-06-30 05:14:00,
2013-06-30 01:15:00,62.6,61.2,29.70,NNW,346,1.0,6.0,95,0.27,,---,0.27,VWS V14.01,2013-06-30 05:15:00,
2013-06-30 01:16:00,62.6,61.2,29.70,NNW,340,3.0,6.0,95,0.27,,---,0.27,VWS V14.01,2013-06-30 05:16:00,
2013-06-30 01:17:00,62.6,61.2,29.70,ENE,63,3.0,6.0,95,0.27,,---,0.27,VWS V14.01,2013-06-30 05:17:00,
2013-06-30 01:18:00,62.6,61.2,29.69,NNW,333,3.0,6.0,95,0.27,,---,0.27,VWS V14.01,2013-06-30 05:18:00,
2013-06-30 01:19:00,62.6,61.2,29.69,NNE,26,4.0,7.0,95,0.27,,---,0.27,VWS V14.01,2013-06-30 05:19:00,
2013-06-30 01:20:00,62.5,61.0,29.69,NNW,342,2.0,7.0,95,0.27,,---,0.27,VWS V14.01,2013-06-30 05:20:00,
2013-06-30 01:21:00,62.6,61.2,29.69,WNW,300,1.0,7.0,95,0.27,,---,0.27,VWS V14.01,2013-06-30 05:21:00,
2013-06-30 01:22:00,62.6,61.2,29.69,North,354,1.0,7.0,95,0.27,,---,0.27,VWS V14.01,2013-06-30 05:22:00,
2013-06-30 01:23:00,62.6,61.2,29.69,NNW,346,3.0,7.0,95,0.27,,---,0.27,VWS V14.01,2013-06-30 05:23:00,
2013-06-30 01:24:00,62.5,61.0,29.70,North,6,2.0,7.0,95,0.27,,---,0.27,VWS V14.01,2013-06-30 05:24:00,
2013-06-30 01:25:00,62.5,61.0,29.69,NW,325,2.0,7.0,95,0.27,,---,0.27,VWS V14.01,2013-06-30 05:25:00,
2013-06-30 01:26:00,62.5,61.0,29.70,North,352,1.0,7.0,95,0.27,,---,0.27,VWS V14.01,2013-06-30 05:26:00,
2013-06-30 01:27:00,62.5,61.0,29.69,NW,313,0.0,7.0,95,0.27,,---,0.27,VWS V14.01,2013-06-30 05:27:00,
2013-06-30 01:28:00,62.5,61.0,29.69,NW,321,2.0,7.0,95,0.27,,---,0.27,VWS V14.01,2013-06-30 05:28:00,
2013-06-30 01:29:00,62.5,61.0,29.69,NNW,343,2.0,7.0,95,0.27,,---,0.27,VWS V14.01,2013-06-30 05:29:00,
2013-06-30 01:30:00,62.5,61.0,29.69,NNW,347,1.0,7.0,95,0.27,,---,0.27,VWS V14.01,2013-06-30 05:30:00,
2013-06-30 01:31:00,62.5,61.0,29.69,WNW,295,1.0,2.0,95,0.16,,---,0.27,VWS V14.01,2013-06-30 05:31:00,
2013-06-30 01:32:00,62.4,61.0,29.69,NW,322,1.0,3.0,95,0.16,,---,0.27,VWS V14.01,2013-06-30 05:32:00,
2013-06-30 01:33:00,62.4,61.0,29.69,NNW,343,3.0,4.0,95,0.16,,---,0.27,VWS V14.01,2013-06-30 05:33:00,
2013-06-30 01:34:00,62.4,61.0,29.69,NNW,335,2.0,4.0,95,0.16,,---,0.27,VWS V14.01,2013-06-30 05:34:00,
2013-06-30 01:35:00,62.4,61.0,29.69,NW,321,2.0,4.0,95,0.16,,---,0.27,VWS V14.01,2013-06-30 05:35:00,
2013-06-30 01:36:00,62.4,61.0,29.69,NNW,343,3.0,4.0,95,0.16,,---,0.27,VWS V14.01,2013-06-30 05:36:00,
2013-06-30 01:37:00,62.4,61.0,29.69,NNW,335,3.0,4.0,95,0.16,,---,0.27,VWS V14.01,2013-06-30 05:37:00,
2013-06-30 01:38:00,62.4,61.0,29.69,North,11,2.0,4.0,95,0.16,,---,0.27,VWS V14.01,2013-06-30 05:38:00,
2013-06-30 01:39:00,62.4,61.0,29.69,North,356,3.0,4.0,95,0.16,,---,0.27,VWS V14.01,2013-06-30 05:39:00,
2013-06-30 01:40:00,62.4,61.0,29.70,North,352,2.0,4.0,95,0.16,,---,0.27,VWS V14.01,2013-06-30 05:40:00,
2013-06-30 01:41:00,62.4,61.0,29.69,NNW,331,2.0,4.0,95,0.16,,---,0.27,VWS V14.01,2013-06-30 05:41:00,
2013-06-30 01:42:00,62.4,61.0,29.69,NNW,335,2.0,4.0,95,0.16,,---,0.27,VWS V14.01,2013-06-30 05:42:00,
2013-06-30 01:43:00,62.4,61.0,29.69,NNW,327,2.0,4.0,95,0.16,,---,0.27,VWS V14.01,2013-06-30 05:43:00,
2013-06-30 01:44:00,62.4,61.0,29.69,North,353,3.0,4.0,95,0.16,,---,0.27,VWS V14.01,2013-06-30 05:44:00,
2013-06-30 01:45:00,62.4,61.0,29.69,NNW,335,2.0,4.0,95,0.16,,---,0.27,VWS V14.01,2013-06-30 05:45:00,
2013-06-30 01:46:00,62.4,61.0,29.69,NNW,335,2.0,4.0,95,0.16,,---,0.27,VWS V14.01,2013-06-30 05:46:00,
2013-06-30 01:47:00,62.5,61.0,29.69,NNW,343,1.0,4.0,95,0.16,,---,0.27,VWS V14.01,2013-06-30 05:47:00,
2013-06-30 01:48:00,62.4,61.0,29.69,North,356,3.0,4.0,95,0.16,,---,0.27,VWS V14.01,2013-06-30 05:48:00,
2013-06-30 01:49:00,62.5,61.0,29.69,NNW,328,2.0,4.0,95,0.16,,---,0.27,VWS V14.01,2013-06-30 05:49:00,
2013-06-30 01:50:00,62.5,61.0,29.69,NNW,335,2.0,4.0,95,0.16,,---,0.27,VWS V14.01,2013-06-30 05:50:00,
2013-06-30 01:51:00,62.5,61.0,29.69,NNW,335,3.0,4.0,95,0.16,,---,0.27,VWS V14.01,2013-06-30 05:51:00,
2013-06-30 01:52:00,62.5,61.0,29.69,NNW,335,2.0,4.0,95,0.16,,---,0.27,VWS V14.01,2013-06-30 05:52:00,
2013-06-30 01:53:00,62.5,61.0,29.69,NW,309,3.0,4.0,95,0.16,,---,0.27,VWS V14.01,2013-06-30 05:53:00,
2013-06-30 01:54:00,62.5,61.0,29.69,NNW,336,4.0,4.0,95,0.16,,---,0.27,VWS V14.01,2013-06-30 05:54:00,
2013-06-30 01:55:00,62.5,61.0,29.69,NNW,333,3.0,4.0,95,0.16,,---,0.27,VWS V14.01,2013-06-30 05:55:00,
2013-06-30 01:56:00,62.5,61.0,29.69,NW,325,1.0,4.0,95,0.16,,---,0.27,VWS V14.01,2013-06-30 05:56:00,
2013-06-30 01:57:00,62.5,61.0,29.69,NNW,347,2.0,4.0,95,0.16,,---,0.27,VWS V14.01,2013-06-30 05:57:00,
2013-06-30 01:58:00,62.5,61.0,29.69,NNW,336,3.0,4.0,95,0.16,,---,0.27,VWS V14.01,2013-06-30 05:58:00,
2013-06-30 01:59:00,62.5,61.0,29.69,North,6,3.0,4.0,95,0.16,,---,0.27,VWS V14.01,2013-06-30 05:59:00,
2013-06-30 02:00:00,62.6,61.2,29.69,NNW,333,3.0,4.0,95,0.16,,---,0.27,VWS V14.01,2013-06-30 06:00:00,
2013-06-30 02:01:00,62.6,61.2,29.69,NNW,342,2.0,4.0,95,0.02,,---,0.27,VWS V14.01,2013-06-30 06:01:00,
2013-06-30 02:02:00,62.6,61.2,29.69,NNW,348,2.0,4.0,95,0.02,,---,0.27,VWS V14.01,2013-06-30 06:02:00,
2013-06-30 02:03:00,62.6,61.2,29.69,NNE,29,2.0,5.0,95,0.02,,---,0.27,VWS V14.01,2013-06-30 06:03:00,
2013-06-30 02:04:00,62.6,61.2,29.69,NNW,335,1.0,5.0,95,0.02,,---,0.27,VWS V14.01,2013-06-30 06:04:00,
2013-06-30 02:05:00,62.6,61.2,29.69,NNW,338,3.0,5.0,95,0.02,,---,0.27,VWS V14.01,2013-06-30 06:05:00,
2013-06-30 02:06:00,62.6,61.2,29.69,NNW,339,2.0,5.0,95,0.02,,---,0.27,VWS V14.01,2013-06-30 06:06:00,
2013-06-30 02:07:00,62.6,61.2,29.69,NNW,340,0.0,5.0,95,0.02,,---,0.27,VWS V14.01,2013-06-30 06:07:00,
2013-06-30 02:08:00,62.6,61.2,29.69,North,355,0.0,5.0,95,0.02,,---,0.27,VWS V14.01,2013-06-30 06:08:00,
2013-06-30 02:09:00,62.6,61.2,29.69,NNW,331,0.0,5.0,95,0.02,,---,0.27,VWS V14.01,2013-06-30 06:09:00,
2013-06-30 02:10:00,62.6,61.2,29.69,NNW,343,2.0,5.0,95,0.02,,---,0.27,VWS V14.01,2013-06-30 06:10:00,
2013-06-30 02:11:00,62.6,61.2,29.69,North,4,2.0,5.0,95,0.02,,---,0.27,VWS V14.01,2013-06-30 06:11:00,
2013-06-30 02:12:00,62.6,61.2,29.69,NNW,333,1.0,5.0,95,0.02,,---,0.27,VWS V14.01,2013-06-30 06:12:00,
2013-06-30 02:13:00,62.6,61.2,29.69,NW,326,1.0,5.0,95,0.02,,---,0.27,VWS V14.01,2013-06-30 06:13:00,
2013-06-30 02:14:00,62.6,61.2,29.69,NW,326,1.0,5.0,95,0.02,,---,0.27,VWS V14.01,2013-06-30 06:14:00,
2013-06-30 02:15:00,62.6,61.2,29.69,North,1,1.0,5.0,95,0.02,,---,0.27,VWS V14.01,2013-06-30 06:15:00,
2013-06-30 02:16:00,62.6,61.2,29.69,NNW,337,2.0,5.0,95,0.02,,---,0.27,VWS V14.01,2013-06-30 06:16:00,
2013-06-30 02:17:00,62.6,61.2,29.69,NNW,346,1.0,5.0,95,0.02,,---,0.27,VWS V14.01,2013-06-30 06:17:00,
2013-06-30 02:18:00,62.6,61.2,29.69,NNW,332,2.0,5.0,95,0.02,,---,0.27,VWS V14.01,2013-06-30 06:18:00,
2013-06-30 02:19:00,62.6,61.2,29.69,North,350,1.0,5.0,95,0.02,,---,0.27,VWS V14.01,2013-06-30 06:19:00,
2013-06-30 02:20:00,62.6,61.2,29.69,NNW,333,1.0,5.0,95,0.02,,---,0.27,VWS V14.01,2013-06-30 06:20:00,
2013-06-30 02:21:00,62.6,61.2,29.69,NNW,332,1.0,5.0,95,0.02,,---,0.27,VWS V14.01,2013-06-30 06:21:00,
2013-06-30 02:22:00,62.6,61.2,29.69,NNW,335,3.0,5.0,95,0.02,,---,0.27,VWS V14.01,2013-06-30 06:22:00,
2013-06-30 02:23:00,62.6,61.2,29.69,NNW,346,2.0,5.0,95,0.02,,---,0.27,VWS V14.01,2013-06-30 06:23:00,
2013-06-30 02:24:00,62.6,61.2,29.69,NW,318,2.0,5.0,95,0.02,,---,0.27,VWS V14.01,2013-06-30 06:24:00,
2013-06-30 02:25:00,62.6,61.2,29.69,NW,321,3.0,5.0,95,0.02,,---,0.27,VWS V14.01,2013-06-30 06:25:00,
2013-06-30 02:26:00,62.6,61.2,29.69,NNW,348,3.0,5.0,95,0.02,,---,0.27,VWS V14.01,2013-06-30 06:26:00,
2013-06-30 02:27:00,62.6,61.2,29.69,NNW,330,2.0,5.0,95,0.02,,---,0.27,VWS V14.01,2013-06-30 06:27:00,
2013-06-30 02:28:00,62.6,61.2,29.69,NW,321,3.0,5.0,95,0.02,,---,0.27,VWS V14.01,2013-06-30 06:28:00,
2013-06-30 02:29:00,62.6,61.2,29.69,NW,316,2.0,5.0,95,0.02,,---,0.27,VWS V14.01,2013-06-30 06:29:00,
2013-06-30 02:30:00,62.6,61.2,29.69,NNW,328,2.0,5.0,95,0.02,,---,0.27,VWS V14.01,2013-06-30 06:30:00,
2013-06-30 02:31:00,62.6,61.2,29.70,NW,326,2.0,3.0,95,0.00,,---,0.27,VWS V14.01,2013-06-30 06:31:00,
2013-06-30 02:32:00,62.6,61.2,29.70,NNW,337,2.0,3.0,95,0.00,,---,0.27,VWS V14.01,2013-06-30 06:32:00,
2013-06-30 02:33:00,62.6,61.2,29.69,NW,325,2.0,3.0,95,0.00,,---,0.27,VWS V14.01,2013-06-30 06:33:00,
2013-06-30 02:34:00,62.6,61.2,29.70,North,6,2.0,4.0,95,0.00,,---,0.27,VWS V14.01,2013-06-30 06:34:00,
2013-06-30 02:35:00,62.6,61.2,29.69,NNW,333,4.0,4.0,95,0.00,,---,0.27,VWS V14.01,2013-06-30 06:35:00,
2013-06-30 02:36:00,62.6,61.2,29.69,NNW,344,3.0,4.0,95,0.00,,---,0.27,VWS V14.01,2013-06-30 06:36:00,
2013-06-30 02:37:00,62.6,61.2,29.69,NW,325,2.0,4.0,95,0.00,,---,0.27,VWS V14.01,2013-06-30 06:37:00,
2013-06-30 02:38:00,62.6,61.2,29.69,NNE,13,4.0,4.0,95,0.00,,---,0.27,VWS V14.01,2013-06-30 06:38:00,
2013-06-30 02:39:00,62.6,61.2,29.69,NNW,348,2.0,4.0,95,0.00,,---,0.27,VWS V14.01,2013-06-30 06:39:00,
2013-06-30 02:40:00,62.6,61.2,29.69,NNW,345,3.0,5.0,95,0.00,,---,0.27,VWS V14.01,2013-06-30 06:40:00,
2013-06-30 02:41:00,62.6,61.2,29.69,NNW,330,3.0,5.0,95,0.00,,---,0.27,VWS V14.01,2013-06-30 06:41:00,
2013-06-30 02:42:00,62.6,61.2,29.69,NNW,339,2.0,5.0,95,0.00,,---,0.27,VWS V14.01,2013-06-30 06:42:00,
2013-06-30 02:43:00,62.6,61.2,29.69,North,360,4.0,5.0,95,0.00,,---,0.27,VWS V14.01,2013-06-30 06:43:00,
2013-06-30 02:44:00,62.6,61.2,29.69,NNW,335,3.0,5.0,95,0.00,,---,0.27,VWS V14.01,2013-06-30 06:44:00,
2013-06-30 02:45:00,62.6,61.2,29.69,NNW,330,3.0,5.0,95,0.00,,---,0.27,VWS V14.01,2013-06-30 06:45:00,
2013-06-30 02:46:00,62.6,61.2,29.69,NW,320,2.0,5.0,95,0.00,,---,0.27,VWS V14.01,2013-06-30 06:46:00,
2013-06-30 02:47:00,62.6,61.2,29.69,NNW,331,2.0,5.0,95,0.00,,---,0.27,VWS V14.01,2013-06-30 06:47:00,
2013-06-30 02:48:00,62.6,61.2,29.69,NNW,330,3.0,6.0,95,0.00,,---,0.27,VWS V14.01,2013-06-30 06:48:00,
2013-06-30 02:49:00,62.6,61.2,29.69,North,360,3.0,6.0,95,0.00,,---,0.27,VWS V14.01,2013-06-30 06:49:00,
2013-06-30 02:50:00,62.6,61.2,29.69,NNW,328,3.0,6.0,95,0.00,,---,0.27,VWS V14.01,2013-06-30 06:50:00,
2013-06-30 02:51:00,62.6,61.2,29.69,NNW,337,2.0,6.0,95,0.00,,---,0.27,VWS V14.01,2013-06-30 06:51:00,
2013-06-30 02:52:00,62.6,61.2,29.69,NNW,344,2.0,6.0,95,0.00,,---,0.27,VWS V14.01,2013-06-30 06:52:00,
2013-06-30 02:53:00,62.6,60.8,29.69,North,352,0.0,6.0,94,0.00,,---,0.27,VWS V14.01,2013-06-30 06:53:00,
2013-06-30 02:54:00,62.6,61.2,29.69,NW,325,2.0,6.0,95,0.00,,---,0.27,VWS V14.01,2013-06-30 06:54:00,
2013-06-30 02:55:00,62.6,61.2,29.69,NW,315,2.0,6.0,95,0.00,,---,0.27,VWS V14.01,2013-06-30 06:55:00,
2013-06-30 02:56:00,62.6,61.2,29.69,NNE,13,3.0,6.0,95,0.00,,---,0.27,VWS V14.01,2013-06-30 06:56:00,
2013-06-30 02:57:00,62.6,61.2,29.69,NE,43,2.0,6.0,95,0.00,,---,0.27,VWS V14.01,2013-06-30 06:57:00,
2013-06-30 02:58:00,62.6,61.2,29.69,NNE,22,4.0,6.0,95,0.00,,---,0.27,VWS V14.01,2013-06-30 06:58:00,
2013-06-30 02:59:00,62.6,61.2,29.69,East,96,1.0,6.0,95,0.00,,---,0.27,VWS V14.01,2013-06-30 06:59:00,
2013-06-30 03:00:00,62.6,61.2,29.69,NNW,339,2.0,6.0,95,0.00,,---,0.27,VWS V14.01,2013-06-30 07:00:00,
2013-06-30 03:01:00,62.6,61.2,29.69,NW,317,2.0,2.0,95,0.00,,---,0.27,VWS V14.01,2013-06-30 07:01:00,
2013-06-30 03:02:00,62.6,61.2,29.69,NNW,340,1.0,3.0,95,0.00,,---,0.27,VWS V14.01,2013-06-30 07:02:00,
2013-06-30 03:03:00,62.6,61.2,29.69,NE,56,4.0,4.0,95,0.00,,---,0.27,VWS V14.01,2013-06-30 07:03:00,
2013-06-30 03:04:00,62.6,61.2,29.69,NNW,335,2.0,4.0,95,0.00,,---,0.27,VWS V14.01,2013-06-30 07:04:00,
2013-06-30 03:05:00,62.6,61.2,29.69,NW,314,2.0,4.0,95,0.00,,---,0.27,VWS V14.01,2013-06-30 07:05:00,
2013-06-30 03:06:00,62.6,61.2,29.69,NNW,340,2.0,4.0,95,0.00,,---,0.27,VWS V14.01,2013-06-30 07:06:00,
2013-06-30 03:07:00,62.6,61.2,29.69,NNW,333,1.0,4.0,95,0.00,,---,0.27,VWS V14.01,2013-06-30 07:07:00,
2013-06-30 03:08:00,62.6,61.2,29.69,NNW,342,1.0,4.0,95,0.00,,---,0.27,VWS V14.01,2013-06-30 07:08:00,
2013-06-30 03:09:00,62.6,61.2,29.69,NNE,18,3.0,4.0,95,0.00,,---,0.27,VWS V14.01,2013-06-30 07:09:00,
2013-06-30 03:10:00,62.6,61.2,29.69,NNW,339,1.0,4.0,95,0.00,,---,0.27,VWS V14.01,2013-06-30 07:10:00,
2013-06-30 03:11:00,62.6,61.2,29.69,North,352,1.0,4.0,95,0.00,,---,0.27,VWS V14.01,2013-06-30 07:11:00,
2013-06-30 03:12:00,62.6,61.2,29.69,NW,323,2.0,4.0,95,0.00,,---,0.27,VWS V14.01,2013-06-30 07:12:00,
2013-06-30 03:13:00,62.6,61.2,29.69,NNE,13,4.0,5.0,95,0.00,,---,0.27,VWS V14.01,2013-06-30 07:13:00,
2013-06-30 03:14:00,62.6,61.2,29.69,NNE,23,3.0,5.0,95,0.00,,---,0.27,VWS V14.01,2013-06-30 07:14:00,
2013-06-30 03:15:00,62.6,61.2,29.69,NNW,339,2.0,5.0,95,0.00,,---,0.27,VWS V14.01,2013-06-30 07:15:00,
2013-06-30 03:16:00,62.6,61.2,29.69,North,9,1.0,5.0,95,0.00,,---,0.27,VWS V14.01,2013-06-30 07:16:00,
2013-06-30 03:17:00,62.6,61.2,29.69,NNW,347,5.0,5.0,95,0.00,,---,0.27,VWS V14.01,2013-06-30 07:17:00,
2013-06-30 03:18:00,62.6,61.2,29.70,North,359,1.0,5.0,95,0.00,,---,0.27,VWS V14.01,2013-06-30 07:18:00,
2013-06-30 03:19:00,62.6,61.2,29.70,NNW,346,2.0,5.0,95,0.00,,---,0.27,VWS V14.01,2013-06-30 07:19:00,
2013-06-30 03:20:00,62.6,61.2,29.70,NNW,333,1.0,5.0,95,0.00,,---,0.27,VWS V14.01,2013-06-30 07:20:00,
2013-06-30 03:21:00,62.6,61.2,29.70,NNW,339,2.0,5.0,95,0.00,,---,0.27,VWS V14.01,2013-06-30 07:21:00,
2013-06-30 03:22:00,62.6,61.2,29.70,NW,321,3.0,5.0,95,0.00,,---,0.27,VWS V14.01,2013-06-30 07:22:00,
2013-06-30 03:23:00,62.6,61.2,29.70,NW,318,2.0,5.0,95,0.00,,---,0.27,VWS V14.01,2013-06-30 07:23:00,
2013-06-30 03:24:00,62.6,61.2,29.70,NNW,330,1.0,5.0,95,0.00,,---,0.27,VWS V14.01,2013-06-30 07:24:00,
2013-06-30 03:25:00,62.6,61.2,29.70,NNW,348,2.0,5.0,95,0.00,,---,0.27,VWS V14.01,2013-06-30 07:25:00,
2013-06-30 03:26:00,62.6,61.2,29.70,NW,326,3.0,5.0,95,0.00,,---,0.27,VWS V14.01,2013-06-30 07:26:00,
2013-06-30 03:27:00,62.6,61.2,29.70,NW,317,2.0,5.0,95,0.00,,---,0.27,VWS V14.01,2013-06-30 07:27:00,
2013-06-30 03:28:00,62.7,61.2,29.70,NNW,333,3.0,5.0,95,0.00,,---,0.27,VWS V14.01,2013-06-30 07:28:00,
2013-06-30 03:29:00,62.7,61.2,29.70,North,359,2.0,5.0,95,0.00,,---,0.27,VWS V14.01,2013-06-30 07:29:00,
2013-06-30 03:30:00,62.7,61.2,29.70,NNW,346,4.0,5.0,95,0.00,,---,0.27,VWS V14.01,2013-06-30 07:30:00,
2013-06-30 03:31:00,62.7,61.2,29.70,North,356,5.0,5.0,95,0.00,,---,0.27,VWS V14.01,2013-06-30 07:31:00,
2013-06-30 03:32:00,62.7,61.2,29.70,NNE,26,5.0,5.0,95,0.00,,---,0.27,VWS V14.01,2013-06-30 07:32:00,
2013-06-30 03:33:00,62.7,61.2,29.70,NNE,18,3.0,6.0,95,0.00,,---,0.27,VWS V14.01,2013-06-30 07:33:00,
2013-06-30 03:34:00,62.7,61.2,29.70,NW,323,2.0,6.0,95,0.00,,---,0.27,VWS V14.01,2013-06-30 07:34:00,
2013-06-30 03:35:00,62.7,61.2,29.70,NNW,342,4.0,6.0,95,0.00,,---,0.27,VWS V14.01,2013-06-30 07:35:00,
2013-06-30 03:36:00,62.7,61.2,29.70,NNW,340,1.0,6.0,95,0.00,,---,0.27,VWS V14.01,2013-06-30 07:36:00,
2013-06-30 03:37:00,62.7,61.2,29.70,North,9,2.0,6.0,95,0.00,,---,0.27,VWS V14.01,2013-06-30 07:37:00,
2013-06-30 03:38:00,62.7,61.2,29.70,NNW,341,2.0,6.0,95,0.00,,---,0.27,VWS V14.01,2013-06-30 07:38:00,
2013-06-30 03:39:00,62.7,61.2,29.70,North,352,2.0,6.0,95,0.00,,---,0.27,VWS V14.01,2013-06-30 07:39:00,
2013-06-30 03:40:00,62.7,61.2,29.70,NE,46,2.0,6.0,95,0.00,,---,0.27,VWS V14.01,2013-06-30 07:40:00,
2013-06-30 03:41:00,62.7,61.2,29.70,NW,308,1.0,6.0,95,0.00,,---,0.27,VWS V14.01,2013-06-30 07:41:00,
2013-06-30 03:42:00,62.7,61.2,29.70,NNW,328,1.0,6.0,95,0.00,,---,0.27,VWS V14.01,2013-06-30 07:42:00,
2013-06-30 03:43:00,62.7,61.2,29.70,NNW,332,2.0,6.0,95,0.00,,---,0.27,VWS V14.01,2013-06-30 07:43:00,
2013-06-30 03:44:00,62.7,61.2,29.70,North,10,2.0,6.0,95,0.00,,---,0.27,VWS V14.01,2013-06-30 07:44:00,
2013-06-30 03:45:00,62.7,61.2,29.70,NW,317,3.0,6.0,95,0.00,,---,0.27,VWS V14.01,2013-06-30 07:45:00,
2013-06-30 03:46:00,62.7,61.2,29.70,NNE,33,2.0,6.0,95,0.00,,---,0.27,VWS V14.01,2013-06-30 07:46:00,
2013-06-30 03:47:00,62.7,61.2,29.70,NW,316,2.0,6.0,95,0.00,,---,0.27,VWS V14.01,2013-06-30 07:47:00,
2013-06-30 03:48:00,62.7,61.2,29.70,North,8,1.0,6.0,95,0.00,,---,0.27,VWS V14.01,2013-06-30 07:48:00,
2013-06-30 03:49:00,62.7,61.2,29.70,North,9,2.0,6.0,95,0.00,,---,0.27,VWS V14.01,2013-06-30 07:49:00,
2013-06-30 03:50:00,62.7,61.2,29.70,NW,323,2.0,6.0,95,0.00,,---,0.27,VWS V14.01,2013-06-30 07:50:00,
2013-06-30 03:51:00,62.7,61.2,29.70,NNW,338,3.0,6.0,95,0.00,,---,0.27,VWS V14.01,2013-06-30 07:51:00,
2013-06-30 03:52:00,62.7,61.2,29.71,North,360,5.0,6.0,95,0.00,,---,0.27,VWS V14.01,2013-06-30 07:52:00,
2013-06-30 03:53:00,62.7,61.2,29.71,NW,317,2.0,6.0,95,0.00,,---,0.27,VWS V14.01,2013-06-30 07:53:00,
2013-06-30 03:54:00,62.8,61.3,29.71,NNW,342,4.0,6.0,95,0.00,,---,0.27,VWS V14.01,2013-06-30 07:54:00,
2013-06-30 03:55:00,62.8,61.3,29.71,NNW,347,3.0,6.0,95,0.00,,---,0.27,VWS V14.01,2013-06-30 07:55:00,
2013-06-30 03:56:00,62.8,61.3,29.71,NNW,336,1.0,6.0,95,0.00,,---,0.27,VWS V14.01,2013-06-30 07:56:00,
2013-06-30 03:57:00,62.8,61.3,29.71,NNW,338,1.0,6.0,95,0.00,,---,0.27,VWS V14.01,2013-06-30 07:57:00,
2013-06-30 03:58:00,62.8,61.3,29.71,East,101,2.0,6.0,95,0.00,,---,0.27,VWS V14.01,2013-06-30 07:58:00,
2013-06-30 03:59:00,62.8,61.3,29.71,North,352,1.0,6.0,95,0.00,,---,0.27,VWS V14.01,2013-06-30 07:59:00,
2013-06-30 04:00:00,62.8,61.3,29.71,NW,320,2.0,6.0,95,0.00,,---,0.27,VWS V14.01,2013-06-30 08:00:00,
2013-06-30 04:01:00,62.8,61.3,29.71,NNE,18,2.0,6.0,95,0.00,,---,0.27,VWS V14.01,2013-06-30 08:01:00,
2013-06-30 04:02:00,62.8,61.3,29.71,NNE,16,3.0,6.0,95,0.00,,---,0.27,VWS V14.01,2013-06-30 08:02:00,
2013-06-30 04:03:00,62.8,61.3,29.71,NNW,329,1.0,6.0,95,0.00,,---,0.27,VWS V14.01,2013-06-30 08:03:00,
2013-06-30 04:04:00,62.8,61.3,29.71,NE,39,2.0,6.0,95,0.00,,---,0.27,VWS V14.01,2013-06-30 08:04:00,
2013-06-30 04:05:00,62.8,61.3,29.71,North,349,4.0,6.0,95,0.00,,---,0.27,VWS V14.01,2013-06-30 08:05:00,
2013-06-30 04:06:00,62.8,61.3,29.71,NW,321,2.0,6.0,95,0.00,,---,0.27,VWS V14.01,2013-06-30 08:06:00,
2013-06-30 04:07:00,62.8,61.3,29.71,NNW,335,3.0,6.0,95,0.00,,---,0.27,VWS V14.01,2013-06-30 08:07:00,
2013-06-30 04:08:00,62.8,61.3,29.71,NW,313,2.0,6.0,95,0.00,,---,0.27,VWS V14.01,2013-06-30 08:08:00,
2013-06-30 04:09:00,62.8,61.3,29.71,NNW,327,1.0,6.0,95,0.00,,---,0.27,VWS V14.01,2013-06-30 08:09:00,
2013-06-30 04:10:00,62.8,61.3,29.71,NNW,340,2.0,6.0,95,0.00,,---,0.27,VWS V14.01,2013-06-30 08:10:00,
2013-06-30 04:11:00,62.8,61.3,29.71,NW,321,5.0,6.0,95,0.00,,---,0.27,VWS V14.01,2013-06-30 08:11:00,
2013-06-30 04:12:00,62.8,61.3,29.71,NNW,343,2.0,7.0,95,0.00,,---,0.27,VWS V14.01,2013-06-30 08:12:00,
2013-06-30 04:13:00,62.8,61.3,29.71,NNW,331,2.0,7.0,95,0.00,,---,0.27,VWS V14.01,2013-06-30 08:13:00,
2013-06-30 04:14:00,62.8,61.0,29.71,NNW,335,4.0,7.0,94,0.00,,---,0.27,VWS V14.01,2013-06-30 08:14:00,
2013-06-30 04:15:00,62.8,61.0,29.71,NNW,341,4.0,7.0,94,0.00,,---,0.27,VWS V14.01,2013-06-30 08:15:00,
2013-06-30 04:16:00,62.9,61.2,29.71,NNE,30,2.0,7.0,94,0.00,,---,0.27,VWS V14.01,2013-06-30 08:16:00,
2013-06-30 04:17:00,62.8,61.0,29.71,NNW,336,2.0,7.0,94,0.00,,---,0.27,VWS V14.01,2013-06-30 08:17:00,
2013-06-30 04:18:00,62.9,61.2,29.72,NW,316,1.0,7.0,94,0.00,,---,0.27,VWS V14.01,2013-06-30 08:18:00,
2013-06-30 04:19:00,62.8,61.0,29.72,NNE,16,2.0,7.0,94,0.00,,---,0.27,VWS V14.01,2013-06-30 08:19:00,
2013-06-30 04:20:00,62.8,61.0,29.71,NW,326,2.0,7.0,94,0.00,,---,0.27,VWS V14.01,2013-06-30 08:20:00,
2013-06-30 04:21:00,62.8,61.0,29.71,NW,312,3.0,7.0,94,0.00,,---,0.27,VWS V14.01,2013-06-30 08:21:00,
2013-06-30 04:22:00,62.8,61.0,29.71,WNW,302,3.0,7.0,94,0.00,,---,0.27,VWS V14.01,2013-06-30 08:22:00,
2013-06-30 04:23:00,62.8,61.0,29.72,NNW,327,2.0,7.0,94,0.00,,---,0.27,VWS V14.01,2013-06-30 08:23:00,
2013-06-30 04:24:00,62.8,61.0,29.72,NNW,343,2.0,7.0,94,0.00,,---,0.27,VWS V14.01,2013-06-30 08:24:00,
2013-06-30 04:25:00,62.8,61.0,29.72,NNW,327,1.0,7.0,94,0.00,,---,0.27,VWS V14.01,2013-06-30 08:25:00,
2013-06-30 04:26:00,62.8,61.0,29.72,North,352,2.0,7.0,94,0.00,,---,0.27,VWS V14.01,2013-06-30 08:26:00,
2013-06-30 04:27:00,62.8,61.0,29.72,NW,321,3.0,7.0,94,0.00,,---,0.27,VWS V14.01,2013-06-30 08:27:00,
2013-06-30 04:28:00,62.8,61.0,29.71,NW,311,2.0,7.0,94,0.00,,---,0.27,VWS V14.01,2013-06-30 08:28:00,
2013-06-30 04:29:00,62.8,61.0,29.72,NW,317,2.0,7.0,94,0.00,,---,0.27,VWS V14.01,2013-06-30 08:29:00,
2013-06-30 04:30:00,62.8,61.0,29.72,North,1,3.0,7.0,94,0.00,,---,0.27,VWS V14.01,2013-06-30 08:30:00,
2013-06-30 04:31:00,62.7,61.0,29.72,NW,321,1.0,4.0,94,0.00,,---,0.27,VWS V14.01,2013-06-30 08:31:00,
2013-06-30 04:32:00,62.8,61.0,29.71,North,360,2.0,4.0,94,0.00,,---,0.27,VWS V14.01,2013-06-30 08:32:00,
2013-06-30 04:33:00,62.8,61.0,29.72,NNE,12,9.0,9.0,94,0.00,,---,0.27,VWS V14.01,2013-06-30 08:33:00,
2013-06-30 04:34:00,62.7,61.0,29.71,NNW,332,2.0,9.0,94,0.00,,---,0.27,VWS V14.01,2013-06-30 08:34:00,
2013-06-30 04:35:00,62.7,61.0,29.72,North,6,2.0,9.0,94,0.00,,---,0.27,VWS V14.01,2013-06-30 08:35:00,
2013-06-30 04:36:00,62.7,61.0,29.71,NNW,328,3.0,9.0,94,0.00,,---,0.27,VWS V14.01,2013-06-30 08:36:00,
2013-06-30 04:37:00,62.7,61.0,29.71,NNW,347,2.0,9.0,94,0.00,,---,0.27,VWS V14.01,2013-06-30 08:37:00,
2013-06-30 04:38:00,62.7,61.0,29.71,North,350,3.0,9.0,94,0.00,,---,0.27,VWS V14.01,2013-06-30 08:38:00,
2013-06-30 04:39:00,62.7,61.0,29.71,NNW,340,2.0,9.0,94,0.00,,---,0.27,VWS V14.01,2013-06-30 08:39:00,
2013-06-30 04:40:00,62.6,60.8,29.72,North,360,3.0,9.0,94,0.00,,---,0.27,VWS V14.01,2013-06-30 08:40:00,
2013-06-30 04:41:00,62.6,60.8,29.71,NNW,330,2.0,9.0,94,0.00,,---,0.27,VWS V14.01,2013-06-30 08:41:00,
2013-06-30 04:42:00,62.6,60.8,29.71,NNW,340,2.0,9.0,94,0.00,,---,0.27,VWS V14.01,2013-06-30 08:42:00,
2013-06-30 04:43:00,62.6,60.8,29.72,North,359,3.0,9.0,94,0.00,,---,0.27,VWS V14.01,2013-06-30 08:43:00,
2013-06-30 04:44:00,62.5,60.8,29.71,NNE,16,3.0,9.0,94,0.00,,---,0.27,VWS V14.01,2013-06-30 08:44:00,
2013-06-30 04:45:00,62.5,60.8,29.71,NW,318,3.0,9.0,94,0.00,,---,0.27,VWS V14.01,2013-06-30 08:45:00,
2013-06-30 04:46:00,62.5,60.8,29.72,NE,36,2.0,9.0,94,0.00,,---,0.27,VWS V14.01,2013-06-30 08:46:00,
2013-06-30 04:47:00,62.5,60.8,29.72,NNW,337,3.0,9.0,94,0.00,,---,0.27,VWS V14.01,2013-06-30 08:47:00,
2013-06-30 04:48:00,62.4,60.7,29.72,North,4,3.0,9.0,94,0.00,,---,0.27,VWS V14.01,2013-06-30 08:48:00,
2013-06-30 04:49:00,62.4,60.7,29.71,North,352,3.0,9.0,94,0.00,,---,0.27,VWS V14.01,2013-06-30 08:49:00,
2013-06-30 04:50:00,62.4,60.7,29.71,North,6,1.0,9.0,94,0.00,,---,0.27,VWS V14.01,2013-06-30 08:50:00,
2013-06-30 04:51:00,62.4,60.7,29.72,NNW,333,1.0,9.0,94,0.00,,---,0.27,VWS V14.01,2013-06-30 08:51:00,
2013-06-30 04:52:00,62.4,60.7,29.72,NNW,328,2.0,9.0,94,0.00,,---,0.27,VWS V14.01,2013-06-30 08:52:00,
2013-06-30 04:53:00,62.3,60.6,29.72,NW,304,1.0,9.0,94,0.00,,---,0.27,VWS V14.01,2013-06-30 08:53:00,
2013-06-30 04:54:00,62.3,60.6,29.72,NNW,337,2.0,9.0,94,0.00,,---,0.27,VWS V14.01,2013-06-30 08:54:00,
2013-06-30 04:55:00,62.2,60.5,29.72,East,91,2.0,9.0,94,0.00,,---,0.27,VWS V14.01,2013-06-30 08:55:00,
2013-06-30 04:56:00,62.2,60.5,29.72,NNW,331,2.0,9.0,94,0.00,,---,0.27,VWS V14.01,2013-06-30 08:56:00,
2013-06-30 04:57:00,62.2,60.5,29.72,North,349,3.0,9.0,94,0.00,,---,0.27,VWS V14.01,2013-06-30 08:57:00,
2013-06-30 04:58:00,62.2,60.5,29.72,NW,321,3.0,9.0,94,0.00,,---,0.27,VWS V14.01,2013-06-30 08:58:00,
2013-06-30 04:59:00,62.2,60.5,29.72,North,8,3.0,9.0,94,0.00,,---,0.27,VWS V14.01,2013-06-30 08:59:00,
2013-06-30 05:00:00,62.1,60.4,29.72,North,349,1.0,9.0,94,0.00,,---,0.27,VWS V14.01,2013-06-30 09:00:00,
2013-06-30 05:01:00,62.1,60.4,29.72,North,3,4.0,4.0,94,0.00,,---,0.27,VWS V14.01,2013-06-30 09:01:00,
2013-06-30 05:02:00,62.1,60.4,29.72,North,354,5.0,7.0,94,0.00,,---,0.27,VWS V14.01,2013-06-30 09:02:00,
2013-06-30 05:03:00,62.1,60.4,29.72,NW,319,2.0,7.0,94,0.00,,---,0.27,VWS V14.01,2013-06-30 09:03:00,
2013-06-30 05:04:00,62.1,60.1,29.72,NNW,339,3.0,7.0,93,0.00,,---,0.27,VWS V14.01,2013-06-30 09:04:00,
2013-06-30 05:05:00,62.1,60.1,29.72,NW,312,3.0,7.0,93,0.00,,---,0.27,VWS V14.01,2013-06-30 09:05:00,
2013-06-30 05:06:00,62.1,60.1,29.72,NW,326,3.0,7.0,93,0.00,,---,0.27,VWS V14.01,2013-06-30 09:06:00,
2013-06-30 05:07:00,62.0,60.0,29.72,NNW,340,2.0,7.0,93,0.00,,---,0.27,VWS V14.01,2013-06-30 09:07:00,
2013-06-30 05:08:00,62.0,60.0,29.72,NE,40,3.0,7.0,93,0.00,,---,0.27,VWS V14.01,2013-06-30 09:08:00,
2013-06-30 05:09:00,62.0,60.0,29.72,NNW,335,2.0,7.0,93,0.00,,---,0.27,VWS V14.01,2013-06-30 09:09:00,
2013-06-30 05:10:00,62.0,60.0,29.72,NW,326,3.0,7.0,93,0.00,,---,0.27,VWS V14.01,2013-06-30 09:10:00,
2013-06-30 05:11:00,62.0,60.0,29.72,NNW,328,2.0,7.0,93,0.00,,---,0.27,VWS V14.01,2013-06-30 09:11:00,
2013-06-30 05:12:00,62.0,60.0,29.72,NNE,28,2.0,7.0,93,0.00,,---,0.27,VWS V14.01,2013-06-30 09:12:00,
2013-06-30 05:13:00,61.9,59.9,29.72,NNW,330,2.0,7.0,93,0.00,,---,0.27,VWS V14.01,2013-06-30 09:13:00,
2013-06-30 05:14:00,61.9,59.9,29.72,NNW,335,1.0,7.0,93,0.00,,---,0.27,VWS V14.01,2013-06-30 09:14:00,
2013-06-30 05:15:00,61.9,59.9,29.72,North,6,1.0,7.0,93,0.00,,---,0.27,VWS V14.01,2013-06-30 09:15:00,
2013-06-30 05:16:00,61.9,59.9,29.72,NNW,335,1.0,7.0,93,0.00,,---,0.27,VWS V14.01,2013-06-30 09:16:00,
2013-06-30 05:17:00,61.9,59.9,29.72,NW,325,2.0,7.0,93,0.00,,---,0.27,VWS V14.01,2013-06-30 09:17:00,
2013-06-30 05:18:00,61.9,59.9,29.72,North,10,5.0,7.0,93,0.00,,---,0.27,VWS V14.01,2013-06-30 09:18:00,
2013-06-30 05:19:00,61.8,59.8,29.72,NE,49,2.0,7.0,93,0.00,,---,0.27,VWS V14.01,2013-06-30 09:19:00,
2013-06-30 05:20:00,61.9,59.9,29.73,NW,325,2.0,7.0,93,0.00,,---,0.27,VWS V14.01,2013-06-30 09:20:00,
2013-06-30 05:21:00,61.8,59.8,29.73,North,10,2.0,7.0,93,0.00,,---,0.27,VWS V14.01,2013-06-30 09:21:00,
2013-06-30 05:22:00,61.8,59.8,29.73,NNE,23,2.0,7.0,93,0.00,,---,0.27,VWS V14.01,2013-06-30 09:22:00,
2013-06-30 05:23:00,61.8,59.8,29.73,North,354,2.0,7.0,93,0.00,,---,0.27,VWS V14.01,2013-06-30 09:23:00,
2013-06-30 05:24:00,61.8,59.8,29.73,NNE,25,4.0,7.0,93,0.00,,---,0.27,VWS V14.01,2013-06-30 09:24:00,
2013-06-30 05:25:00,61.8,59.8,29.73,NNW,333,2.0,7.0,93,0.00,,---,0.27,VWS V14.01,2013-06-30 09:25:00,
2013-06-30 05:26:00,61.8,59.8,29.73,ENE,58,4.0,7.0,93,0.00,,---,0.27,VWS V14.01,2013-06-30 09:26:00,
2013-06-30 05:27:00,61.8,59.8,29.73,NW,321,4.0,7.0,93,0.00,,---,0.27,VWS V14.01,2013-06-30 09:27:00,
2013-06-30 05:28:00,61.8,59.8,29.73,NNW,340,3.0,7.0,93,0.00,,---,0.27,VWS V14.01,2013-06-30 09:28:00,
2013-06-30 05:29:00,61.8,59.8,29.73,NE,41,2.0,7.0,93,0.00,,---,0.27,VWS V14.01,2013-06-30 09:29:00,
2013-06-30 05:30:00,61.8,59.8,29.73,NW,323,1.0,7.0,93,0.00,,---,0.27,VWS V14.01,2013-06-30 09:30:00,
2013-06-30 05:31:00,61.8,59.8,29.73,North,352,2.0,3.0,93,0.00,,---,0.27,VWS V14.01,2013-06-30 09:31:00,
2013-06-30 05:32:00,61.8,59.8,29.73,NNW,333,0.0,3.0,93,0.00,,---,0.27,VWS V14.01,2013-06-30 09:32:00,
2013-06-30 05:33:00,61.8,59.8,29.73,NE,50,2.0,3.0,93,0.00,,---,0.27,VWS V14.01,2013-06-30 09:33:00,
2013-06-30 05:34:00,61.7,59.7,29.73,NE,45,0.0,3.0,93,0.00,,---,0.27,VWS V14.01,2013-06-30 09:34:00,
2013-06-30 05:35:00,61.7,59.7,29.73,NNE,19,2.0,4.0,93,0.00,,---,0.27,VWS V14.01,2013-06-30 09:35:00,
2013-06-30 05:36:00,61.7,59.7,29.73,NNW,348,2.0,4.0,93,0.00,,---,0.27,VWS V14.01,2013-06-30 09:36:00,
2013-06-30 05:37:00,61.7,59.7,29.73,ENE,76,1.0,4.0,93,0.00,,---,0.27,VWS V14.01,2013-06-30 09:37:00,
2013-06-30 05:38:00,61.7,59.7,29.73,ENE,74,0.0,4.0,93,0.00,,---,0.27,VWS V14.01,2013-06-30 09:38:00,
2013-06-30 05:39:00,61.7,59.7,29.73,NNE,18,2.0,4.0,93,0.00,,---,0.27,VWS V14.01,2013-06-30 09:39:00,
2013-06-30 05:40:00,61.7,59.7,29.73,NNE,33,0.0,4.0,93,0.00,,---,0.27,VWS V14.01,2013-06-30 09:40:00,
2013-06-30 05:41:00,61.7,59.7,29.73,NNW,335,0.0,4.0,93,0.00,,---,0.27,VWS V14.01,2013-06-30 09:41:00,
2013-06-30 05:42:00,61.7,59.7,29.73,NW,325,0.0,4.0,93,0.00,,---,0.27,VWS V14.01,2013-06-30 09:42:00,
2013-06-30 05:43:00,61.7,60.0,29.73,NW,325,0.0,4.0,94,0.00,,---,0.27,VWS V14.01,2013-06-30 09:43:00,
2013-06-30 05:44:00,61.7,60.0,29.73,NNW,327,0.0,4.0,94,0.00,,---,0.27,VWS V14.01,2013-06-30 09:44:00,
2013-06-30 05:45:00,61.7,60.0,29.73,NNW,327,1.0,4.0,94,0.00,,---,0.27,VWS V14.01,2013-06-30 09:45:00,
2013-06-30 05:46:00,61.6,59.9,29.73,NW,313,2.0,4.0,94,0.00,,---,0.27,VWS V14.01,2013-06-30 09:46:00,
2013-06-30 05:47:00,61.6,59.9,29.73,NNE,23,2.0,4.0,94,0.00,,---,0.27,VWS V14.01,2013-06-30 09:47:00,
2013-06-30 05:48:00,61.6,59.9,29.73,NW,311,1.0,4.0,94,0.00,,---,0.27,VWS V14.01,2013-06-30 09:48:00,
2013-06-30 05:49:00,61.6,59.9,29.73,North,359,2.0,4.0,94,0.00,,---,0.27,VWS V14.01,2013-06-30 09:49:00,
2013-06-30 05:50:00,61.6,59.9,29.73,North,352,0.0,4.0,94,0.00,,---,0.27,VWS V14.01,2013-06-30 09:50:00,
2013-06-30 05:51:00,61.6,59.9,29.73,NW,316,1.0,4.0,94,0.00,,---,0.27,VWS V14.01,2013-06-30 09:51:00,
2013-06-30 05:52:00,61.6,59.9,29.73,NNW,329,1.0,4.0,94,0.00,,---,0.27,VWS V14.01,2013-06-30 09:52:00,
2013-06-30 05:53:00,61.6,59.9,29.73,NW,323,1.0,4.0,94,0.00,,---,0.27,VWS V14.01,2013-06-30 09:53:00,
2013-06-30 05:54:00,61.6,59.9,29.73,NNE,18,2.0,4.0,94,0.00,,---,0.27,VWS V14.01,2013-06-30 09:54:00,
2013-06-30 05:55:00,61.6,59.9,29.73,NE,34,2.0,4.0,94,0.01,,---,0.28,VWS V14.01,2013-06-30 09:55:00,
2013-06-30 05:56:00,61.6,59.9,29.73,ENE,60,2.0,4.0,94,0.01,,---,0.28,VWS V14.01,2013-06-30 09:56:00,
2013-06-30 05:57:00,61.6,59.9,29.73,NW,321,2.0,4.0,94,0.01,,---,0.28,VWS V14.01,2013-06-30 09:57:00,
2013-06-30 05:58:00,61.6,59.9,29.73,North,352,2.0,4.0,94,0.01,,---,0.28,VWS V14.01,2013-06-30 09:58:00,
2013-06-30 05:59:00,61.6,59.9,29.74,NW,312,4.0,5.0,94,0.01,,---,0.28,VWS V14.01,2013-06-30 09:59:00,
2013-06-30 06:00:00,61.6,59.9,29.74,NNE,25,3.0,5.0,94,0.01,,---,0.28,VWS V14.01,2013-06-30 10:00:00,
2013-06-30 06:01:00,61.6,59.9,29.74,NNW,329,2.0,3.0,94,0.01,,---,0.28,VWS V14.01,2013-06-30 10:01:00,
2013-06-30 06:02:00,61.6,59.9,29.74,NE,49,4.0,7.0,94,0.01,,---,0.28,VWS V14.01,2013-06-30 10:02:00,
2013-06-30 06:03:00,61.6,59.9,29.74,North,6,2.0,7.0,94,0.01,,---,0.28,VWS V14.01,2013-06-30 10:03:00,
2013-06-30 06:04:00,61.6,59.9,29.74,NNW,327,2.0,7.0,94,0.01,,---,0.28,VWS V14.01,2013-06-30 10:04:00,
2013-06-30 06:05:00,61.6,59.9,29.74,NNW,327,3.0,7.0,94,0.01,,---,0.28,VWS V14.01,2013-06-30 10:05:00,
2013-06-30 06:06:00,61.6,59.9,29.74,NNW,337,4.0,7.0,94,0.01,,---,0.28,VWS V14.01,2013-06-30 10:06:00,
2013-06-30 06:07:00,61.6,59.9,29.74,NW,321,3.0,7.0,94,0.01,,---,0.28,VWS V14.01,2013-06-30 10:07:00,
2013-06-30 06:08:00,61.6,59.9,29.74,NNW,336,4.0,7.0,94,0.01,,---,0.28,VWS V14.01,2013-06-30 10:08:00,
2013-06-30 06:09:00,61.7,60.0,29.74,NW,309,1.0,7.0,94,0.01,,---,0.28,VWS V14.01,2013-06-30 10:09:00,
2013-06-30 06:10:00,61.7,60.0,29.74,NNW,336,1.0,7.0,94,0.01,,---,0.28,VWS V14.01,2013-06-30 10:10:00,
2013-06-30 06:11:00,61.7,60.0,29.74,NW,321,1.0,7.0,94,0.01,,---,0.28,VWS V14.01,2013-06-30 10:11:00,
2013-06-30 06:12:00,61.7,60.0,29.74,North,11,4.0,7.0,94,0.01,,---,0.28,VWS V14.01,2013-06-30 10:12:00,
2013-06-30 06:13:00,61.7,60.0,29.74,North,352,4.0,7.0,94,0.01,,---,0.28,VWS V14.01,2013-06-30 10:13:00,
2013-06-30 06:14:00,61.7,60.0,29.74,NW,316,1.0,7.0,94,0.01,,---,0.28,VWS V14.01,2013-06-30 10:14:00,
2013-06-30 06:15:00,61.8,60.1,29.74,NW,323,3.0,7.0,94,0.01,,---,0.28,VWS V14.01,2013-06-30 10:15:00,
2013-06-30 06:16:00,61.8,60.1,29.74,NW,325,2.0,7.0,94,0.01,,---,0.28,VWS V14.01,2013-06-30 10:16:00,
2013-06-30 06:17:00,61.8,60.1,29.74,WNW,300,4.0,7.0,94,0.01,,---,0.28,VWS V14.01,2013-06-30 10:17:00,
2013-06-30 06:18:00,61.8,59.8,29.74,NNW,338,2.0,7.0,93,0.01,,---,0.28,VWS V14.01,2013-06-30 10:18:00,
2013-06-30 06:19:00,61.9,59.9,29.74,NW,316,2.0,7.0,93,0.01,,---,0.28,VWS V14.01,2013-06-30 10:19:00,
2013-06-30 06:20:00,61.9,59.9,29.74,NW,323,2.0,7.0,93,0.01,,---,0.28,VWS V14.01,2013-06-30 10:20:00,
2013-06-30 06:21:00,61.9,60.2,29.74,NNW,335,2.0,7.0,94,0.01,,---,0.28,VWS V14.01,2013-06-30 10:21:00,
2013-06-30 06:22:00,61.9,59.9,29.74,NNW,339,4.0,7.0,93,0.01,,---,0.28,VWS V14.01,2013-06-30 10:22:00,
2013-06-30 06:23:00,61.9,59.9,29.74,NW,326,2.0,7.0,93,0.01,,---,0.28,VWS V14.01,2013-06-30 10:23:00,
2013-06-30 06:24:00,62.0,60.0,29.74,ENE,68,3.0,7.0,93,0.01,,---,0.28,VWS V14.01,2013-06-30 10:24:00,
2013-06-30 06:25:00,62.0,60.0,29.74,NNW,343,2.0,7.0,93,0.01,,---,0.28,VWS V14.01,2013-06-30 10:25:00,
2013-06-30 06:26:00,62.0,60.0,29.74,North,349,4.0,7.0,93,0.01,,---,0.28,VWS V14.01,2013-06-30 10:26:00,
2013-06-30 06:27:00,62.0,60.0,29.74,North,9,2.0,7.0,93,0.01,,---,0.28,VWS V14.01,2013-06-30 10:27:00,
2013-06-30 06:28:00,62.0,60.0,29.74,North,6,3.0,7.0,93,0.01,,---,0.28,VWS V14.01,2013-06-30 10:28:00,
2013-06-30 06:29:00,62.0,60.0,29.74,North,5,1.0,7.0,93,0.01,,---,0.28,VWS V14.01,2013-06-30 10:29:00,
2013-06-30 06:30:00,62.0,60.0,29.74,NNW,330,4.0,7.0,93,0.01,,---,0.28,VWS V14.01,2013-06-30 10:30:00,
2013-06-30 06:31:00,62.0,60.0,29.74,North,9,4.0,4.0,93,0.01,,---,0.28,VWS V14.01,2013-06-30 10:31:00,
2013-06-30 06:32:00,62.0,60.0,29.74,NNW,348,4.0,5.0,93,0.01,,---,0.28,VWS V14.01,2013-06-30 10:32:00,
2013-06-30 06:33:00,62.0,60.0,29.74,NW,321,4.0,6.0,93,0.01,,---,0.28,VWS V14.01,2013-06-30 10:33:00,
2013-06-30 06:34:00,62.0,60.0,29.74,NNE,18,5.0,7.0,93,0.01,,---,0.28,VWS V14.01,2013-06-30 10:34:00,
2013-06-30 06:35:00,62.0,60.0,29.74,NW,316,3.0,10.0,93,0.01,,---,0.28,VWS V14.01,2013-06-30 10:35:00,
2013-06-30 06:36:00,62.0,60.0,29.74,NW,325,3.0,10.0,93,0.01,,---,0.28,VWS V14.01,2013-06-30 10:36:00,
2013-06-30 06:37:00,62.1,60.1,29.74,NNW,327,3.0,10.0,93,0.01,,---,0.28,VWS V14.01,2013-06-30 10:37:00,
2013-06-30 06:38:00,62.1,60.1,29.74,NNW,331,2.0,10.0,93,0.01,,---,0.28,VWS V14.01,2013-06-30 10:38:00,
2013-06-30 06:39:00,62.1,60.1,29.74,NW,304,1.0,10.0,93,0.01,,---,0.28,VWS V14.01,2013-06-30 10:39:00,
2013-06-30 06:40:00,62.1,60.1,29.75,NNE,14,5.0,10.0,93,0.01,,---,0.28,VWS V14.01,2013-06-30 10:40:00,
2013-06-30 06:41:00,62.1,60.1,29.75,North,8,6.0,10.0,93,0.01,,---,0.28,VWS V14.01,2013-06-30 10:41:00,
2013-06-30 06:42:00,62.1,60.1,29.75,NNE,20,3.0,10.0,93,0.01,,---,0.28,VWS V14.01,2013-06-30 10:42:00,
2013-06-30 06:43:00,62.1,60.1,29.75,NW,321,3.0,10.0,93,0.01,,---,0.28,VWS V14.01,2013-06-30 10:43:00,
2013-06-30 06:44:00,62.1,60.1,29.75,NNW,348,6.0,10.0,93,0.01,,---,0.28,VWS V14.01,2013-06-30 10:44:00,
2013-06-30 06:45:00,62.1,60.1,29.75,North,352,4.0,10.0,93,0.01,,---,0.28,VWS V14.01,2013-06-30 10:45:00,
2013-06-30 06:46:00,62.1,60.1,29.75,North,9,2.0,10.0,93,0.01,,---,0.28,VWS V14.01,2013-06-30 10:46:00,
2013-06-30 06:47:00,62.1,60.1,29.75,NW,318,3.0,10.0,93,0.01,,---,0.28,VWS V14.01,2013-06-30 10:47:00,
2013-06-30 06:48:00,62.1,60.1,29.75,NNW,333,4.0,10.0,93,0.01,,---,0.28,VWS V14.01,2013-06-30 10:48:00,
2013-06-30 06:49:00,62.1,60.1,29.75,NW,304,1.0,10.0,93,0.01,,---,0.28,VWS V14.01,2013-06-30 10:49:00,
2013-06-30 06:50:00,62.1,60.1,29.75,NNE,20,4.0,10.0,93,0.01,,---,0.28,VWS V14.01,2013-06-30 10:50:00,
2013-06-30 06:51:00,62.1,60.1,29.75,NNW,346,6.0,10.0,93,0.01,,---,0.28,VWS V14.01,2013-06-30 10:51:00,
2013-06-30 06:52:00,62.1,60.1,29.75,North,350,2.0,10.0,93,0.01,,---,0.28,VWS V14.01,2013-06-30 10:52:00,
2013-06-30 06:53:00,62.1,60.1,29.75,North,9,3.0,10.0,93,0.01,,---,0.28,VWS V14.01,2013-06-30 10:53:00,
2013-06-30 06:54:00,62.1,60.1,29.75,NNW,335,3.0,10.0,93,0.01,,---,0.28,VWS V14.01,2013-06-30 10:54:00,
2013-06-30 06:55:00,62.1,60.1,29.75,NE,55,7.0,10.0,93,0.01,,---,0.28,VWS V14.01,2013-06-30 10:55:00,
2013-06-30 06:56:00,62.0,60.0,29.75,NNW,338,3.0,10.0,93,0.01,,---,0.28,VWS V14.01,2013-06-30 10:56:00,
2013-06-30 06:57:00,62.0,60.0,29.75,NW,305,2.0,10.0,93,0.01,,---,0.28,VWS V14.01,2013-06-30 10:57:00,
2013-06-30 06:58:00,62.0,60.0,29.75,NNW,340,5.0,11.0,93,0.01,,---,0.28,VWS V14.01,2013-06-30 10:58:00,
2013-06-30 06:59:00,62.0,60.0,29.75,NNW,338,5.0,11.0,93,0.01,,---,0.28,VWS V14.01,2013-06-30 10:59:00,
2013-06-30 07:00:00,62.0,60.0,29.75,NNE,27,2.0,11.0,93,0.01,,---,0.28,VWS V14.01,2013-06-30 11:00:00,
2013-06-30 07:01:00,62.0,60.0,29.75,NNW,328,5.0,6.0,93,0.00,,---,0.28,VWS V14.01,2013-06-30 11:01:00,
2013-06-30 07:02:00,62.0,60.0,29.75,NNW,338,4.0,6.0,93,0.00,,---,0.28,VWS V14.01,2013-06-30 11:02:00,
2013-06-30 07:03:00,61.9,59.9,29.75,NNW,328,3.0,6.0,93,0.00,,---,0.28,VWS V14.01,2013-06-30 11:03:00,
2013-06-30 07:04:00,61.9,59.9,29.75,NNE,27,5.0,7.0,93,0.00,,---,0.28,VWS V14.01,2013-06-30 11:04:00,
2013-06-30 07:05:00,61.9,59.9,29.75,NNW,328,2.0,7.0,93,0.00,,---,0.28,VWS V14.01,2013-06-30 11:05:00,
2013-06-30 07:06:00,61.9,59.9,29.75,NNW,332,4.0,7.0,93,0.00,,---,0.28,VWS V14.01,2013-06-30 11:06:00,
2013-06-30 07:07:00,61.9,59.9,29.75,NNW,333,3.0,7.0,93,0.00,,---,0.28,VWS V14.01,2013-06-30 11:07:00,
2013-06-30 07:08:00,61.9,59.9,29.75,North,354,2.0,7.0,93,0.00,,---,0.28,VWS V14.01,2013-06-30 11:08:00,
2013-06-30 07:09:00,61.9,59.9,29.75,NNW,328,3.0,7.0,93,0.00,,---,0.28,VWS V14.01,2013-06-30 11:09:00,
2013-06-30 07:10:00,61.9,59.9,29.75,NNW,330,3.0,8.0,93,0.00,,---,0.28,VWS V14.01,2013-06-30 11:10:00,
2013-06-30 07:11:00,61.9,59.9,29.75,NW,316,4.0,8.0,93,0.00,,---,0.28,VWS V14.01,2013-06-30 11:11:00,
2013-06-30 07:12:00,61.9,59.9,29.75,NNW,329,3.0,8.0,93,0.00,,---,0.28,VWS V14.01,2013-06-30 11:12:00,
2013-06-30 07:13:00,62.0,60.0,29.75,North,352,5.0,8.0,93,0.00,,---,0.28,VWS V14.01,2013-06-30 11:13:00,
2013-06-30 07:14:00,62.0,60.0,29.75,NE,46,3.0,8.0,93,0.00,,---,0.28,VWS V14.01,2013-06-30 11:14:00,
2013-06-30 07:15:00,62.0,60.0,29.75,NNW,330,4.0,8.0,93,0.00,,---,0.28,VWS V14.01,2013-06-30 11:15:00,
2013-06-30 07:16:00,62.0,60.0,29.75,WNW,302,4.0,8.0,93,0.00,,---,0.28,VWS V14.01,2013-06-30 11:16:00,
2013-06-30 07:17:00,62.0,60.0,29.75,NNE,20,5.0,8.0,93,0.00,,---,0.28,VWS V14.01,2013-06-30 11:17:00,
2013-06-30 07:18:00,62.1,60.1,29.75,NNW,342,6.0,8.0,93,0.00,,---,0.28,VWS V14.01,2013-06-30 11:18:00,
2013-06-30 07:19:00,62.1,59.8,29.75,North,359,3.0,8.0,92,0.00,,---,0.28,VWS V14.01,2013-06-30 11:19:00,
2013-06-30 07:20:00,62.1,60.1,29.75,North,354,2.0,8.0,93,0.00,,---,0.28,VWS V14.01,2013-06-30 11:20:00,
2013-06-30 07:21:00,62.2,60.2,29.75,NNE,23,3.0,8.0,93,0.00,,---,0.28,VWS V14.01,2013-06-30 11:21:00,
2013-06-30 07:22:00,62.2,60.2,29.75,NNW,340,2.0,8.0,93,0.00,,---,0.28,VWS V14.01,2013-06-30 11:22:00,
2013-06-30 07:23:00,62.3,60.2,29.75,NNW,339,4.0,8.0,93,0.00,,---,0.28,VWS V14.01,2013-06-30 11:23:00,
2013-06-30 07:24:00,62.3,60.2,29.75,NNE,15,3.0,8.0,93,0.00,,---,0.28,VWS V14.01,2013-06-30 11:24:00,
2013-06-30 07:25:00,62.3,60.2,29.75,North,360,6.0,8.0,93,0.00,,---,0.28,VWS V14.01,2013-06-30 11:25:00,
2013-06-30 07:26:00,62.4,60.3,29.75,North,353,4.0,8.0,93,0.00,,---,0.28,VWS V14.01,2013-06-30 11:26:00,
2013-06-30 07:27:00,62.4,60.0,29.75,NW,312,2.0,8.0,92,0.00,,---,0.28,VWS V14.01,2013-06-30 11:27:00,
2013-06-30 07:28:00,62.5,60.5,29.75,North,9,5.0,8.0,93,0.00,,---,0.28,VWS V14.01,2013-06-30 11:28:00,
2013-06-30 07:29:00,62.6,60.5,29.75,NNW,339,4.0,8.0,93,0.00,,---,0.28,VWS V14.01,2013-06-30 11:29:00,
2013-06-30 07:30:00,62.6,60.2,29.76,NNE,32,3.0,8.0,92,0.00,,---,0.28,VWS V14.01,2013-06-30 11:30:00,
2013-06-30 07:31:00,62.7,60.3,29.75,NW,307,2.0,3.0,92,0.00,,---,0.28,VWS V14.01,2013-06-30 11:31:00,
2013-06-30 07:32:00,62.8,60.8,29.75,NNW,329,3.0,4.0,93,0.00,,---,0.28,VWS V14.01,2013-06-30 11:32:00,
2013-06-30 07:33:00,62.9,60.5,29.75,NW,321,2.0,5.0,92,0.00,,---,0.28,VWS V14.01,2013-06-30 11:33:00,
2013-06-30 07:34:00,63.0,60.6,29.76,North,7,2.0,5.0,92,0.00,,---,0.28,VWS V14.01,2013-06-30 11:34:00,
2013-06-30 07:35:00,63.0,60.6,29.75,NNW,335,4.0,5.0,92,0.00,,---,0.28,VWS V14.01,2013-06-30 11:35:00,
2013-06-30 07:36:00,63.2,60.8,29.76,North,4,2.0,5.0,92,0.00,,---,0.28,VWS V14.01,2013-06-30 11:36:00,
2013-06-30 07:37:00,63.2,60.8,29.76,North,356,2.0,5.0,92,0.00,,---,0.28,VWS V14.01,2013-06-30 11:37:00,
2013-06-30 07:38:00,63.3,60.9,29.76,NW,313,3.0,6.0,92,0.00,,---,0.28,VWS V14.01,2013-06-30 11:38:00,
2013-06-30 07:39:00,63.4,60.7,29.76,East,92,4.0,6.0,91,0.00,,---,0.28,VWS V14.01,2013-06-30 11:39:00,
2013-06-30 07:40:00,63.5,61.1,29.76,ESE,103,0.0,6.0,92,0.00,,---,0.28,VWS V14.01,2013-06-30 11:40:00,
2013-06-30 07:41:00,63.5,60.8,29.76,SE,132,0.0,6.0,91,0.00,,---,0.28,VWS V14.01,2013-06-30 11:41:00,
2013-06-30 07:42:00,63.6,60.9,29.76,NW,304,4.0,6.0,91,0.00,,---,0.28,VWS V14.01,2013-06-30 11:42:00,
2013-06-30 07:43:00,63.7,61.0,29.76,NW,325,3.0,6.0,91,0.00,,---,0.28,VWS V14.01,2013-06-30 11:43:00,
2013-06-30 07:44:00,63.7,61.0,29.76,NW,307,2.0,6.0,91,0.00,,---,0.28,VWS V14.01,2013-06-30 11:44:00,
2013-06-30 07:45:00,63.8,61.1,29.76,NNW,339,3.0,6.0,91,0.00,,---,0.28,VWS V14.01,2013-06-30 11:45:00,
2013-06-30 07:46:00,63.8,61.1,29.76,NE,37,3.0,6.0,91,0.00,,---,0.28,VWS V14.01,2013-06-30 11:46:00,
2013-06-30 07:47:00,63.8,60.8,29.76,North,1,4.0,6.0,90,0.00,,---,0.28,VWS V14.01,2013-06-30 11:47:00,
2013-06-30 07:48:00,63.8,60.8,29.76,NNE,23,1.0,6.0,90,0.00,,---,0.28,VWS V14.01,2013-06-30 11:48:00,
2013-06-30 07:49:00,63.8,60.8,29.76,NNE,18,3.0,7.0,90,0.00,,---,0.28,VWS V14.01,2013-06-30 11:49:00,
2013-06-30 07:50:00,63.8,60.8,29.76,NNW,348,5.0,7.0,90,0.00,,---,0.28,VWS V14.01,2013-06-30 11:50:00,
2013-06-30 07:51:00,63.8,60.8,29.76,NW,318,3.0,7.0,90,0.00,,---,0.28,VWS V14.01,2013-06-30 11:51:00,
2013-06-30 07:52:00,63.9,60.9,29.76,NNW,330,2.0,7.0,90,0.00,,---,0.28,VWS V14.01,2013-06-30 11:52:00,
2013-06-30 07:53:00,63.9,60.9,29.76,NNW,331,4.0,7.0,90,0.00,,---,0.28,VWS V14.01,2013-06-30 11:53:00,
2013-06-30 07:54:00,63.9,60.9,29.76,North,11,4.0,7.0,90,0.00,,---,0.28,VWS V14.01,2013-06-30 11:54:00,
2013-06-30 07:55:00,63.9,60.9,29.76,NNE,12,4.0,7.0,90,0.00,,---,0.28,VWS V14.01,2013-06-30 11:55:00,
2013-06-30 07:56:00,63.9,60.9,29.76,NNE,27,2.0,7.0,90,0.00,,---,0.28,VWS V14.01,2013-06-30 11:56:00,
2013-06-30 07:57:00,63.9,60.9,29.76,NW,326,3.0,7.0,90,0.00,,---,0.28,VWS V14.01,2013-06-30 11:57:00,
2013-06-30 07:58:00,64.0,61.0,29.76,North,358,4.0,7.0,90,0.00,,---,0.28,VWS V14.01,2013-06-30 11:58:00,
2013-06-30 07:59:00,64.0,61.0,29.76,NE,36,1.0,7.0,90,0.00,,---,0.28,VWS V14.01,2013-06-30 11:59:00,
2013-06-30 08:00:00,64.1,60.8,29.76,North,358,3.0,7.0,89,0.00,,---,0.28,VWS V14.01,2013-06-30 12:00:00,
2013-06-30 08:01:00,64.1,60.8,29.76,ENE,67,3.0,5.0,89,0.00,,---,0.28,VWS V14.01,2013-06-30 12:01:00,
2013-06-30 08:02:00,64.2,61.2,29.76,North,4,4.0,5.0,90,0.00,,---,0.28,VWS V14.01,2013-06-30 12:02:00,
2013-06-30 08:03:00,64.3,61.0,29.77,SSW,208,2.0,5.0,89,0.00,,---,0.28,VWS V14.01,2013-06-30 12:03:00,
2013-06-30 08:04:00,64.3,61.0,29.77,NNE,22,4.0,5.0,89,0.00,,---,0.28,VWS V14.01,2013-06-30 12:04:00,
2013-06-30 08:05:00,64.4,61.1,29.77,NNW,339,3.0,5.0,89,0.00,,---,0.28,VWS V14.01,2013-06-30 12:05:00,
2013-06-30 08:06:00,64.5,61.2,29.77,NW,304,2.0,5.0,89,0.00,,---,0.28,VWS V14.01,2013-06-30 12:06:00,
2013-06-30 08:07:00,64.5,61.2,29.77,NNW,333,6.0,7.0,89,0.00,,---,0.28,VWS V14.01,2013-06-30 12:07:00,
2013-06-30 08:08:00,64.5,61.2,29.77,NE,49,2.0,7.0,89,0.00,,---,0.28,VWS V14.01,2013-06-30 12:08:00,
2013-06-30 08:09:00,64.6,61.3,29.77,NE,46,2.0,7.0,89,0.00,,---,0.28,VWS V14.01,2013-06-30 12:09:00,
2013-06-30 08:10:00,64.6,61.3,29.77,NW,318,2.0,7.0,89,0.00,,---,0.28,VWS V14.01,2013-06-30 12:10:00,
2013-06-30 08:11:00,64.7,61.4,29.77,NNE,15,5.0,9.0,89,0.00,,---,0.28,VWS V14.01,2013-06-30 12:11:00,
2013-06-30 08:12:00,64.6,61.0,29.77,NNW,331,1.0,9.0,88,0.00,,---,0.28,VWS V14.01,2013-06-30 12:12:00,
2013-06-30 08:13:00,64.7,61.1,29.77,NW,318,4.0,9.0,88,0.00,,---,0.28,VWS V14.01,2013-06-30 12:13:00,
2013-06-30 08:14:00,64.7,61.1,29.77,NNW,335,3.0,9.0,88,0.00,,---,0.28,VWS V14.01,2013-06-30 12:14:00,
2013-06-30 08:15:00,64.7,61.1,29.77,NW,313,2.0,9.0,88,0.00,,---,0.28,VWS V14.01,2013-06-30 12:15:00,
2013-06-30 08:16:00,64.7,61.1,29.77,East,84,6.0,9.0,88,0.00,,---,0.28,VWS V14.01,2013-06-30 12:16:00,
2013-06-30 08:17:00,64.8,61.2,29.77,NW,316,4.0,9.0,88,0.00,,---,0.28,VWS V14.01,2013-06-30 12:17:00,
2013-06-30 08:18:00,64.8,61.2,29.77,NNW,331,5.0,9.0,88,0.00,,---,0.28,VWS V14.01,2013-06-30 12:18:00,
2013-06-30 08:19:00,64.9,61.3,29.77,NNW,345,2.0,9.0,88,0.00,,---,0.28,VWS V14.01,2013-06-30 12:19:00,
2013-06-30 08:20:00,64.9,61.6,29.77,NNW,343,4.0,9.0,89,0.00,,---,0.28,VWS V14.01,2013-06-30 12:20:00,
2013-06-30 08:21:00,65.0,61.4,29.77,NNW,335,4.0,9.0,88,0.00,,---,0.28,VWS V14.01,2013-06-30 12:21:00,
2013-06-30 08:22:00,65.0,61.4,29.77,NNW,335,3.0,9.0,88,0.00,,---,0.28,VWS V14.01,2013-06-30 12:22:00,
2013-06-30 08:23:00,65.0,61.4,29.77,NE,49,1.0,9.0,88,0.00,,---,0.28,VWS V14.01,2013-06-30 12:23:00,
2013-06-30 08:24:00,65.1,61.5,29.77,NE,49,3.0,9.0,88,0.00,,---,0.28,VWS V14.01,2013-06-30 12:24:00,
2013-06-30 08:25:00,65.1,61.5,29.77,North,354,4.0,9.0,88,0.00,,---,0.28,VWS V14.01,2013-06-30 12:25:00,
2013-06-30 08:26:00,65.2,61.2,29.77,NNW,339,2.0,9.0,87,0.00,,---,0.28,VWS V14.01,2013-06-30 12:26:00,
2013-06-30 08:27:00,65.2,61.2,29.77,NNW,335,2.0,9.0,87,0.00,,---,0.28,VWS V14.01,2013-06-30 12:27:00,
2013-06-30 08:28:00,65.3,61.7,29.77,NNE,13,3.0,9.0,88,0.00,,---,0.28,VWS V14.01,2013-06-30 12:28:00,
2013-06-30 08:29:00,65.4,61.4,29.77,NNE,32,7.0,9.0,87,0.00,,---,0.28,VWS V14.01,2013-06-30 12:29:00,
2013-06-30 08:30:00,65.5,61.5,29.77,NNE,23,3.0,9.0,87,0.00,,---,0.28,VWS V14.01,2013-06-30 12:30:00,
2013-06-30 08:31:00,65.6,61.6,29.77,NNE,20,4.0,5.0,87,0.00,,---,0.28,VWS V14.01,2013-06-30 12:31:00,
2013-06-30 08:32:00,65.6,61.3,29.77,NNE,28,3.0,5.0,86,0.00,,---,0.28,VWS V14.01,2013-06-30 12:32:00,
2013-06-30 08:33:00,65.7,61.4,29.77,ENE,61,1.0,5.0,86,0.00,,---,0.28,VWS V14.01,2013-06-30 12:33:00,
2013-06-30 08:34:00,65.8,61.5,29.77,NW,304,3.0,5.0,86,0.00,,---,0.28,VWS V14.01,2013-06-30 12:34:00,
2013-06-30 08:35:00,65.8,61.2,29.77,NNW,337,2.0,5.0,85,0.00,,---,0.28,VWS V14.01,2013-06-30 12:35:00,
2013-06-30 08:36:00,65.9,61.3,29.77,North,4,3.0,5.0,85,0.00,,---,0.28,VWS V14.01,2013-06-30 12:36:00,
2013-06-30 08:37:00,65.9,61.3,29.77,NE,43,3.0,5.0,85,0.00,,---,0.28,VWS V14.01,2013-06-30 12:37:00,
2013-06-30 08:38:00,65.9,60.9,29.77,NNW,330,2.0,6.0,84,0.00,,---,0.28,VWS V14.01,2013-06-30 12:38:00,
2013-06-30 08:39:00,65.9,61.3,29.77,NW,323,3.0,6.0,85,0.00,,---,0.28,VWS V14.01,2013-06-30 12:39:00,
2013-06-30 08:40:00,66.0,61.4,29.77,North,356,8.0,8.0,85,0.00,,---,0.28,VWS V14.01,2013-06-30 12:40:00,
2013-06-30 08:41:00,66.0,61.0,29.78,NNE,19,3.0,8.0,84,0.00,,---,0.28,VWS V14.01,2013-06-30 12:41:00,
2013-06-30 08:42:00,66.0,61.0,29.78,NW,309,3.0,8.0,84,0.00,,---,0.28,VWS V14.01,2013-06-30 12:42:00,
2013-06-30 08:43:00,66.0,61.0,29.78,NE,50,8.0,8.0,84,0.00,,---,0.28,VWS V14.01,2013-06-30 12:43:00,
2013-06-30 08:44:00,66.1,61.1,29.78,NNE,15,2.0,8.0,84,0.00,,---,0.28,VWS V14.01,2013-06-30 12:44:00,
2013-06-30 08:45:00,66.1,61.1,29.78,NNW,343,1.0,8.0,84,0.00,,---,0.28,VWS V14.01,2013-06-30 12:45:00,
2013-06-30 08:46:00,66.2,61.2,29.78,NNE,23,2.0,8.0,84,0.00,,---,0.28,VWS V14.01,2013-06-30 12:46:00,
2013-06-30 08:47:00,66.3,61.3,29.78,NNW,340,6.0,9.0,84,0.00,,---,0.28,VWS V14.01,2013-06-30 12:47:00,
2013-06-30 08:48:00,66.3,61.7,29.77,NNE,26,3.0,9.0,85,0.00,,---,0.28,VWS V14.01,2013-06-30 12:48:00,
2013-06-30 08:49:00,66.4,61.1,29.77,NW,316,2.0,9.0,83,0.00,,---,0.28,VWS V14.01,2013-06-30 12:49:00,
2013-06-30 08:50:00,66.4,61.1,29.78,NNE,14,2.0,9.0,83,0.00,,---,0.28,VWS V14.01,2013-06-30 12:50:00,
2013-06-30 08:51:00,66.5,61.2,29.78,NNW,333,2.0,9.0,83,0.00,,---,0.28,VWS V14.01,2013-06-30 12:51:00,
2013-06-30 08:52:00,66.5,61.5,29.78,NW,311,3.0,9.0,84,0.00,,---,0.28,VWS V14.01,2013-06-30 12:52:00,
2013-06-30 08:53:00,66.7,61.7,29.78,NW,317,4.0,9.0,84,0.00,,---,0.28,VWS V14.01,2013-06-30 12:53:00,
2013-06-30 08:54:00,66.7,61.4,29.78,NW,319,3.0,9.0,83,0.00,,---,0.28,VWS V14.01,2013-06-30 12:54:00,
2013-06-30 08:55:00,66.8,61.5,29.78,NNW,345,4.0,9.0,83,0.00,,---,0.28,VWS V14.01,2013-06-30 12:55:00,
2013-06-30 08:56:00,66.8,61.5,29.78,North,350,7.0,9.0,83,0.00,,---,0.28,VWS V14.01,2013-06-30 12:56:00,
2013-06-30 08:57:00,66.9,61.2,29.78,NE,39,5.0,9.0,82,0.00,,---,0.28,VWS V14.01,2013-06-30 12:57:00,
2013-06-30 08:58:00,67.0,61.3,29.78,NW,315,5.0,9.0,82,0.00,,---,0.28,VWS V14.01,2013-06-30 12:58:00,
2013-06-30 08:59:00,67.1,61.8,29.78,North,350,3.0,9.0,83,0.00,,---,0.28,VWS V14.01,2013-06-30 12:59:00,
2013-06-30 09:00:00,67.2,61.5,29.78,NW,309,2.0,9.0,82,0.00,,---,0.28,VWS V14.01,2013-06-30 13:00:00,
2013-06-30 09:01:00,67.3,61.6,29.78,NNW,336,5.0,7.0,82,0.00,,---,0.28,VWS V14.01,2013-06-30 13:01:00,
2013-06-30 09:02:00,67.4,61.7,29.78,NE,44,4.0,7.0,82,0.00,,---,0.28,VWS V14.01,2013-06-30 13:02:00,
2013-06-30 09:03:00,67.5,61.5,29.78,NW,326,7.0,9.0,81,0.00,,---,0.28,VWS V14.01,2013-06-30 13:03:00,
2013-06-30 09:04:00,67.6,61.6,29.78,NE,49,1.0,9.0,81,0.00,,---,0.28,VWS V14.01,2013-06-30 13:04:00,
2013-06-30 09:05:00,67.7,61.0,29.78,North,354,8.0,9.0,79,0.00,,---,0.28,VWS V14.01,2013-06-30 13:05:00,
2013-06-30 09:06:00,67.7,61.0,29.78,NNE,23,2.0,10.0,79,0.00,,---,0.28,VWS V14.01,2013-06-30 13:06:00,
2013-06-30 09:07:00,67.8,61.1,29.78,East,96,6.0,10.0,79,0.00,,---,0.28,VWS V14.01,2013-06-30 13:07:00,
2013-06-30 09:08:00,67.8,61.1,29.78,NNE,12,3.0,10.0,79,0.00,,---,0.28,VWS V14.01,2013-06-30 13:08:00,
2013-06-30 09:09:00,67.8,61.4,29.78,North,352,1.0,10.0,80,0.00,,---,0.28,VWS V14.01,2013-06-30 13:09:00,
2013-06-30 09:10:00,67.8,61.4,29.78,North,356,2.0,10.0,80,0.00,,---,0.28,VWS V14.01,2013-06-30 13:10:00,
2013-06-30 09:11:00,67.9,61.5,29.78,NW,321,1.0,10.0,80,0.00,,---,0.28,VWS V14.01,2013-06-30 13:11:00,
2013-06-30 09:12:00,67.9,61.5,29.78,NNE,29,6.0,10.0,80,0.00,,---,0.28,VWS V14.01,2013-06-30 13:12:00,
2013-06-30 09:13:00,67.9,60.4,29.78,East,92,4.0,10.0,77,0.00,,---,0.28,VWS V14.01,2013-06-30 13:13:00,
2013-06-30 09:14:00,67.8,60.7,29.78,North,7,2.0,10.0,78,0.00,,---,0.28,VWS V14.01,2013-06-30 13:14:00,
2013-06-30 09:15:00,67.8,60.7,29.78,North,6,1.0,10.0,78,0.00,,---,0.28,VWS V14.01,2013-06-30 13:15:00,
2013-06-30 09:16:00,67.9,61.9,29.78,ESE,102,2.0,10.0,81,0.00,,---,0.28,VWS V14.01,2013-06-30 13:16:00,
2013-06-30 09:17:00,67.9,61.2,29.78,NNE,32,1.0,10.0,79,0.00,,---,0.28,VWS V14.01,2013-06-30 13:17:00,
2013-06-30 09:18:00,67.9,61.2,29.78,ENE,71,1.0,10.0,79,0.00,,---,0.28,VWS V14.01,2013-06-30 13:18:00,
2013-06-30 09:19:00,67.9,61.5,29.79,NE,37,3.0,10.0,80,0.00,,---,0.28,VWS V14.01,2013-06-30 13:19:00,
2013-06-30 09:20:00,67.9,61.9,29.79,ENE,63,0.0,10.0,81,0.00,,---,0.28,VWS V14.01,2013-06-30 13:20:00,
2013-06-30 09:21:00,68.0,61.2,29.79,ENE,65,1.0,10.0,79,0.00,,---,0.28,VWS V14.01,2013-06-30 13:21:00,
2013-06-30 09:22:00,68.0,62.0,29.79,SE,126,0.0,10.0,81,0.00,,---,0.28,VWS V14.01,2013-06-30 13:22:00,
2013-06-30 09:23:00,68.0,61.6,29.79,NNW,329,3.0,10.0,80,0.00,,---,0.28,VWS V14.01,2013-06-30 13:23:00,
2013-06-30 09:24:00,68.0,60.9,29.79,ENE,59,3.0,10.0,78,0.00,,---,0.28,VWS V14.01,2013-06-30 13:24:00,
2013-06-30 09:25:00,67.9,60.8,29.79,NE,37,3.0,10.0,78,0.00,,---,0.28,VWS V14.01,2013-06-30 13:25:00,
2013-06-30 09:26:00,67.8,60.7,29.79,ESE,103,2.0,10.0,78,0.00,,---,0.28,VWS V14.01,2013-06-30 13:26:00,
2013-06-30 09:27:00,67.8,60.7,29.79,North,5,1.0,10.0,78,0.00,,---,0.28,VWS V14.01,2013-06-30 13:27:00,
2013-06-30 09:28:00,67.7,61.0,29.79,NW,305,1.0,10.0,79,0.00,,---,0.28,VWS V14.01,2013-06-30 13:28:00,
2013-06-30 09:29:00,67.7,61.0,29.79,NW,325,1.0,10.0,79,0.00,,---,0.28,VWS V14.01,2013-06-30 13:29:00,
2013-06-30 09:30:00,67.7,61.0,29.79,North,352,0.0,10.0,79,0.00,,---,0.28,VWS V14.01,2013-06-30 13:30:00,
2013-06-30 09:31:00,67.7,61.0,29.79,ENE,69,2.0,9.0,79,0.00,,---,0.28,VWS V14.01,2013-06-30 13:31:00,
2013-06-30 09:32:00,67.7,60.6,29.79,SE,129,1.0,9.0,78,0.00,,---,0.28,VWS V14.01,2013-06-30 13:32:00,
2013-06-30 09:33:00,67.6,60.9,29.79,North,11,2.0,9.0,79,0.00,,---,0.28,VWS V14.01,2013-06-30 13:33:00,
2013-06-30 09:34:00,67.6,60.5,29.80,North,4,6.0,9.0,78,0.00,,---,0.28,VWS V14.01,2013-06-30 13:34:00,
2013-06-30 09:35:00,67.6,60.5,29.80,SSE,150,2.0,9.0,78,0.00,,---,0.28,VWS V14.01,2013-06-30 13:35:00,
2013-06-30 09:36:00,67.6,60.5,29.80,SE,139,1.0,9.0,78,0.00,,---,0.28,VWS V14.01,2013-06-30 13:36:00,
2013-06-30 09:37:00,67.7,61.0,29.80,NNE,12,1.0,9.0,79,0.00,,---,0.28,VWS V14.01,2013-06-30 13:37:00,
2013-06-30 09:38:00,67.7,61.3,29.80,North,356,1.0,9.0,80,0.00,,---,0.28,VWS V14.01,2013-06-30 13:38:00,
2013-06-30 09:39:00,67.7,60.6,29.80,ENE,76,1.0,9.0,78,0.00,,---,0.28,VWS V14.01,2013-06-30 13:39:00,
2013-06-30 09:40:00,67.7,60.6,29.80,North,6,5.0,9.0,78,0.00,,---,0.28,VWS V14.01,2013-06-30 13:40:00,
2013-06-30 09:41:00,67.7,60.6,29.80,NE,44,1.0,9.0,78,0.00,,---,0.28,VWS V14.01,2013-06-30 13:41:00,
2013-06-30 09:42:00,67.6,60.5,29.80,West,266,1.0,9.0,78,0.00,,---,0.28,VWS V14.01,2013-06-30 13:42:00,
2013-06-30 09:43:00,67.6,60.5,29.80,SW,232,1.0,9.0,78,0.00,,---,0.28,VWS V14.01,2013-06-30 13:43:00,
2013-06-30 09:44:00,67.7,61.0,29.80,NNW,335,1.0,9.0,79,0.00,,---,0.28,VWS V14.01,2013-06-30 13:44:00,
2013-06-30 09:45:00,67.6,60.5,29.80,NW,321,1.0,9.0,78,0.00,,---,0.28,VWS V14.01,2013-06-30 13:45:00,
2013-06-30 09:46:00,67.6,60.9,29.80,ENE,59,4.0,9.0,79,0.00,,---,0.28,VWS V14.01,2013-06-30 13:46:00,
2013-06-30 09:47:00,67.6,60.5,29.80,NE,41,3.0,9.0,78,0.00,,---,0.28,VWS V14.01,2013-06-30 13:47:00,
2013-06-30 09:48:00,67.5,60.4,29.80,South,172,2.0,9.0,78,0.00,,---,0.28,VWS V14.01,2013-06-30 13:48:00,
2013-06-30 09:49:00,67.5,60.4,29.80,WNW,287,3.0,9.0,78,0.00,,---,0.28,VWS V14.01,2013-06-30 13:49:00,
2013-06-30 09:50:00,67.5,60.8,29.80,ESE,105,4.0,9.0,79,0.00,,---,0.28,VWS V14.01,2013-06-30 13:50:00,
2013-06-30 09:51:00,67.4,60.3,29.80,SW,231,0.0,9.0,78,0.00,,---,0.28,VWS V14.01,2013-06-30 13:51:00,
2013-06-30 09:52:00,67.4,60.3,29.80,WSW,243,1.0,9.0,78,0.00,,---,0.28,VWS V14.01,2013-06-30 13:52:00,
2013-06-30 09:53:00,67.3,60.2,29.80,NE,39,0.0,9.0,78,0.00,,---,0.28,VWS V14.01,2013-06-30 13:53:00,
2013-06-30 09:54:00,67.3,60.2,29.80,NNE,20,0.0,9.0,78,0.00,,---,0.28,VWS V14.01,2013-06-30 13:54:00,
2013-06-30 09:55:00,67.3,60.2,29.80,SW,214,1.0,9.0,78,0.00,,---,0.28,VWS V14.01,2013-06-30 13:55:00,
2013-06-30 09:56:00,67.3,60.6,29.80,SSW,194,0.0,9.0,79,0.00,,---,0.28,VWS V14.01,2013-06-30 13:56:00,
2013-06-30 09:57:00,67.3,60.9,29.80,SSW,194,0.0,9.0,80,0.00,,---,0.28,VWS V14.01,2013-06-30 13:57:00,
2013-06-30 09:58:00,67.3,60.9,29.80,SSW,203,1.0,9.0,80,0.00,,---,0.28,VWS V14.01,2013-06-30 13:58:00,
2013-06-30 09:59:00,67.3,60.9,29.81,West,276,1.0,9.0,80,0.00,,---,0.28,VWS V14.01,2013-06-30 13:59:00,
2013-06-30 10:00:00,67.3,60.9,29.81,NNW,348,1.0,9.0,80,0.00,,---,0.28,VWS V14.01,2013-06-30 14:00:00,
2013-06-30 10:01:00,67.3,60.9,29.80,SE,131,3.0,3.0,80,0.00,,---,0.28,VWS V14.01,2013-06-30 14:01:00,
2013-06-30 10:02:00,67.3,60.9,29.80,ESE,121,0.0,3.0,80,0.00,,---,0.28,VWS V14.01,2013-06-30 14:02:00,
2013-06-30 10:03:00,67.3,60.6,29.80,North,359,1.0,3.0,79,0.00,,---,0.28,VWS V14.01,2013-06-30 14:03:00,
2013-06-30 10:04:00,67.3,60.9,29.81,North,359,0.0,3.0,80,0.00,,---,0.28,VWS V14.01,2013-06-30 14:04:00,
2013-06-30 10:05:00,67.3,61.3,29.80,North,359,0.0,3.0,81,0.00,,---,0.28,VWS V14.01,2013-06-30 14:05:00,
2013-06-30 10:06:00,67.3,60.9,29.81,North,356,1.0,3.0,80,0.00,,---,0.28,VWS V14.01,2013-06-30 14:06:00,
2013-06-30 10:07:00,67.3,61.3,29.80,WNW,294,2.0,3.0,81,0.00,,---,0.28,VWS V14.01,2013-06-30 14:07:00,
2013-06-30 10:08:00,67.4,61.0,29.80,NE,40,2.0,3.0,80,0.00,,---,0.28,VWS V14.01,2013-06-30 14:08:00,
2013-06-30 10:09:00,67.5,61.1,29.81,ENE,60,3.0,3.0,80,0.00,,---,0.28,VWS V14.01,2013-06-30 14:09:00,
2013-06-30 10:10:00,67.5,60.8,29.81,North,10,1.0,3.0,79,0.00,,---,0.28,VWS V14.01,2013-06-30 14:10:00,
2013-06-30 10:11:00,67.5,60.8,29.81,ENE,57,0.0,3.0,79,0.00,,---,0.28,VWS V14.01,2013-06-30 14:11:00,
2013-06-30 10:12:00,67.5,61.1,29.81,SE,134,0.0,3.0,80,0.00,,---,0.28,VWS V14.01,2013-06-30 14:12:00,
2013-06-30 10:13:00,67.6,61.2,29.81,SE,134,0.0,3.0,80,0.00,,---,0.28,VWS V14.01,2013-06-30 14:13:00,
2013-06-30 10:14:00,67.7,61.3,29.81,WSW,253,1.0,3.0,80,0.00,,---,0.28,VWS V14.01,2013-06-30 14:14:00,
2013-06-30 10:15:00,67.8,61.4,29.81,East,86,2.0,4.0,80,0.00,,---,0.28,VWS V14.01,2013-06-30 14:15:00,
2013-06-30 10:16:00,67.9,61.5,29.81,East,84,3.0,4.0,80,0.00,,---,0.28,VWS V14.01,2013-06-30 14:16:00,
2013-06-30 10:17:00,68.0,61.2,29.81,NNW,332,1.0,4.0,79,0.00,,---,0.28,VWS V14.01,2013-06-30 14:17:00,
2013-06-30 10:18:00,68.1,61.7,29.81,NW,313,1.0,4.0,80,0.00,,---,0.28,VWS V14.01,2013-06-30 14:18:00,
2013-06-30 10:19:00,68.2,61.5,29.81,SE,134,1.0,4.0,79,0.00,,---,0.28,VWS V14.01,2013-06-30 14:19:00,
2013-06-30 10:20:00,68.3,61.9,29.81,NW,304,0.0,4.0,80,0.00,,---,0.28,VWS V14.01,2013-06-30 14:20:00,
2013-06-30 10:21:00,68.4,62.0,29.81,NW,326,2.0,4.0,80,0.00,,---,0.28,VWS V14.01,2013-06-30 14:21:00,
2013-06-30 10:22:00,68.4,61.6,29.81,ESE,105,2.0,4.0,79,0.00,,---,0.28,VWS V14.01,2013-06-30 14:22:00,
2013-06-30 10:23:00,68.5,61.4,29.81,NE,43,2.0,4.0,78,0.00,,---,0.28,VWS V14.01,2013-06-30 14:23:00,
2013-06-30 10:24:00,68.5,61.7,29.81,East,98,2.0,4.0,79,0.00,,---,0.28,VWS V14.01,2013-06-30 14:24:00,
2013-06-30 10:25:00,68.5,61.7,29.81,East,98,1.0,4.0,79,0.00,,---,0.28,VWS V14.01,2013-06-30 14:25:00,
2013-06-30 10:26:00,68.6,62.2,29.81,ENE,67,4.0,4.0,80,0.00,,---,0.28,VWS V14.01,2013-06-30 14:26:00,
2013-06-30 10:27:00,68.7,61.6,29.81,NNW,335,1.0,6.0,78,0.00,,---,0.28,VWS V14.01,2013-06-30 14:27:00,
2013-06-30 10:28:00,68.7,61.6,29.81,East,88,1.0,6.0,78,0.00,,---,0.28,VWS V14.01,2013-06-30 14:28:00,
2013-06-30 10:29:00,68.8,61.7,29.81,ENE,72,4.0,6.0,78,0.00,,---,0.28,VWS V14.01,2013-06-30 14:29:00,
2013-06-30 10:30:00,68.8,61.3,29.81,NE,46,1.0,6.0,77,0.00,,---,0.28,VWS V14.01,2013-06-30 14:30:00,
2013-06-30 10:31:00,68.9,61.8,29.81,NE,55,2.0,3.0,78,0.00,,---,0.28,VWS V14.01,2013-06-30 14:31:00,
2013-06-30 10:32:00,69.0,61.5,29.81,WNW,288,0.0,3.0,77,0.00,,---,0.28,VWS V14.01,2013-06-30 14:32:00,
2013-06-30 10:33:00,69.0,61.9,29.81,NE,54,3.0,6.0,78,0.00,,---,0.28,VWS V14.01,2013-06-30 14:33:00,
2013-06-30 10:34:00,69.1,61.6,29.81,North,5,1.0,6.0,77,0.00,,---,0.28,VWS V14.01,2013-06-30 14:34:00,
2013-06-30 10:35:00,69.2,61.7,29.81,North,354,2.0,6.0,77,0.00,,---,0.28,VWS V14.01,2013-06-30 14:35:00,
2013-06-30 10:36:00,69.3,62.2,29.81,SE,138,2.0,6.0,78,0.00,,---,0.28,VWS V14.01,2013-06-30 14:36:00,
2013-06-30 10:37:00,69.3,61.4,29.81,SE,125,2.0,6.0,76,0.00,,---,0.28,VWS V14.01,2013-06-30 14:37:00,
2013-06-30 10:38:00,69.3,61.4,29.81,NW,318,2.0,6.0,76,0.00,,---,0.28,VWS V14.01,2013-06-30 14:38:00,
2013-06-30 10:39:00,69.3,61.4,29.81,ENE,69,4.0,6.0,76,0.00,,---,0.28,VWS V14.01,2013-06-30 14:39:00,
2013-06-30 10:40:00,69.3,62.2,29.81,NNW,335,4.0,6.0,78,0.00,,---,0.28,VWS V14.01,2013-06-30 14:40:00,
2013-06-30 10:41:00,69.3,61.0,29.81,North,1,1.0,7.0,75,0.00,,---,0.28,VWS V14.01,2013-06-30 14:41:00,
2013-06-30 10:42:00,69.2,61.0,29.81,NW,316,2.0,7.0,75,0.00,,---,0.28,VWS V14.01,2013-06-30 14:42:00,
2013-06-30 10:43:00,69.1,60.8,29.81,NE,45,2.0,7.0,75,0.00,,---,0.28,VWS V14.01,2013-06-30 14:43:00,
2013-06-30 10:44:00,69.1,60.5,29.81,NW,306,3.0,8.0,74,0.00,,---,0.28,VWS V14.01,2013-06-30 14:44:00,
2013-06-30 10:45:00,69.0,60.4,29.81,NE,56,6.0,8.0,74,0.00,,---,0.28,VWS V14.01,2013-06-30 14:45:00,
2013-06-30 10:46:00,68.9,60.3,29.81,NW,319,2.0,8.0,74,0.00,,---,0.28,VWS V14.01,2013-06-30 14:46:00,
2013-06-30 10:47:00,68.9,60.7,29.81,East,98,3.0,8.0,75,0.00,,---,0.28,VWS V14.01,2013-06-30 14:47:00,
2013-06-30 10:48:00,68.8,60.6,29.81,SSE,161,1.0,8.0,75,0.00,,---,0.28,VWS V14.01,2013-06-30 14:48:00,
2013-06-30 10:49:00,68.7,60.5,29.81,NE,41,7.0,8.0,75,0.00,,---,0.28,VWS V14.01,2013-06-30 14:49:00,
2013-06-30 10:50:00,68.6,60.4,29.81,NNE,25,4.0,11.0,75,0.00,,---,0.28,VWS V14.01,2013-06-30 14:50:00,
2013-06-30 10:51:00,68.6,60.7,29.81,NW,318,3.0,11.0,76,0.00,,---,0.28,VWS V14.01,2013-06-30 14:51:00,
2013-06-30 10:52:00,68.5,60.3,29.81,NNE,30,3.0,11.0,75,0.00,,---,0.28,VWS V14.01,2013-06-30 14:52:00,
2013-06-30 10:53:00,68.5,60.6,29.81,NW,307,3.0,11.0,76,0.00,,---,0.28,VWS V14.01,2013-06-30 14:53:00,
2013-06-30 10:54:00,68.4,60.5,29.81,NNW,328,1.0,11.0,76,0.00,,---,0.28,VWS V14.01,2013-06-30 14:54:00,
2013-06-30 10:55:00,68.4,60.2,29.81,North,356,3.0,11.0,75,0.00,,---,0.28,VWS V14.01,2013-06-30 14:55:00,
2013-06-30 10:56:00,68.4,60.5,29.80,ENE,57,7.0,11.0,76,0.00,,---,0.28,VWS V14.01,2013-06-30 14:56:00,
2013-06-30 10:57:00,68.3,60.5,29.80,WNW,301,2.0,11.0,76,0.00,,---,0.28,VWS V14.01,2013-06-30 14:57:00,
2013-06-30 10:58:00,68.3,60.5,29.81,NNE,13,2.0,11.0,76,0.00,,---,0.28,VWS V14.01,2013-06-30 14:58:00,
2013-06-30 10:59:00,68.3,60.5,29.81,NE,46,2.0,11.0,76,0.00,,---,0.28,VWS V14.01,2013-06-30 14:59:00,
2013-06-30 11:00:00,68.3,60.8,29.81,NNW,335,5.0,11.0,77,0.00,,---,0.28,VWS V14.01,2013-06-30 15:00:00,
2013-06-30 11:01:00,68.3,60.5,29.81,ESE,118,1.0,7.0,76,0.00,,---,0.28,VWS V14.01,2013-06-30 15:01:00,
2013-06-30 11:02:00,68.3,60.5,29.81,NNW,344,7.0,7.0,76,0.00,,---,0.28,VWS V14.01,2013-06-30 15:02:00,
2013-06-30 11:03:00,68.3,60.5,29.81,North,4,3.0,7.0,76,0.00,,---,0.28,VWS V14.01,2013-06-30 15:03:00,
2013-06-30 11:04:00,68.3,60.5,29.81,NNE,29,3.0,7.0,76,0.00,,---,0.28,VWS V14.01,2013-06-30 15:04:00,
2013-06-30 11:05:00,68.2,60.3,29.81,NNE,23,1.0,7.0,76,0.00,,---,0.28,VWS V14.01,2013-06-30 15:05:00,
2013-06-30 11:06:00,68.2,60.3,29.81,ESE,117,2.0,7.0,76,0.00,,---,0.28,VWS V14.01,2013-06-30 15:06:00,
2013-06-30 11:07:00,68.3,60.8,29.81,SE,141,0.0,7.0,77,0.00,,---,0.28,VWS V14.01,2013-06-30 15:07:00,
2013-06-30 11:08:00,68.3,60.8,29.81,NE,43,1.0,7.0,77,0.00,,---,0.28,VWS V14.01,2013-06-30 15:08:00,
2013-06-30 11:09:00,68.4,60.9,29.81,NNW,343,2.0,7.0,77,0.00,,---,0.28,VWS V14.01,2013-06-30 15:09:00,
2013-06-30 11:10:00,68.4,60.9,29.81,North,354,2.0,7.0,77,0.00,,---,0.28,VWS V14.01,2013-06-30 15:10:00,
2013-06-30 11:11:00,68.4,60.9,29.81,North,359,5.0,7.0,77,0.00,,---,0.28,VWS V14.01,2013-06-30 15:11:00,
2013-06-30 11:12:00,68.5,61.0,29.81,North,8,2.0,7.0,77,0.00,,---,0.28,VWS V14.01,2013-06-30 15:12:00,
2013-06-30 11:13:00,68.4,60.9,29.81,NNE,26,1.0,7.0,77,0.00,,---,0.28,VWS V14.01,2013-06-30 15:13:00,
2013-06-30 11:14:00,68.5,60.6,29.81,NW,319,2.0,7.0,76,0.00,,---,0.28,VWS V14.01,2013-06-30 15:14:00,
2013-06-30 11:15:00,68.5,60.6,29.81,North,10,4.0,7.0,76,0.00,,---,0.28,VWS V14.01,2013-06-30 15:15:00,
2013-06-30 11:16:00,68.5,60.6,29.81,SE,129,4.0,7.0,76,0.00,,---,0.28,VWS V14.01,2013-06-30 15:16:00,
2013-06-30 11:17:00,68.4,60.5,29.81,NW,321,6.0,7.0,76,0.00,,---,0.28,VWS V14.01,2013-06-30 15:17:00,
2013-06-30 11:18:00,68.4,60.5,29.81,North,11,4.0,7.0,76,0.00,,---,0.28,VWS V14.01,2013-06-30 15:18:00,
2013-06-30 11:19:00,68.4,60.5,29.81,SSE,166,1.0,7.0,76,0.00,,---,0.28,VWS V14.01,2013-06-30 15:19:00,
2013-06-30 11:20:00,68.4,60.5,29.81,ENE,60,7.0,7.0,76,0.00,,---,0.28,VWS V14.01,2013-06-30 15:20:00,
2013-06-30 11:21:00,68.3,60.5,29.81,East,79,0.0,7.0,76,0.00,,---,0.28,VWS V14.01,2013-06-30 15:21:00,
2013-06-30 11:22:00,68.3,60.5,29.81,NNE,15,1.0,7.0,76,0.00,,---,0.28,VWS V14.01,2013-06-30 15:22:00,
2013-06-30 11:23:00,68.3,60.8,29.81,NNE,20,5.0,7.0,77,0.00,,---,0.28,VWS V14.01,2013-06-30 15:23:00,
2013-06-30 11:24:00,68.3,60.5,29.81,NNE,18,3.0,8.0,76,0.00,,---,0.28,VWS V14.01,2013-06-30 15:24:00,
2013-06-30 11:25:00,68.3,60.8,29.81,NE,51,2.0,8.0,77,0.00,,---,0.28,VWS V14.01,2013-06-30 15:25:00,
2013-06-30 11:26:00,68.2,60.7,29.81,NNW,338,1.0,8.0,77,0.00,,---,0.28,VWS V14.01,2013-06-30 15:26:00,
2013-06-30 11:27:00,68.2,60.7,29.81,NW,316,2.0,8.0,77,0.00,,---,0.28,VWS V14.01,2013-06-30 15:27:00,
2013-06-30 11:28:00,68.2,60.7,29.81,NNW,348,2.0,8.0,77,0.00,,---,0.28,VWS V14.01,2013-06-30 15:28:00,
2013-06-30 11:29:00,68.2,60.7,29.81,North,349,3.0,8.0,77,0.00,,---,0.28,VWS V14.01,2013-06-30 15:29:00,
2013-06-30 11:30:00,68.2,60.7,29.81,NNW,327,5.0,8.0,77,0.00,,---,0.28,VWS V14.01,2013-06-30 15:30:00,
2013-06-30 11:31:00,68.1,60.6,29.81,NNW,329,7.0,8.0,77,0.00,,---,0.28,VWS V14.01,2013-06-30 15:31:00,
2013-06-30 11:32:00,68.1,60.6,29.81,NNW,347,2.0,8.0,77,0.00,,---,0.28,VWS V14.01,2013-06-30 15:32:00,
2013-06-30 11:33:00,68.1,61.0,29.81,NNW,329,1.0,8.0,78,0.00,,---,0.28,VWS V14.01,2013-06-30 15:33:00,
2013-06-30 11:34:00,68.1,60.6,29.81,SSE,165,2.0,8.0,77,0.00,,---,0.28,VWS V14.01,2013-06-30 15:34:00,
2013-06-30 11:35:00,68.1,60.6,29.81,SE,127,3.0,11.0,77,0.00,,---,0.28,VWS V14.01,2013-06-30 15:35:00,
2013-06-30 11:36:00,68.1,60.6,29.81,ENE,64,3.0,11.0,77,0.00,,---,0.28,VWS V14.01,2013-06-30 15:36:00,
2013-06-30 11:37:00,68.1,60.3,29.81,ESE,120,1.0,11.0,76,0.00,,---,0.28,VWS V14.01,2013-06-30 15:37:00,
2013-06-30 11:38:00,68.1,60.6,29.81,SW,235,3.0,11.0,77,0.00,,---,0.28,VWS V14.01,2013-06-30 15:38:00,
2013-06-30 11:39:00,68.1,60.6,29.82,NNE,23,3.0,11.0,77,0.00,,---,0.28,VWS V14.01,2013-06-30 15:39:00,
2013-06-30 11:40:00,68.0,60.2,29.82,NW,316,4.0,11.0,76,0.00,,---,0.28,VWS V14.01,2013-06-30 15:40:00,
2013-06-30 11:41:00,68.0,60.2,29.81,NW,323,3.0,11.0,76,0.00,,---,0.28,VWS V14.01,2013-06-30 15:41:00,
2013-06-30 11:42:00,67.9,59.7,29.81,North,4,2.0,11.0,75,0.00,,---,0.28,VWS V14.01,2013-06-30 15:42:00,
2013-06-30 11:43:00,67.9,60.1,29.81,NNW,343,2.0,11.0,76,0.00,,---,0.28,VWS V14.01,2013-06-30 15:43:00,
2013-06-30 11:44:00,67.8,60.0,29.81,NNE,22,3.0,11.0,76,0.00,,---,0.28,VWS V14.01,2013-06-30 15:44:00,
2013-06-30 11:45:00,67.8,60.0,29.82,NNE,32,7.0,11.0,76,0.00,,---,0.28,VWS V14.01,2013-06-30 15:45:00,
2013-06-30 11:46:00,67.7,60.2,29.81,WNW,282,2.0,11.0,77,0.00,,---,0.28,VWS V14.01,2013-06-30 15:46:00,
2013-06-30 11:47:00,67.6,60.1,29.81,NNE,23,6.0,11.0,77,0.00,,---,0.28,VWS V14.01,2013-06-30 15:47:00,
2013-06-30 11:48:00,67.6,59.8,29.81,NNW,328,4.0,11.0,76,0.00,,---,0.28,VWS V14.01,2013-06-30 15:48:00,
2013-06-30 11:49:00,67.4,60.3,29.81,NNW,330,2.0,11.0,78,0.00,,---,0.28,VWS V14.01,2013-06-30 15:49:00,
2013-06-30 11:50:00,67.3,60.2,29.82,East,80,2.0,11.0,78,0.00,,---,0.28,VWS V14.01,2013-06-30 15:50:00,
2013-06-30 11:51:00,67.3,60.2,29.82,WSW,256,1.0,11.0,78,0.00,,---,0.28,VWS V14.01,2013-06-30 15:51:00,
2013-06-30 11:52:00,67.3,60.6,29.82,ESE,105,2.0,11.0,79,0.00,,---,0.28,VWS V14.01,2013-06-30 15:52:00,
2013-06-30 11:53:00,67.2,60.1,29.82,NNE,26,2.0,11.0,78,0.00,,---,0.28,VWS V14.01,2013-06-30 15:53:00,
2013-06-30 11:54:00,67.2,60.1,29.82,NNW,333,1.0,11.0,78,0.00,,---,0.28,VWS V14.01,2013-06-30 15:54:00,
2013-06-30 11:55:00,67.1,60.4,29.82,NE,51,2.0,11.0,79,0.00,,---,0.28,VWS V14.01,2013-06-30 15:55:00,
2013-06-30 11:56:00,67.1,60.7,29.81,ENE,72,2.0,11.0,80,0.00,,---,0.28,VWS V14.01,2013-06-30 15:56:00,
2013-06-30 11:57:00,67.1,60.7,29.82,NNW,332,4.0,11.0,80,0.00,,---,0.28,VWS V14.01,2013-06-30 15:57:00,
2013-06-30 11:58:00,67.1,60.7,29.81,NNE,32,3.0,11.0,80,0.00,,---,0.28,VWS V14.01,2013-06-30 15:58:00,
2013-06-30 11:59:00,67.1,60.7,29.81,NNW,338,2.0,11.0,80,0.00,,---,0.28,VWS V14.01,2013-06-30 15:59:00,
2013-06-30 12:00:00,67.1,60.4,29.82,NW,319,3.0,11.0,79,0.00,,---,0.28,VWS V14.01,2013-06-30 16:00:00,
2013-06-30 12:01:00,67.2,60.8,29.81,North,355,3.0,8.0,80,0.00,,---,0.28,VWS V14.01,2013-06-30 16:01:00,
2013-06-30 12:02:00,67.2,60.5,29.81,NW,309,3.0,8.0,79,0.00,,---,0.28,VWS V14.01,2013-06-30 16:02:00,
2013-06-30 12:03:00,67.3,60.6,29.81,NNW,331,3.0,11.0,79,0.00,,---,0.28,VWS V14.01,2013-06-30 16:03:00,
2013-06-30 12:04:00,67.3,60.6,29.81,NW,316,2.0,11.0,79,0.00,,---,0.28,VWS V14.01,2013-06-30 16:04:00,
2013-06-30 12:05:00,67.3,60.9,29.81,NNW,335,1.0,11.0,80,0.00,,---,0.28,VWS V14.01,2013-06-30 16:05:00,
2013-06-30 12:06:00,67.4,61.0,29.81,NNW,335,2.0,11.0,80,0.00,,---,0.28,VWS V14.01,2013-06-30 16:06:00,
2013-06-30 12:07:00,67.5,60.8,29.81,NNE,18,4.0,11.0,79,0.00,,---,0.28,VWS V14.01,2013-06-30 16:07:00,
2013-06-30 12:08:00,67.5,61.1,29.81,NW,309,5.0,11.0,80,0.00,,---,0.28,VWS V14.01,2013-06-30 16:08:00,
2013-06-30 12:09:00,67.6,61.2,29.82,NNW,338,4.0,11.0,80,0.00,,---,0.28,VWS V14.01,2013-06-30 16:09:00,
2013-06-30 12:10:00,67.7,61.7,29.81,North,9,2.0,11.0,81,0.00,,---,0.28,VWS V14.01,2013-06-30 16:10:00,
2013-06-30 12:11:00,67.7,61.3,29.82,NNW,331,2.0,11.0,80,0.00,,---,0.28,VWS V14.01,2013-06-30 16:11:00,
2013-06-30 12:12:00,67.8,61.4,29.82,NNW,340,2.0,11.0,80,0.00,,---,0.28,VWS V14.01,2013-06-30 16:12:00,
2013-06-30 12:13:00,67.9,61.9,29.82,NNE,24,3.0,11.0,81,0.00,,---,0.28,VWS V14.01,2013-06-30 16:13:00,
2013-06-30 12:14:00,67.9,61.5,29.82,NE,53,1.0,11.0,80,0.00,,---,0.28,VWS V14.01,2013-06-30 16:14:00,
2013-06-30 12:15:00,68.0,61.6,29.82,NW,309,3.0,11.0,80,0.00,,---,0.28,VWS V14.01,2013-06-30 16:15:00,
2013-06-30 12:16:00,68.1,61.7,29.82,NW,308,4.0,11.0,80,0.00,,---,0.28,VWS V14.01,2013-06-30 16:16:00,
2013-06-30 12:17:00,68.1,61.3,29.82,NNW,335,4.0,11.0,79,0.00,,---,0.28,VWS V14.01,2013-06-30 16:17:00,
2013-06-30 12:18:00,68.2,61.1,29.82,NNW,335,7.0,11.0,78,0.00,,---,0.28,VWS V14.01,2013-06-30 16:18:00,
2013-06-30 12:19:00,68.3,61.5,29.81,NW,316,5.0,11.0,79,0.00,,---,0.28,VWS V14.01,2013-06-30 16:19:00,
2013-06-30 12:20:00,68.3,61.2,29.81,NNW,340,4.0,11.0,78,0.00,,---,0.28,VWS V14.01,2013-06-30 16:20:00,
2013-06-30 12:21:00,68.3,61.2,29.82,NNW,328,5.0,11.0,78,0.00,,---,0.28,VWS V14.01,2013-06-30 16:21:00,
2013-06-30 12:22:00,68.4,61.3,29.82,SE,133,2.0,11.0,78,0.00,,---,0.28,VWS V14.01,2013-06-30 16:22:00,
2013-06-30 12:23:00,68.4,61.6,29.82,NNW,335,6.0,11.0,79,0.00,,---,0.28,VWS V14.01,2013-06-30 16:23:00,
2013-06-30 12:24:00,68.5,61.7,29.82,North,10,3.0,11.0,79,0.00,,---,0.28,VWS V14.01,2013-06-30 16:24:00,
2013-06-30 12:25:00,68.5,61.4,29.82,NNW,332,6.0,11.0,78,0.00,,---,0.28,VWS V14.01,2013-06-30 16:25:00,
2013-06-30 12:26:00,68.6,61.8,29.82,NE,37,3.0,11.0,79,0.00,,---,0.28,VWS V14.01,2013-06-30 16:26:00,
2013-06-30 12:27:00,68.6,62.2,29.82,West,269,2.0,11.0,80,0.00,,---,0.28,VWS V14.01,2013-06-30 16:27:00,
2013-06-30 12:28:00,68.6,61.5,29.82,NNE,33,9.0,11.0,78,0.00,,---,0.28,VWS V14.01,2013-06-30 16:28:00,
2013-06-30 12:29:00,68.6,61.1,29.82,NNW,339,4.0,11.0,77,0.00,,---,0.28,VWS V14.01,2013-06-30 16:29:00,
2013-06-30 12:30:00,68.6,61.1,29.82,NNW,331,3.0,11.0,77,0.00,,---,0.28,VWS V14.01,2013-06-30 16:30:00,
2013-06-30 12:31:00,68.6,61.1,29.82,WNW,294,4.0,8.0,77,0.00,,---,0.28,VWS V14.01,2013-06-30 16:31:00,
2013-06-30 12:32:00,68.6,60.7,29.82,SE,146,6.0,8.0,76,0.00,,---,0.28,VWS V14.01,2013-06-30 16:32:00,
2013-06-30 12:33:00,68.6,61.1,29.82,NW,304,3.0,8.0,77,0.00,,---,0.28,VWS V14.01,2013-06-30 16:33:00,
2013-06-30 12:34:00,68.6,61.1,29.82,ENE,65,5.0,8.0,77,0.00,,---,0.28,VWS V14.01,2013-06-30 16:34:00,
2013-06-30 12:35:00,68.6,60.7,29.82,North,354,2.0,8.0,76,0.00,,---,0.28,VWS V14.01,2013-06-30 16:35:00,
2013-06-30 12:36:00,68.6,60.7,29.82,NE,38,2.0,8.0,76,0.00,,---,0.28,VWS V14.01,2013-06-30 16:36:00,
2013-06-30 12:37:00,68.6,61.1,29.82,WNW,290,0.0,8.0,77,0.00,,---,0.28,VWS V14.01,2013-06-30 16:37:00,
2013-06-30 12:38:00,68.6,61.5,29.82,West,273,0.0,8.0,78,0.00,,---,0.28,VWS V14.01,2013-06-30 16:38:00,
2013-06-30 12:39:00,68.7,61.9,29.82,NNW,340,1.0,8.0,79,0.00,,---,0.28,VWS V14.01,2013-06-30 16:39:00,
2013-06-30 12:40:00,68.7,61.6,29.82,NNW,345,2.0,9.0,78,0.00,,---,0.28,VWS V14.01,2013-06-30 16:40:00,
2013-06-30 12:41:00,68.8,61.7,29.82,NNW,335,7.0,9.0,78,0.00,,---,0.28,VWS V14.01,2013-06-30 16:41:00,
2013-06-30 12:42:00,68.7,60.8,29.82,NNE,24,8.0,9.0,76,0.00,,---,0.28,VWS V14.01,2013-06-30 16:42:00,
2013-06-30 12:43:00,68.6,60.7,29.82,NW,310,4.0,9.0,76,0.00,,---,0.28,VWS V14.01,2013-06-30 16:43:00,
2013-06-30 12:44:00,68.6,60.7,29.82,NNE,30,5.0,9.0,76,0.00,,---,0.28,VWS V14.01,2013-06-30 16:44:00,
2013-06-30 12:45:00,68.5,60.6,29.82,NE,36,5.0,9.0,76,0.00,,---,0.28,VWS V14.01,2013-06-30 16:45:00,
2013-06-30 12:46:00,68.5,60.6,29.82,SE,138,1.0,9.0,76,0.00,,---,0.28,VWS V14.01,2013-06-30 16:46:00,
2013-06-30 12:47:00,68.4,60.9,29.82,NW,316,2.0,9.0,77,0.00,,---,0.28,VWS V14.01,2013-06-30 16:47:00,
2013-06-30 12:48:00,68.4,61.6,29.82,ENE,57,2.0,9.0,79,0.00,,---,0.28,VWS V14.01,2013-06-30 16:48:00,
2013-06-30 12:49:00,68.4,60.5,29.82,North,6,5.0,9.0,76,0.00,,---,0.28,VWS V14.01,2013-06-30 16:49:00,
2013-06-30 12:50:00,68.4,60.5,29.82,NW,317,5.0,9.0,76,0.00,,---,0.28,VWS V14.01,2013-06-30 16:50:00,
2013-06-30 12:51:00,68.3,60.5,29.82,East,89,1.0,9.0,76,0.00,,---,0.28,VWS V14.01,2013-06-30 16:51:00,
2013-06-30 12:52:00,68.3,60.5,29.82,North,358,4.0,9.0,76,0.00,,---,0.28,VWS V14.01,2013-06-30 16:52:00,
2013-06-30 12:53:00,68.3,60.8,29.82,ENE,67,3.0,9.0,77,0.00,,---,0.28,VWS V14.01,2013-06-30 16:53:00,
2013-06-30 12:54:00,68.3,60.8,29.83,NNE,22,4.0,9.0,77,0.00,,---,0.28,VWS V14.01,2013-06-30 16:54:00,
2013-06-30 12:55:00,68.3,61.2,29.83,WNW,284,3.0,9.0,78,0.00,,---,0.28,VWS V14.01,2013-06-30 16:55:00,
2013-06-30 12:56:00,68.2,60.7,29.82,SE,143,2.0,9.0,77,0.00,,---,0.28,VWS V14.01,2013-06-30 16:56:00,
2013-06-30 12:57:00,68.2,60.3,29.82,ENE,78,6.0,9.0,76,0.00,,---,0.28,VWS V14.01,2013-06-30 16:57:00,
2013-06-30 12:58:00,68.1,59.9,29.82,ENE,77,2.0,9.0,75,0.00,,---,0.28,VWS V14.01,2013-06-30 16:58:00,
2013-06-30 12:59:00,68.1,59.9,29.82,North,352,4.0,9.0,75,0.00,,---,0.28,VWS V14.01,2013-06-30 16:59:00,
2013-06-30 13:00:00,68.1,59.9,29.83,North,9,5.0,9.0,75,0.00,,---,0.28,VWS V14.01,2013-06-30 17:00:00,
2013-06-30 13:01:00,68.1,60.3,29.83,South,181,1.0,5.0,76,0.00,,---,0.28,VWS V14.01,2013-06-30 17:01:00,
2013-06-30 13:02:00,68.1,60.6,29.83,WNW,297,1.0,5.0,77,0.00,,---,0.28,VWS V14.01,2013-06-30 17:02:00,
2013-06-30 13:03:00,68.1,60.3,29.82,West,270,2.0,5.0,76,0.00,,---,0.28,VWS V14.01,2013-06-30 17:03:00,
2013-06-30 13:04:00,68.0,60.2,29.82,ENE,63,1.0,5.0,76,0.00,,---,0.28,VWS V14.01,2013-06-30 17:04:00,
2013-06-30 13:05:00,68.1,60.3,29.83,NE,41,2.0,5.0,76,0.00,,---,0.28,VWS V14.01,2013-06-30 17:05:00,
2013-06-30 13:06:00,68.0,60.5,29.83,ENE,63,0.0,5.0,77,0.00,,---,0.28,VWS V14.01,2013-06-30 17:06:00,
2013-06-30 13:07:00,68.1,60.6,29.82,NE,34,2.0,5.0,77,0.00,,---,0.28,VWS V14.01,2013-06-30 17:07:00,
2013-06-30 13:08:00,68.1,61.0,29.82,NNE,20,2.0,5.0,78,0.00,,---,0.28,VWS V14.01,2013-06-30 17:08:00,
2013-06-30 13:09:00,68.1,60.6,29.82,East,88,1.0,5.0,77,0.00,,---,0.28,VWS V14.01,2013-06-30 17:09:00,
2013-06-30 13:10:00,68.1,60.6,29.82,West,263,0.0,5.0,77,0.00,,---,0.28,VWS V14.01,2013-06-30 17:10:00,
2013-06-30 13:11:00,68.1,60.6,29.82,West,273,0.0,5.0,77,0.00,,---,0.28,VWS V14.01,2013-06-30 17:11:00,
2013-06-30 13:12:00,68.2,61.5,29.82,WSW,253,0.0,5.0,79,0.00,,---,0.28,VWS V14.01,2013-06-30 17:12:00,
2013-06-30 13:13:00,68.2,61.1,29.83,West,270,1.0,5.0,78,0.00,,---,0.28,VWS V14.01,2013-06-30 17:13:00,
2013-06-30 13:14:00,68.3,61.2,29.83,ENE,59,0.0,5.0,78,0.00,,---,0.28,VWS V14.01,2013-06-30 17:14:00,
2013-06-30 13:15:00,68.4,60.9,29.82,WNW,290,1.0,5.0,77,0.00,,---,0.28,VWS V14.01,2013-06-30 17:15:00,
2013-06-30 13:16:00,68.4,61.3,29.82,NNE,20,2.0,5.0,78,0.00,,---,0.28,VWS V14.01,2013-06-30 17:16:00,
2013-06-30 13:17:00,68.5,61.4,29.82,NNW,344,1.0,5.0,78,0.00,,---,0.28,VWS V14.01,2013-06-30 17:17:00,
2013-06-30 13:18:00,68.5,61.4,29.82,NW,319,2.0,5.0,78,0.00,,---,0.28,VWS V14.01,2013-06-30 17:18:00,
2013-06-30 13:19:00,68.5,61.4,29.82,NW,326,2.0,5.0,78,0.00,,---,0.28,VWS V14.01,2013-06-30 17:19:00,
2013-06-30 13:20:00,68.5,61.0,29.82,North,6,2.0,5.0,77,0.00,,---,0.28,VWS V14.01,2013-06-30 17:20:00,
2013-06-30 13:21:00,68.5,60.6,29.82,ENE,58,1.0,5.0,76,0.00,,---,0.28,VWS V14.01,2013-06-30 17:21:00,
2013-06-30 13:22:00,68.6,61.1,29.82,NW,322,3.0,5.0,77,0.00,,---,0.28,VWS V14.01,2013-06-30 17:22:00,
2013-06-30 13:23:00,68.6,60.7,29.82,ENE,66,3.0,11.0,76,0.00,,---,0.28,VWS V14.01,2013-06-30 17:23:00,
2013-06-30 13:24:00,68.6,60.7,29.82,NNE,32,5.0,11.0,76,0.00,,---,0.28,VWS V14.01,2013-06-30 17:24:00,
2013-06-30 13:25:00,68.6,60.4,29.82,ENE,60,1.0,11.0,75,0.00,,---,0.28,VWS V14.01,2013-06-30 17:25:00,
2013-06-30 13:26:00,68.7,60.8,29.82,NE,40,5.0,11.0,76,0.00,,---,0.28,VWS V14.01,2013-06-30 17:26:00,
2013-06-30 13:27:00,68.7,60.5,29.82,East,82,2.0,11.0,75,0.00,,---,0.28,VWS V14.01,2013-06-30 17:27:00,
2013-06-30 13:28:00,68.8,60.6,29.82,NNW,336,5.0,11.0,75,0.00,,---,0.28,VWS V14.01,2013-06-30 17:28:00,
2013-06-30 13:29:00,68.8,60.9,29.82,ENE,65,3.0,11.0,76,0.00,,---,0.28,VWS V14.01,2013-06-30 17:29:00,
2013-06-30 13:30:00,68.8,60.2,29.82,NW,323,2.0,11.0,74,0.00,,---,0.28,VWS V14.01,2013-06-30 17:30:00,
2013-06-30 13:31:00,68.8,60.6,29.82,NNE,18,2.0,4.0,75,0.00,,---,0.28,VWS V14.01,2013-06-30 17:31:00,
2013-06-30 13:32:00,68.9,60.7,29.82,NNW,329,2.0,8.0,75,0.00,,---,0.28,VWS V14.01,2013-06-30 17:32:00,
2013-06-30 13:33:00,68.9,61.0,29.82,East,82,3.0,8.0,76,0.00,,---,0.28,VWS V14.01,2013-06-30 17:33:00,
2013-06-30 13:34:00,68.9,61.0,29.82,North,11,6.0,8.0,76,0.00,,---,0.28,VWS V14.01,2013-06-30 17:34:00,
2013-06-30 13:35:00,69.0,61.1,29.82,NE,55,3.0,8.0,76,0.00,,---,0.28,VWS V14.01,2013-06-30 17:35:00,
2013-06-30 13:36:00,69.0,60.4,29.82,ENE,74,3.0,10.0,74,0.00,,---,0.28,VWS V14.01,2013-06-30 17:36:00,
2013-06-30 13:37:00,69.0,60.8,29.82,North,11,3.0,10.0,75,0.00,,---,0.28,VWS V14.01,2013-06-30 17:37:00,
2013-06-30 13:38:00,69.1,61.2,29.82,NNW,328,4.0,10.0,76,0.00,,---,0.28,VWS V14.01,2013-06-30 17:38:00,
2013-06-30 13:39:00,69.1,60.8,29.82,ENE,77,3.0,10.0,75,0.00,,---,0.28,VWS V14.01,2013-06-30 17:39:00,
2013-06-30 13:40:00,69.1,61.2,29.82,NW,326,1.0,10.0,76,0.00,,---,0.28,VWS V14.01,2013-06-30 17:40:00,
2013-06-30 13:41:00,69.2,61.3,29.82,NNE,18,1.0,10.0,76,0.00,,---,0.28,VWS V14.01,2013-06-30 17:41:00,
2013-06-30 13:42:00,69.2,61.0,29.82,NNW,339,1.0,10.0,75,0.00,,---,0.28,VWS V14.01,2013-06-30 17:42:00,
2013-06-30 13:43:00,69.2,61.0,29.82,NNW,335,2.0,10.0,75,0.00,,---,0.28,VWS V14.01,2013-06-30 17:43:00,
2013-06-30 13:44:00,69.2,61.0,29.82,ESE,110,3.0,10.0,75,0.00,,---,0.28,VWS V14.01,2013-06-30 17:44:00,
2013-06-30 13:45:00,69.2,60.2,29.82,NNW,331,4.0,10.0,73,0.00,,---,0.28,VWS V14.01,2013-06-30 17:45:00,
2013-06-30 13:46:00,69.2,60.6,29.82,NW,323,3.0,11.0,74,0.00,,---,0.28,VWS V14.01,2013-06-30 17:46:00,
2013-06-30 13:47:00,69.1,60.5,29.82,East,89,0.0,11.0,74,0.00,,---,0.28,VWS V14.01,2013-06-30 17:47:00,
2013-06-30 13:48:00,69.1,60.5,29.82,North,6,5.0,11.0,74,0.00,,---,0.28,VWS V14.01,2013-06-30 17:48:00,
2013-06-30 13:49:00,69.0,60.4,29.82,NNE,18,3.0,11.0,74,0.00,,---,0.28,VWS V14.01,2013-06-30 17:49:00,
2013-06-30 13:50:00,69.0,60.8,29.82,NW,306,2.0,11.0,75,0.00,,---,0.28,VWS V14.01,2013-06-30 17:50:00,
2013-06-30 13:51:00,69.0,61.1,29.82,NNW,335,0.0,11.0,76,0.00,,---,0.28,VWS V14.01,2013-06-30 17:51:00,
2013-06-30 13:52:00,69.1,61.2,29.82,NNW,333,1.0,11.0,76,0.00,,---,0.28,VWS V14.01,2013-06-30 17:52:00,
2013-06-30 13:53:00,69.1,61.2,29.82,NNE,32,5.0,11.0,76,0.00,,---,0.28,VWS V14.01,2013-06-30 17:53:00,
2013-06-30 13:54:00,69.1,60.8,29.82,NNW,344,7.0,11.0,75,0.00,,---,0.28,VWS V14.01,2013-06-30 17:54:00,
2013-06-30 13:55:00,69.0,60.8,29.82,North,6,10.0,11.0,75,0.00,,---,0.28,VWS V14.01,2013-06-30 17:55:00,
2013-06-30 13:56:00,68.9,61.0,29.82,NNW,329,3.0,11.0,76,0.00,,---,0.28,VWS V14.01,2013-06-30 17:56:00,
2013-06-30 13:57:00,68.9,61.0,29.82,ESE,122,1.0,11.0,76,0.00,,---,0.28,VWS V14.01,2013-06-30 17:57:00,
2013-06-30 13:58:00,68.8,60.9,29.82,North,360,1.0,11.0,76,0.00,,---,0.28,VWS V14.01,2013-06-30 17:58:00,
2013-06-30 13:59:00,68.8,60.9,29.82,ENE,68,2.0,11.0,76,0.00,,---,0.28,VWS V14.01,2013-06-30 17:59:00,
2013-06-30 14:00:00,68.8,60.9,29.82,ENE,58,4.0,11.0,76,0.00,,---,0.28,VWS V14.01,2013-06-30 18:00:00,
2013-06-30 14:01:00,68.8,60.9,29.82,NNW,344,1.0,4.0,76,0.00,,---,0.28,VWS V14.01,2013-06-30 18:01:00,
2013-06-30 14:02:00,68.8,61.3,29.82,NNE,18,3.0,5.0,77,0.00,,---,0.28,VWS V14.01,2013-06-30 18:02:00,
2013-06-30 14:03:00,68.8,60.9,29.82,WNW,302,2.0,5.0,76,0.00,,---,0.28,VWS V14.01,2013-06-30 18:03:00,
2013-06-30 14:04:00,68.8,61.7,29.82,ESE,102,2.0,5.0,78,0.00,,---,0.28,VWS V14.01,2013-06-30 18:04:00,
2013-06-30 14:05:00,68.8,61.3,29.82,NNW,328,3.0,5.0,77,0.00,,---,0.28,VWS V14.01,2013-06-30 18:05:00,
2013-06-30 14:06:00,68.8,60.9,29.82,North,354,2.0,5.0,76,0.00,,---,0.28,VWS V14.01,2013-06-30 18:06:00,
2013-06-30 14:07:00,68.9,61.4,29.82,NNE,22,3.0,6.0,77,0.00,,---,0.28,VWS V14.01,2013-06-30 18:07:00,
2013-06-30 14:08:00,68.9,61.4,29.82,NW,325,3.0,6.0,77,0.00,,---,0.28,VWS V14.01,2013-06-30 18:08:00,
2013-06-30 14:09:00,68.9,61.4,29.82,North,352,2.0,6.0,77,0.00,,---,0.28,VWS V14.01,2013-06-30 18:09:00,
2013-06-30 14:10:00,68.9,61.0,29.82,NNW,339,3.0,6.0,76,0.00,,---,0.28,VWS V14.01,2013-06-30 18:10:00,
2013-06-30 14:11:00,68.9,61.4,29.82,NNW,330,3.0,6.0,77,0.00,,---,0.28,VWS V14.01,2013-06-30 18:11:00,
2013-06-30 14:12:00,69.0,61.5,29.82,ENE,64,5.0,10.0,77,0.00,,---,0.28,VWS V14.01,2013-06-30 18:12:00,
2013-06-30 14:13:00,69.0,61.5,29.82,NNW,342,4.0,10.0,77,0.00,,---,0.28,VWS V14.01,2013-06-30 18:13:00,
2013-06-30 14:14:00,69.0,61.1,29.82,North,354,6.0,10.0,76,0.00,,---,0.28,VWS V14.01,2013-06-30 18:14:00,
2013-06-30 14:15:00,69.0,61.5,29.82,North,352,4.0,10.0,77,0.00,,---,0.28,VWS V14.01,2013-06-30 18:15:00,
2013-06-30 14:16:00,69.0,61.5,29.82,North,8,5.0,10.0,77,0.00,,---,0.28,VWS V14.01,2013-06-30 18:16:00,
2013-06-30 14:17:00,69.0,61.9,29.82,NNW,335,4.0,10.0,78,0.00,,---,0.28,VWS V14.01,2013-06-30 18:17:00,
2013-06-30 14:18:00,69.0,61.5,29.82,NW,319,7.0,10.0,77,0.00,,---,0.28,VWS V14.01,2013-06-30 18:18:00,
2013-06-30 14:19:00,69.0,61.5,29.82,NNW,339,3.0,10.0,77,0.00,,---,0.28,VWS V14.01,2013-06-30 18:19:00,
2013-06-30 14:20:00,69.0,61.1,29.82,North,9,4.0,10.0,76,0.00,,---,0.28,VWS V14.01,2013-06-30 18:20:00,
2013-06-30 14:21:00,68.9,61.8,29.82,NW,321,3.0,10.0,78,0.00,,---,0.28,VWS V14.01,2013-06-30 18:21:00,
2013-06-30 14:22:00,69.0,61.5,29.82,NW,316,3.0,10.0,77,0.00,,---,0.28,VWS V14.01,2013-06-30 18:22:00,
2013-06-30 14:23:00,69.0,61.5,29.82,NNE,23,3.0,10.0,77,0.00,,---,0.28,VWS V14.01,2013-06-30 18:23:00,
2013-06-30 14:24:00,69.0,61.9,29.82,NNW,343,6.0,10.0,78,0.00,,---,0.28,VWS V14.01,2013-06-30 18:24:00,
2013-06-30 14:25:00,68.9,61.4,29.82,NNW,336,7.0,10.0,77,0.00,,---,0.28,VWS V14.01,2013-06-30 18:25:00,
2013-06-30 14:26:00,68.9,61.4,29.82,North,349,6.0,10.0,77,0.00,,---,0.28,VWS V14.01,2013-06-30 18:26:00,
2013-06-30 14:27:00,68.9,61.0,29.82,North,352,7.0,10.0,76,0.00,,---,0.28,VWS V14.01,2013-06-30 18:27:00,
2013-06-30 14:28:00,68.8,61.3,29.82,North,352,7.0,10.0,77,0.00,,---,0.28,VWS V14.01,2013-06-30 18:28:00,
2013-06-30 14:29:00,68.8,61.3,29.82,North,8,5.0,10.0,77,0.00,,---,0.28,VWS V14.01,2013-06-30 18:29:00,
2013-06-30 14:30:00,68.8,61.3,29.82,NE,44,3.0,10.0,77,0.00,,---,0.28,VWS V14.01,2013-06-30 18:30:00,
2013-06-30 14:31:00,68.8,61.3,29.82,North,349,6.0,6.0,77,0.00,,---,0.28,VWS V14.01,2013-06-30 18:31:00,
2013-06-30 14:32:00,68.8,61.7,29.82,NW,319,2.0,8.0,78,0.00,,---,0.28,VWS V14.01,2013-06-30 18:32:00,
2013-06-30 14:33:00,68.8,61.3,29.82,NNW,338,3.0,8.0,77,0.00,,---,0.28,VWS V14.01,2013-06-30 18:33:00,
2013-06-30 14:34:00,68.8,62.0,29.82,NW,317,4.0,8.0,79,0.00,,---,0.28,VWS V14.01,2013-06-30 18:34:00,
2013-06-30 14:35:00,68.9,61.8,29.82,NNW,335,4.0,8.0,78,0.00,,---,0.28,VWS V14.01,2013-06-30 18:35:00,
2013-06-30 14:36:00,68.9,61.4,29.82,NNE,18,4.0,8.0,77,0.00,,---,0.28,VWS V14.01,2013-06-30 18:36:00,
2013-06-30 14:37:00,68.9,62.5,29.82,North,11,6.0,8.0,80,0.00,,---,0.28,VWS V14.01,2013-06-30 18:37:00,
2013-06-30 14:38:00,69.0,61.5,29.82,North,356,5.0,8.0,77,0.00,,---,0.28,VWS V14.01,2013-06-30 18:38:00,
2013-06-30 14:39:00,69.0,61.9,29.82,NNW,344,3.0,8.0,78,0.00,,---,0.28,VWS V14.01,2013-06-30 18:39:00,
2013-06-30 14:40:00,69.0,61.5,29.82,NNW,327,5.0,9.0,77,0.00,,---,0.28,VWS V14.01,2013-06-30 18:40:00,
2013-06-30 14:41:00,69.1,61.6,29.82,NNW,347,7.0,9.0,77,0.00,,---,0.28,VWS V14.01,2013-06-30 18:41:00,
2013-06-30 14:42:00,69.1,61.6,29.81,NNW,329,5.0,9.0,77,0.00,,---,0.28,VWS V14.01,2013-06-30 18:42:00,
2013-06-30 14:43:00,69.2,61.7,29.81,NNE,13,4.0,9.0,77,0.00,,---,0.28,VWS V14.01,2013-06-30 18:43:00,
2013-06-30 14:44:00,69.3,62.2,29.81,NW,326,5.0,10.0,78,0.00,,---,0.28,VWS V14.01,2013-06-30 18:44:00,
2013-06-30 14:45:00,69.3,61.8,29.81,WNW,295,2.0,10.0,77,0.00,,---,0.28,VWS V14.01,2013-06-30 18:45:00,
2013-06-30 14:46:00,69.4,61.9,29.81,NNW,340,3.0,10.0,77,0.00,,---,0.28,VWS V14.01,2013-06-30 18:46:00,
2013-06-30 14:47:00,69.6,62.1,29.81,WNW,300,2.0,10.0,77,0.00,,---,0.28,VWS V14.01,2013-06-30 18:47:00,
2013-06-30 14:48:00,69.7,62.5,29.81,North,355,2.0,10.0,78,0.00,,---,0.28,VWS V14.01,2013-06-30 18:48:00,
2013-06-30 14:49:00,69.7,62.2,29.81,NW,316,3.0,10.0,77,0.00,,---,0.28,VWS V14.01,2013-06-30 18:49:00,
2013-06-30 14:50:00,69.9,62.4,29.81,NNW,347,4.0,10.0,77,0.00,,---,0.28,VWS V14.01,2013-06-30 18:50:00,
2013-06-30 14:51:00,70.0,62.1,29.81,NW,316,6.0,10.0,76,0.00,,---,0.28,VWS V14.01,2013-06-30 18:51:00,
2013-06-30 14:52:00,70.0,62.1,29.81,NNW,330,3.0,10.0,76,0.00,,---,0.28,VWS V14.01,2013-06-30 18:52:00,
2013-06-30 14:53:00,70.1,61.8,29.81,NW,319,2.0,10.0,75,0.00,,---,0.28,VWS V14.01,2013-06-30 18:53:00,
2013-06-30 14:54:00,70.2,62.3,29.81,NNW,344,4.0,10.0,76,0.00,,---,0.28,VWS V14.01,2013-06-30 18:54:00,
2013-06-30 14:55:00,70.3,62.0,29.81,NNW,328,3.0,10.0,75,0.00,,---,0.28,VWS V14.01,2013-06-30 18:55:00,
2013-06-30 14:56:00,70.4,62.1,29.81,NNE,13,6.0,10.0,75,0.00,,---,0.28,VWS V14.01,2013-06-30 18:56:00,
2013-06-30 14:57:00,70.5,62.2,29.81,NNE,15,5.0,10.0,75,0.00,,---,0.28,VWS V14.01,2013-06-30 18:57:00,
2013-06-30 14:58:00,70.7,62.4,29.82,NE,41,4.0,10.0,75,0.00,,---,0.28,VWS V14.01,2013-06-30 18:58:00,
2013-06-30 14:59:00,70.7,62.4,29.81,NNW,333,3.0,10.0,75,0.00,,---,0.28,VWS V14.01,2013-06-30 18:59:00,
2013-06-30 15:00:00,70.8,62.1,29.81,NE,34,6.0,14.0,74,0.00,,---,0.28,VWS V14.01,2013-06-30 19:00:00,
2013-06-30 15:01:00,70.9,62.2,29.81,NE,56,7.0,11.0,74,0.00,,---,0.28,VWS V14.01,2013-06-30 19:01:00,
2013-06-30 15:02:00,70.9,62.2,29.81,NNW,347,6.0,11.0,74,0.00,,---,0.28,VWS V14.01,2013-06-30 19:02:00,
2013-06-30 15:03:00,71.0,62.7,29.82,NNW,344,2.0,11.0,75,0.00,,---,0.28,VWS V14.01,2013-06-30 19:03:00,
2013-06-30 15:04:00,71.1,62.8,29.82,East,95,4.0,11.0,75,0.00,,---,0.28,VWS V14.01,2013-06-30 19:04:00,
2013-06-30 15:05:00,71.2,62.5,29.81,North,350,3.0,11.0,74,0.00,,---,0.28,VWS V14.01,2013-06-30 19:05:00,
2013-06-30 15:06:00,71.3,63.0,29.81,NNW,335,2.0,11.0,75,0.00,,---,0.28,VWS V14.01,2013-06-30 19:06:00,
2013-06-30 15:07:00,71.5,63.5,29.82,ENE,61,4.0,11.0,76,0.00,,---,0.28,VWS V14.01,2013-06-30 19:07:00,
2013-06-30 15:08:00,71.6,63.6,29.81,North,5,3.0,11.0,76,0.00,,---,0.28,VWS V14.01,2013-06-30 19:08:00,
2013-06-30 15:09:00,71.7,63.4,29.81,NW,311,1.0,11.0,75,0.00,,---,0.28,VWS V14.01,2013-06-30 19:09:00,
2013-06-30 15:10:00,71.8,63.1,29.81,NE,41,4.0,11.0,74,0.00,,---,0.28,VWS V14.01,2013-06-30 19:10:00,
2013-06-30 15:11:00,71.9,63.2,29.81,NE,49,5.0,11.0,74,0.00,,---,0.28,VWS V14.01,2013-06-30 19:11:00,
2013-06-30 15:12:00,71.9,62.4,29.81,NW,326,4.0,11.0,72,0.00,,---,0.28,VWS V14.01,2013-06-30 19:12:00,
2013-06-30 15:13:00,71.9,63.2,29.81,NW,308,2.0,11.0,74,0.00,,---,0.28,VWS V14.01,2013-06-30 19:13:00,
2013-06-30 15:14:00,72.0,62.9,29.81,NNE,25,4.0,11.0,73,0.00,,---,0.28,VWS V14.01,2013-06-30 19:14:00,
2013-06-30 15:15:00,72.0,62.5,29.81,NW,323,4.0,11.0,72,0.00,,---,0.28,VWS V14.01,2013-06-30 19:15:00,
2013-06-30 15:16:00,72.0,62.9,29.81,NW,304,2.0,11.0,73,0.00,,---,0.28,VWS V14.01,2013-06-30 19:16:00,
2013-06-30 15:17:00,72.1,63.4,29.81,NNW,338,2.0,11.0,74,0.00,,---,0.28,VWS V14.01,2013-06-30 19:17:00,
2013-06-30 15:18:00,72.2,63.1,29.81,NNE,13,3.0,11.0,73,0.00,,---,0.28,VWS V14.01,2013-06-30 19:18:00,
2013-06-30 15:19:00,72.2,63.1,29.81,NNW,335,4.0,11.0,73,0.00,,---,0.28,VWS V14.01,2013-06-30 19:19:00,
2013-06-30 15:20:00,72.3,62.4,29.81,NNW,340,6.0,11.0,71,0.00,,---,0.28,VWS V14.01,2013-06-30 19:20:00,
2013-06-30 15:21:00,72.4,62.9,29.81,NW,316,4.0,11.0,72,0.00,,---,0.28,VWS V14.01,2013-06-30 19:21:00,
2013-06-30 15:22:00,72.4,63.3,29.81,SSE,148,3.0,11.0,73,0.00,,---,0.28,VWS V14.01,2013-06-30 19:22:00,
2013-06-30 15:23:00,72.4,62.9,29.81,NW,304,1.0,11.0,72,0.00,,---,0.28,VWS V14.01,2013-06-30 19:23:00,
2013-06-30 15:24:00,72.5,63.8,29.82,NNW,345,3.0,11.0,74,0.00,,---,0.28,VWS V14.01,2013-06-30 19:24:00,
2013-06-30 15:25:00,72.6,64.2,29.82,ESE,110,4.0,12.0,75,0.00,,---,0.28,VWS V14.01,2013-06-30 19:25:00,
2013-06-30 15:26:00,72.6,62.7,29.82,North,351,4.0,12.0,71,0.00,,---,0.28,VWS V14.01,2013-06-30 19:26:00,
2013-06-30 15:27:00,72.6,62.7,29.82,NNW,331,7.0,12.0,71,0.00,,---,0.28,VWS V14.01,2013-06-30 19:27:00,
2013-06-30 15:28:00,72.6,62.7,29.82,North,354,5.0,12.0,71,0.00,,---,0.28,VWS V14.01,2013-06-30 19:28:00,
2013-06-30 15:29:00,72.6,63.1,29.81,NW,326,4.0,12.0,72,0.00,,---,0.28,VWS V14.01,2013-06-30 19:29:00,
2013-06-30 15:30:00,72.6,63.1,29.82,NNE,25,4.0,12.0,72,0.00,,---,0.28,VWS V14.01,2013-06-30 19:30:00,
2013-06-30 15:31:00,72.6,62.3,29.81,NNW,329,4.0,10.0,70,0.00,,---,0.28,VWS V14.01,2013-06-30 19:31:00,
2013-06-30 15:32:00,72.6,62.3,29.81,NNW,333,6.0,10.0,70,0.00,,---,0.28,VWS V14.01,2013-06-30 19:32:00,
2013-06-30 15:33:00,72.6,62.3,29.82,NNW,330,2.0,10.0,70,0.00,,---,0.28,VWS V14.01,2013-06-30 19:33:00,
2013-06-30 15:34:00,72.6,62.7,29.81,West,269,2.0,10.0,71,0.00,,---,0.28,VWS V14.01,2013-06-30 19:34:00,
2013-06-30 15:35:00,72.6,62.3,29.81,NNE,12,10.0,10.0,70,0.00,,---,0.28,VWS V14.01,2013-06-30 19:35:00,
2013-06-30 15:36:00,72.6,62.3,29.82,NNW,342,6.0,15.0,70,0.00,,---,0.28,VWS V14.01,2013-06-30 19:36:00,
2013-06-30 15:37:00,72.6,62.3,29.81,NNW,340,3.0,15.0,70,0.00,,---,0.28,VWS V14.01,2013-06-30 19:37:00,
2013-06-30 15:38:00,72.6,62.7,29.82,North,354,2.0,15.0,71,0.00,,---,0.28,VWS V14.01,2013-06-30 19:38:00,
2013-06-30 15:39:00,72.6,62.3,29.82,NE,49,5.0,15.0,70,0.00,,---,0.28,VWS V14.01,2013-06-30 19:39:00,
2013-06-30 15:40:00,72.6,62.3,29.82,WNW,295,4.0,15.0,70,0.00,,---,0.28,VWS V14.01,2013-06-30 19:40:00,
2013-06-30 15:41:00,72.6,62.3,29.82,NE,43,2.0,15.0,70,0.00,,---,0.28,VWS V14.01,2013-06-30 19:41:00,
2013-06-30 15:42:00,72.6,62.7,29.82,WNW,289,2.0,15.0,71,0.00,,---,0.28,VWS V14.01,2013-06-30 19:42:00,
2013-06-30 15:43:00,72.7,62.4,29.81,NNW,337,2.0,15.0,70,0.00,,---,0.28,VWS V14.01,2013-06-30 19:43:00,
2013-06-30 15:44:00,72.7,62.4,29.82,NNW,340,2.0,15.0,70,0.00,,---,0.28,VWS V14.01,2013-06-30 19:44:00,
2013-06-30 15:45:00,72.7,62.4,29.82,ENE,66,6.0,15.0,70,0.00,,---,0.28,VWS V14.01,2013-06-30 19:45:00,
2013-06-30 15:46:00,72.8,62.5,29.82,NNW,348,2.0,15.0,70,0.00,,---,0.28,VWS V14.01,2013-06-30 19:46:00,
2013-06-30 15:47:00,72.8,62.9,29.82,SE,138,2.0,15.0,71,0.00,,---,0.28,VWS V14.01,2013-06-30 19:47:00,
2013-06-30 15:48:00,72.9,62.5,29.82,East,81,9.0,15.0,70,0.00,,---,0.28,VWS V14.01,2013-06-30 19:48:00,
2013-06-30 15:49:00,72.9,62.1,29.82,NNW,343,4.0,15.0,69,0.00,,---,0.28,VWS V14.01,2013-06-30 19:49:00,
2013-06-30 15:50:00,72.9,62.5,29.82,SSW,204,1.0,15.0,70,0.00,,---,0.28,VWS V14.01,2013-06-30 19:50:00,
2013-06-30 15:51:00,73.0,62.2,29.82,North,9,6.0,15.0,69,0.00,,---,0.28,VWS V14.01,2013-06-30 19:51:00,
2013-06-30 15:52:00,73.0,62.2,29.82,ENE,62,4.0,15.0,69,0.00,,---,0.28,VWS V14.01,2013-06-30 19:52:00,
2013-06-30 15:53:00,73.0,62.2,29.82,North,9,4.0,15.0,69,0.00,,---,0.28,VWS V14.01,2013-06-30 19:53:00,
2013-06-30 15:54:00,73.0,61.4,29.82,NE,34,2.0,15.0,67,0.00,,---,0.28,VWS V14.01,2013-06-30 19:54:00,
2013-06-30 15:55:00,73.1,62.7,29.82,WNW,296,2.0,15.0,70,0.00,,---,0.28,VWS V14.01,2013-06-30 19:55:00,
2013-06-30 15:56:00,73.1,62.3,29.82,NNW,343,3.0,15.0,69,0.00,,---,0.28,VWS V14.01,2013-06-30 19:56:00,
2013-06-30 15:57:00,73.1,61.5,29.82,NNW,327,6.0,15.0,67,0.00,,---,0.28,VWS V14.01,2013-06-30 19:57:00,
2013-06-30 15:58:00,73.1,61.9,29.82,NW,326,3.0,15.0,68,0.00,,---,0.28,VWS V14.01,2013-06-30 19:58:00,
2013-06-30 15:59:00,73.1,62.3,29.82,ENE,63,2.0,15.0,69,0.00,,---,0.28,VWS V14.01,2013-06-30 19:59:00,
2013-06-30 16:00:00,73.2,62.0,29.82,NNE,20,4.0,15.0,68,0.00,,---,0.28,VWS V14.01,2013-06-30 20:00:00,
2013-06-30 16:01:00,73.2,62.4,29.82,North,356,1.0,5.0,69,0.00,,---,0.28,VWS V14.01,2013-06-30 20:01:00,
2013-06-30 16:02:00,73.2,62.8,29.82,ENE,72,2.0,5.0,70,0.00,,---,0.28,VWS V14.01,2013-06-30 20:02:00,
2013-06-30 16:03:00,73.3,62.9,29.82,NNW,332,1.0,5.0,70,0.00,,---,0.28,VWS V14.01,2013-06-30 20:03:00,
2013-06-30 16:04:00,73.4,63.0,29.82,SSE,154,1.0,5.0,70,0.00,,---,0.28,VWS V14.01,2013-06-30 20:04:00,
2013-06-30 16:05:00,73.4,63.0,29.82,NW,316,1.0,5.0,70,0.00,,---,0.28,VWS V14.01,2013-06-30 20:05:00,
2013-06-30 16:06:00,73.5,63.5,29.82,NNE,18,7.0,7.0,71,0.00,,---,0.28,VWS V14.01,2013-06-30 20:06:00,
2013-06-30 16:07:00,73.6,62.4,29.82,ESE,105,3.0,7.0,68,0.00,,---,0.28,VWS V14.01,2013-06-30 20:07:00,
2013-06-30 16:08:00,73.6,62.8,29.82,East,96,2.0,7.0,69,0.00,,---,0.28,VWS V14.01,2013-06-30 20:08:00,
2013-06-30 16:09:00,73.6,63.2,29.82,NE,41,2.0,7.0,70,0.00,,---,0.28,VWS V14.01,2013-06-30 20:09:00,
2013-06-30 16:10:00,73.7,62.5,29.82,NW,319,1.0,7.0,68,0.00,,---,0.28,VWS V14.01,2013-06-30 20:10:00,
2013-06-30 16:11:00,73.8,63.0,29.82,NNW,327,0.0,7.0,69,0.00,,---,0.28,VWS V14.01,2013-06-30 20:11:00,
2013-06-30 16:12:00,73.9,62.7,29.82,NNE,32,0.0,7.0,68,0.00,,---,0.28,VWS V14.01,2013-06-30 20:12:00,
2013-06-30 16:13:00,74.0,62.8,29.82,East,99,3.0,7.0,68,0.00,,---,0.28,VWS V14.01,2013-06-30 20:13:00,
2013-06-30 16:14:00,74.1,62.9,29.82,ENE,62,1.0,7.0,68,0.00,,---,0.28,VWS V14.01,2013-06-30 20:14:00,
2013-06-30 16:15:00,74.1,62.5,29.82,North,11,1.0,8.0,67,0.00,,---,0.28,VWS V14.01,2013-06-30 20:15:00,
2013-06-30 16:16:00,74.2,63.4,29.82,NNE,25,1.0,8.0,69,0.00,,---,0.28,VWS V14.01,2013-06-30 20:16:00,
2013-06-30 16:17:00,74.2,63.0,29.82,NNW,338,2.0,8.0,68,0.00,,---,0.28,VWS V14.01,2013-06-30 20:17:00,
2013-06-30 16:18:00,74.3,64.3,29.82,WNW,298,0.0,8.0,71,0.00,,---,0.28,VWS V14.01,2013-06-30 20:18:00,
2013-06-30 16:19:00,74.4,65.2,29.82,ENE,59,3.0,8.0,73,0.00,,---,0.28,VWS V14.01,2013-06-30 20:19:00,
2013-06-30 16:20:00,74.4,65.2,29.82,SE,124,1.0,8.0,73,0.00,,---,0.28,VWS V14.01,2013-06-30 20:20:00,
2013-06-30 16:21:00,74.5,64.1,29.82,NNW,345,3.0,8.0,70,0.00,,---,0.28,VWS V14.01,2013-06-30 20:21:00,
2013-06-30 16:22:00,74.6,63.3,29.82,North,357,2.0,8.0,68,0.00,,---,0.28,VWS V14.01,2013-06-30 20:22:00,
2013-06-30 16:23:00,74.8,64.8,29.82,NNE,29,2.0,8.0,71,0.00,,---,0.28,VWS V14.01,2013-06-30 20:23:00,
2013-06-30 16:24:00,74.9,64.5,29.82,SSE,158,0.0,8.0,70,0.00,,---,0.28,VWS V14.01,2013-06-30 20:24:00,
2013-06-30 16:25:00,75.2,64.8,29.82,ENE,65,1.0,8.0,70,0.00,,---,0.28,VWS V14.01,2013-06-30 20:25:00,
2013-06-30 16:26:00,75.4,64.1,29.82,ENE,65,1.0,8.0,68,0.00,,---,0.28,VWS V14.01,2013-06-30 20:26:00,
2013-06-30 16:27:00,75.5,64.2,29.82,NNE,15,2.0,8.0,68,0.00,,---,0.28,VWS V14.01,2013-06-30 20:27:00,
2013-06-30 16:28:00,75.7,65.2,29.82,NNW,328,2.0,8.0,70,0.00,,---,0.28,VWS V14.01,2013-06-30 20:28:00,
2013-06-30 16:29:00,75.7,64.8,29.82,North,6,2.0,8.0,69,0.00,,---,0.28,VWS V14.01,2013-06-30 20:29:00,
2013-06-30 16:30:00,75.8,64.5,29.82,North,352,4.0,8.0,68,0.00,,---,0.28,VWS V14.01,2013-06-30 20:30:00,
2013-06-30 16:31:00,75.8,64.5,29.82,NNW,329,1.0,4.0,68,0.00,,---,0.28,VWS V14.01,2013-06-30 20:31:00,
2013-06-30 16:32:00,75.9,65.4,29.82,ESE,103,2.0,5.0,70,0.00,,---,0.28,VWS V14.01,2013-06-30 20:32:00,
2013-06-30 16:33:00,75.9,65.4,29.82,NNE,12,1.0,5.0,70,0.00,,---,0.28,VWS V14.01,2013-06-30 20:33:00,
2013-06-30 16:34:00,75.9,63.3,29.82,ENE,63,3.0,6.0,65,0.00,,---,0.28,VWS V14.01,2013-06-30 20:34:00,
2013-06-30 16:35:00,76.0,63.0,29.82,NNE,23,1.0,6.0,64,0.00,,---,0.28,VWS V14.01,2013-06-30 20:35:00,
2013-06-30 16:36:00,76.1,63.9,29.82,NNW,337,2.0,6.0,66,0.00,,---,0.28,VWS V14.01,2013-06-30 20:36:00,
2013-06-30 16:37:00,76.1,63.5,29.82,North,359,3.0,6.0,65,0.00,,---,0.28,VWS V14.01,2013-06-30 20:37:00,
2013-06-30 16:38:00,76.2,62.7,29.82,ESE,111,4.0,7.0,63,0.00,,---,0.28,VWS V14.01,2013-06-30 20:38:00,
2013-06-30 16:39:00,76.2,63.1,29.81,SE,128,5.0,7.0,64,0.00,,---,0.28,VWS V14.01,2013-06-30 20:39:00,
2013-06-30 16:40:00,76.1,62.2,29.82,SSW,205,1.0,7.0,62,0.00,,---,0.28,VWS V14.01,2013-06-30 20:40:00,
2013-06-30 16:41:00,76.1,63.0,29.82,ENE,77,2.0,7.0,64,0.00,,---,0.28,VWS V14.01,2013-06-30 20:41:00,
2013-06-30 16:42:00,76.1,63.0,29.82,SE,144,1.0,7.0,64,0.00,,---,0.28,VWS V14.01,2013-06-30 20:42:00,
2013-06-30 16:43:00,76.1,63.0,29.82,SW,217,1.0,7.0,64,0.00,,---,0.28,VWS V14.01,2013-06-30 20:43:00,
2013-06-30 16:44:00,76.2,63.1,29.82,NE,56,4.0,7.0,64,0.00,,---,0.28,VWS V14.01,2013-06-30 20:44:00,
2013-06-30 16:45:00,76.2,62.2,29.82,ENE,60,1.0,7.0,62,0.00,,---,0.28,VWS V14.01,2013-06-30 20:45:00,
2013-06-30 16:46:00,76.2,63.6,29.82,NNE,32,6.0,7.0,65,0.00,,---,0.28,VWS V14.01,2013-06-30 20:46:00,
2013-06-30 16:47:00,76.2,63.1,29.82,NE,43,2.0,7.0,64,0.00,,---,0.28,VWS V14.01,2013-06-30 20:47:00,
2013-06-30 16:48:00,76.3,62.8,29.82,North,8,3.0,7.0,63,0.00,,---,0.28,VWS V14.01,2013-06-30 20:48:00,
2013-06-30 16:49:00,76.2,62.7,29.82,NNE,33,1.0,7.0,63,0.00,,---,0.28,VWS V14.01,2013-06-30 20:49:00,
2013-06-30 16:50:00,76.2,63.1,29.82,ENE,71,2.0,7.0,64,0.00,,---,0.28,VWS V14.01,2013-06-30 20:50:00,
2013-06-30 16:51:00,76.1,62.6,29.82,ENE,70,2.0,7.0,63,0.00,,---,0.28,VWS V14.01,2013-06-30 20:51:00,
2013-06-30 16:52:00,76.1,63.0,29.81,WSW,239,1.0,7.0,64,0.00,,---,0.28,VWS V14.01,2013-06-30 20:52:00,
2013-06-30 16:53:00,76.0,63.0,29.82,WSW,253,2.0,7.0,64,0.00,,---,0.28,VWS V14.01,2013-06-30 20:53:00,
2013-06-30 16:54:00,75.9,62.9,29.82,South,169,1.0,7.0,64,0.00,,---,0.28,VWS V14.01,2013-06-30 20:54:00,
2013-06-30 16:55:00,75.9,63.3,29.82,ENE,63,0.0,7.0,65,0.00,,---,0.28,VWS V14.01,2013-06-30 20:55:00,
2013-06-30 16:56:00,75.9,63.3,29.82,ENE,64,0.0,7.0,65,0.00,,---,0.28,VWS V14.01,2013-06-30 20:56:00,
2013-06-30 16:57:00,75.9,63.7,29.82,SW,225,1.0,7.0,66,0.00,,---,0.28,VWS V14.01,2013-06-30 20:57:00,
2013-06-30 16:58:00,76.0,63.8,29.82,SW,225,0.0,7.0,66,0.00,,---,0.28,VWS V14.01,2013-06-30 20:58:00,
2013-06-30 16:59:00,76.0,64.3,29.82,East,92,0.0,7.0,67,0.00,,---,0.28,VWS V14.01,2013-06-30 20:59:00,
2013-06-30 17:00:00,76.1,64.4,29.82,NE,40,0.0,7.0,67,0.00,,---,0.28,VWS V14.01,2013-06-30 21:00:00,
2013-06-30 17:01:00,76.1,64.4,29.82,NNE,16,4.0,4.0,67,0.00,,---,0.28,VWS V14.01,2013-06-30 21:01:00,
2013-06-30 17:02:00,76.1,63.9,29.82,SSW,207,3.0,4.0,66,0.00,,---,0.28,VWS V14.01,2013-06-30 21:02:00,
2013-06-30 17:03:00,76.1,63.5,29.82,WSW,238,0.0,4.0,65,0.00,,---,0.28,VWS V14.01,2013-06-30 21:03:00,
2013-06-30 17:04:00,76.0,63.8,29.82,NNW,343,1.0,5.0,66,0.00,,---,0.28,VWS V14.01,2013-06-30 21:04:00,
2013-06-30 17:05:00,76.1,64.8,29.81,NNW,340,0.0,5.0,68,0.00,,---,0.28,VWS V14.01,2013-06-30 21:05:00,
2013-06-30 17:06:00,76.2,64.9,29.81,SSW,200,2.0,5.0,68,0.00,,---,0.28,VWS V14.01,2013-06-30 21:06:00,
2013-06-30 17:07:00,76.3,64.6,29.81,SSW,200,0.0,5.0,67,0.00,,---,0.28,VWS V14.01,2013-06-30 21:07:00,
2013-06-30 17:08:00,76.4,65.1,29.81,NNE,12,3.0,5.0,68,0.00,,---,0.28,VWS V14.01,2013-06-30 21:08:00,
2013-06-30 17:09:00,76.5,63.9,29.81,NNE,26,1.0,5.0,65,0.00,,---,0.28,VWS V14.01,2013-06-30 21:09:00,
2013-06-30 17:10:00,76.6,64.8,29.81,North,352,2.0,5.0,67,0.00,,---,0.28,VWS V14.01,2013-06-30 21:10:00,
2013-06-30 17:11:00,76.6,64.0,29.81,NE,46,2.0,6.0,65,0.00,,---,0.28,VWS V14.01,2013-06-30 21:11:00,
2013-06-30 17:12:00,76.6,63.5,29.81,ENE,68,3.0,9.0,64,0.00,,---,0.28,VWS V14.01,2013-06-30 21:12:00,
2013-06-30 17:13:00,76.4,63.8,29.82,NE,44,2.0,9.0,65,0.00,,---,0.28,VWS V14.01,2013-06-30 21:13:00,
2013-06-30 17:14:00,76.3,63.7,29.82,ENE,63,1.0,9.0,65,0.00,,---,0.28,VWS V14.01,2013-06-30 21:14:00,
2013-06-30 17:15:00,76.2,64.0,29.81,NE,43,2.0,9.0,66,0.00,,---,0.28,VWS V14.01,2013-06-30 21:15:00,
2013-06-30 17:16:00,76.2,64.0,29.81,WSW,238,2.0,9.0,66,0.00,,---,0.28,VWS V14.01,2013-06-30 21:16:00,
2013-06-30 17:17:00,76.2,64.0,29.81,North,5,5.0,9.0,66,0.00,,---,0.28,VWS V14.01,2013-06-30 21:17:00,
2013-06-30 17:18:00,76.3,63.2,29.81,South,191,1.0,9.0,64,0.00,,---,0.28,VWS V14.01,2013-06-30 21:18:00,
2013-06-30 17:19:00,76.4,63.3,29.82,NE,53,4.0,9.0,64,0.00,,---,0.28,VWS V14.01,2013-06-30 21:19:00,
2013-06-30 17:20:00,76.4,63.3,29.82,NNE,32,0.0,9.0,64,0.00,,---,0.28,VWS V14.01,2013-06-30 21:20:00,
2013-06-30 17:21:00,76.5,63.9,29.82,NW,321,2.0,9.0,65,0.00,,---,0.28,VWS V14.01,2013-06-30 21:21:00,
2013-06-30 17:22:00,76.5,63.4,29.82,NW,309,1.0,9.0,64,0.00,,---,0.28,VWS V14.01,2013-06-30 21:22:00,
2013-06-30 17:23:00,76.5,63.9,29.82,NNW,331,1.0,9.0,65,0.00,,---,0.28,VWS V14.01,2013-06-30 21:23:00,
2013-06-30 17:24:00,76.5,63.9,29.82,NNW,346,3.0,9.0,65,0.00,,---,0.28,VWS V14.01,2013-06-30 21:24:00,
2013-06-30 17:25:00,76.5,63.4,29.82,North,10,1.0,9.0,64,0.00,,---,0.28,VWS V14.01,2013-06-30 21:25:00,
2013-06-30 17:26:00,76.5,63.4,29.82,East,88,2.0,9.0,64,0.00,,---,0.28,VWS V14.01,2013-06-30 21:26:00,
2013-06-30 17:27:00,76.4,63.3,29.82,NW,326,1.0,9.0,64,0.00,,---,0.28,VWS V14.01,2013-06-30 21:27:00,
2013-06-30 17:28:00,76.3,63.2,29.82,North,356,4.0,9.0,64,0.00,,---,0.28,VWS V14.01,2013-06-30 21:28:00,
2013-06-30 17:29:00,76.1,62.6,29.82,NW,315,2.0,9.0,63,0.00,,---,0.28,VWS V14.01,2013-06-30 21:29:00,
2013-06-30 17:30:00,76.0,62.5,29.82,NNW,343,5.0,9.0,63,0.00,,---,0.28,VWS V14.01,2013-06-30 21:30:00,
2013-06-30 17:31:00,75.8,62.8,29.82,WSW,253,2.0,5.0,64,0.00,,---,0.28,VWS V14.01,2013-06-30 21:31:00,
2013-06-30 17:32:00,75.8,63.2,29.82,NE,34,1.0,5.0,65,0.00,,---,0.28,VWS V14.01,2013-06-30 21:32:00,
2013-06-30 17:33:00,75.7,63.1,29.82,NNW,327,2.0,5.0,65,0.00,,---,0.28,VWS V14.01,2013-06-30 21:33:00,
2013-06-30 17:34:00,75.7,62.7,29.82,NE,37,4.0,6.0,64,0.00,,---,0.28,VWS V14.01,2013-06-30 21:34:00,
2013-06-30 17:35:00,75.7,62.7,29.82,NNW,342,3.0,6.0,64,0.00,,---,0.28,VWS V14.01,2013-06-30 21:35:00,
2013-06-30 17:36:00,75.6,63.0,29.82,NNW,332,2.0,6.0,65,0.00,,---,0.28,VWS V14.01,2013-06-30 21:36:00,
2013-06-30 17:37:00,75.6,62.6,29.82,NE,39,3.0,6.0,64,0.00,,---,0.28,VWS V14.01,2013-06-30 21:37:00,
2013-06-30 17:38:00,75.5,62.5,29.82,ENE,74,2.0,6.0,64,0.00,,---,0.28,VWS V14.01,2013-06-30 21:38:00,
2013-06-30 17:39:00,75.4,62.8,29.82,North,350,2.0,6.0,65,0.00,,---,0.28,VWS V14.01,2013-06-30 21:39:00,
2013-06-30 17:40:00,75.4,63.3,29.82,East,98,1.0,6.0,66,0.00,,---,0.28,VWS V14.01,2013-06-30 21:40:00,
2013-06-30 17:41:00,75.3,63.2,29.82,WSW,255,1.0,6.0,66,0.00,,---,0.28,VWS V14.01,2013-06-30 21:41:00,
2013-06-30 17:42:00,75.3,62.7,29.82,WSW,252,0.0,6.0,65,0.00,,---,0.28,VWS V14.01,2013-06-30 21:42:00,
2013-06-30 17:43:00,75.3,63.2,29.82,WSW,255,1.0,6.0,66,0.00,,---,0.28,VWS V14.01,2013-06-30 21:43:00,
2013-06-30 17:44:00,75.3,63.2,29.82,North,349,3.0,6.0,66,0.00,,---,0.28,VWS V14.01,2013-06-30 21:44:00,
2013-06-30 17:45:00,75.2,63.1,29.82,NNW,328,1.0,6.0,66,0.00,,---,0.28,VWS V14.01,2013-06-30 21:45:00,
2013-06-30 17:46:00,75.2,63.1,29.82,NE,54,1.0,6.0,66,0.00,,---,0.28,VWS V14.01,2013-06-30 21:46:00,
2013-06-30 17:47:00,75.1,62.5,29.82,North,11,3.0,6.0,65,0.00,,---,0.28,VWS V14.01,2013-06-30 21:47:00,
2013-06-30 17:48:00,75.0,63.3,29.82,North,360,3.0,6.0,67,0.00,,---,0.28,VWS V14.01,2013-06-30 21:48:00,
2013-06-30 17:49:00,74.9,63.2,29.82,NNW,331,1.0,6.0,67,0.00,,---,0.28,VWS V14.01,2013-06-30 21:49:00,
2013-06-30 17:50:00,74.8,63.1,29.82,NE,54,2.0,6.0,67,0.00,,---,0.28,VWS V14.01,2013-06-30 21:50:00,
2013-06-30 17:51:00,74.8,62.3,29.82,NNW,338,3.0,6.0,65,0.00,,---,0.28,VWS V14.01,2013-06-30 21:51:00,
2013-06-30 17:52:00,74.7,62.6,29.82,NNW,337,3.0,6.0,66,0.00,,---,0.28,VWS V14.01,2013-06-30 21:52:00,
2013-06-30 17:53:00,74.7,63.0,29.82,NNW,338,3.0,6.0,67,0.00,,---,0.28,VWS V14.01,2013-06-30 21:53:00,
2013-06-30 17:54:00,74.6,62.9,29.82,NW,310,1.0,6.0,67,0.00,,---,0.28,VWS V14.01,2013-06-30 21:54:00,
2013-06-30 17:55:00,74.6,62.9,29.82,NW,319,2.0,6.0,67,0.00,,---,0.28,VWS V14.01,2013-06-30 21:55:00,
2013-06-30 17:56:00,74.5,63.3,29.82,NW,304,2.0,6.0,68,0.00,,---,0.28,VWS V14.01,2013-06-30 21:56:00,
2013-06-30 17:57:00,74.5,62.4,29.82,NE,42,3.0,6.0,66,0.00,,---,0.28,VWS V14.01,2013-06-30 21:57:00,
2013-06-30 17:58:00,74.4,62.7,29.82,NE,54,3.0,6.0,67,0.00,,---,0.28,VWS V14.01,2013-06-30 21:58:00,
2013-06-30 17:59:00,74.4,62.3,29.83,WNW,302,2.0,6.0,66,0.00,,---,0.28,VWS V14.01,2013-06-30 21:59:00,
2013-06-30 18:00:00,74.4,62.3,29.83,NW,304,2.0,6.0,66,0.00,,---,0.28,VWS V14.01,2013-06-30 22:00:00,
2013-06-30 18:01:00,74.3,62.6,29.82,NNW,330,3.0,3.0,67,0.00,,---,0.28,VWS V14.01,2013-06-30 22:01:00,
2013-06-30 18:02:00,74.3,62.6,29.83,NNW,338,1.0,3.0,67,0.00,,---,0.28,VWS V14.01,2013-06-30 22:02:00,
2013-06-30 18:03:00,74.3,63.1,29.83,North,10,1.0,3.0,68,0.00,,---,0.28,VWS V14.01,2013-06-30 22:03:00,
2013-06-30 18:04:00,74.3,63.1,29.83,East,88,3.0,4.0,68,0.00,,---,0.28,VWS V14.01,2013-06-30 22:04:00,
2013-06-30 18:05:00,74.3,62.2,29.83,NW,319,1.0,4.0,66,0.00,,---,0.28,VWS V14.01,2013-06-30 22:05:00,
2013-06-30 18:06:00,74.3,62.6,29.83,NW,308,1.0,4.0,67,0.00,,---,0.28,VWS V14.01,2013-06-30 22:06:00,
2013-06-30 18:07:00,74.3,62.6,29.83,NNE,33,3.0,4.0,67,0.00,,---,0.28,VWS V14.01,2013-06-30 22:07:00,
2013-06-30 18:08:00,74.3,62.2,29.83,NNE,12,2.0,4.0,66,0.00,,---,0.28,VWS V14.01,2013-06-30 22:08:00,
2013-06-30 18:09:00,74.3,62.6,29.83,NE,43,2.0,4.0,67,0.00,,---,0.28,VWS V14.01,2013-06-30 22:09:00,
2013-06-30 18:10:00,74.3,61.8,29.83,North,357,3.0,4.0,65,0.00,,---,0.28,VWS V14.01,2013-06-30 22:10:00,
2013-06-30 18:11:00,74.3,62.6,29.83,NE,46,1.0,4.0,67,0.00,,---,0.28,VWS V14.01,2013-06-30 22:11:00,
2013-06-30 18:12:00,74.3,63.1,29.83,NE,49,6.0,6.0,68,0.00,,---,0.28,VWS V14.01,2013-06-30 22:12:00,
2013-06-30 18:13:00,74.4,62.3,29.83,NNW,343,4.0,6.0,66,0.00,,---,0.28,VWS V14.01,2013-06-30 22:13:00,
2013-06-30 18:14:00,74.5,63.3,29.83,ENE,77,1.0,6.0,68,0.00,,---,0.28,VWS V14.01,2013-06-30 22:14:00,
2013-06-30 18:15:00,74.6,62.9,29.83,NNW,343,1.0,6.0,67,0.00,,---,0.28,VWS V14.01,2013-06-30 22:15:00,
2013-06-30 18:16:00,74.8,63.5,29.83,NW,318,4.0,6.0,68,0.00,,---,0.28,VWS V14.01,2013-06-30 22:16:00,
2013-06-30 18:17:00,74.9,62.3,29.83,NW,323,2.0,9.0,65,0.00,,---,0.28,VWS V14.01,2013-06-30 22:17:00,
2013-06-30 18:18:00,75.1,63.4,29.83,North,359,2.0,9.0,67,0.00,,---,0.28,VWS V14.01,2013-06-30 22:18:00,
2013-06-30 18:19:00,75.2,63.5,29.83,WNW,302,1.0,9.0,67,0.00,,---,0.28,VWS V14.01,2013-06-30 22:19:00,
2013-06-30 18:20:00,75.3,63.6,29.83,ENE,65,4.0,9.0,67,0.00,,---,0.28,VWS V14.01,2013-06-30 22:20:00,
2013-06-30 18:21:00,75.3,63.2,29.83,ESE,108,0.0,9.0,66,0.00,,---,0.28,VWS V14.01,2013-06-30 22:21:00,
2013-06-30 18:22:00,75.3,64.0,29.83,NNW,348,0.0,9.0,68,0.00,,---,0.28,VWS V14.01,2013-06-30 22:22:00,
2013-06-30 18:23:00,75.3,63.2,29.83,NNW,333,1.0,9.0,66,0.00,,---,0.28,VWS V14.01,2013-06-30 22:23:00,
2013-06-30 18:24:00,75.3,63.2,29.83,NNW,331,3.0,9.0,66,0.00,,---,0.28,VWS V14.01,2013-06-30 22:24:00,
2013-06-30 18:25:00,75.2,62.6,29.83,ENE,58,6.0,9.0,65,0.00,,---,0.28,VWS V14.01,2013-06-30 22:25:00,
2013-06-30 18:26:00,75.2,63.1,29.83,NNW,337,2.0,9.0,66,0.00,,---,0.28,VWS V14.01,2013-06-30 22:26:00,
2013-06-30 18:27:00,75.2,63.1,29.83,North,352,3.0,9.0,66,0.00,,---,0.28,VWS V14.01,2013-06-30 22:27:00,
2013-06-30 18:28:00,75.2,62.6,29.83,NE,46,2.0,9.0,65,0.00,,---,0.28,VWS V14.01,2013-06-30 22:28:00,
2013-06-30 18:29:00,75.2,62.6,29.83,North,8,3.0,9.0,65,0.00,,---,0.28,VWS V14.01,2013-06-30 22:29:00,
2013-06-30 18:30:00,75.2,62.6,29.83,NNW,335,4.0,9.0,65,0.00,,---,0.28,VWS V14.01,2013-06-30 22:30:00,
2013-06-30 18:31:00,75.2,62.2,29.83,NNW,330,4.0,5.0,64,0.00,,---,0.28,VWS V14.01,2013-06-30 22:31:00,
2013-06-30 18:32:00,75.2,61.8,29.83,NNE,23,2.0,6.0,63,0.00,,---,0.28,VWS V14.01,2013-06-30 22:32:00,
2013-06-30 18:33:00,75.2,61.8,29.83,North,1,10.0,10.0,63,0.00,,---,0.28,VWS V14.01,2013-06-30 22:33:00,
2013-06-30 18:34:00,75.3,61.8,29.83,NW,323,3.0,10.0,63,0.00,,---,0.28,VWS V14.01,2013-06-30 22:34:00,
2013-06-30 18:35:00,75.3,62.3,29.83,North,6,2.0,10.0,64,0.00,,---,0.28,VWS V14.01,2013-06-30 22:35:00,
2013-06-30 18:36:00,75.3,61.8,29.83,NNW,328,3.0,10.0,63,0.00,,---,0.28,VWS V14.01,2013-06-30 22:36:00,
2013-06-30 18:37:00,75.3,61.8,29.83,NW,326,1.0,10.0,63,0.00,,---,0.28,VWS V14.01,2013-06-30 22:37:00,
2013-06-30 18:38:00,75.4,61.9,29.83,NNE,23,3.0,10.0,63,0.00,,---,0.28,VWS V14.01,2013-06-30 22:38:00,
2013-06-30 18:39:00,75.4,61.9,29.83,WNW,297,5.0,10.0,63,0.00,,---,0.28,VWS V14.01,2013-06-30 22:39:00,
2013-06-30 18:40:00,75.3,62.7,29.83,NE,37,4.0,10.0,65,0.00,,---,0.28,VWS V14.01,2013-06-30 22:40:00,
2013-06-30 18:41:00,75.3,61.4,29.83,NE,47,4.0,10.0,62,0.00,,---,0.28,VWS V14.01,2013-06-30 22:41:00,
2013-06-30 18:42:00,75.3,60.9,29.83,NNW,335,3.0,10.0,61,0.00,,---,0.28,VWS V14.01,2013-06-30 22:42:00,
2013-06-30 18:43:00,75.3,61.4,29.83,WNW,295,1.0,10.0,62,0.00,,---,0.28,VWS V14.01,2013-06-30 22:43:00,
2013-06-30 18:44:00,75.4,61.5,29.83,NW,304,3.0,10.0,62,0.00,,---,0.28,VWS V14.01,2013-06-30 22:44:00,
2013-06-30 18:45:00,75.4,61.5,29.83,NNW,333,6.0,11.0,62,0.00,,---,0.28,VWS V14.01,2013-06-30 22:45:00,
2013-06-30 18:46:00,75.4,61.5,29.83,North,356,3.0,11.0,62,0.00,,---,0.28,VWS V14.01,2013-06-30 22:46:00,
2013-06-30 18:47:00,75.4,61.0,29.83,NW,322,5.0,11.0,61,0.00,,---,0.28,VWS V14.01,2013-06-30 22:47:00,
2013-06-30 18:48:00,75.4,61.0,29.83,NW,309,1.0,11.0,61,0.00,,---,0.28,VWS V14.01,2013-06-30 22:48:00,
2013-06-30 18:49:00,75.5,61.6,29.83,NNW,345,2.0,11.0,62,0.00,,---,0.28,VWS V14.01,2013-06-30 22:49:00,
2013-06-30 18:50:00,75.5,61.6,29.83,North,1,2.0,11.0,62,0.00,,---,0.28,VWS V14.01,2013-06-30 22:50:00,
2013-06-30 18:51:00,75.6,62.6,29.83,North,11,1.0,11.0,64,0.00,,---,0.28,VWS V14.01,2013-06-30 22:51:00,
2013-06-30 18:52:00,75.6,61.7,29.83,NNE,20,4.0,11.0,62,0.00,,---,0.28,VWS V14.01,2013-06-30 22:52:00,
2013-06-30 18:53:00,75.6,61.2,29.83,NE,55,6.0,11.0,61,0.00,,---,0.28,VWS V14.01,2013-06-30 22:53:00,
2013-06-30 18:54:00,75.5,61.1,29.83,SW,222,2.0,11.0,61,0.00,,---,0.28,VWS V14.01,2013-06-30 22:54:00,
2013-06-30 18:55:00,75.5,61.1,29.83,North,360,3.0,11.0,61,0.00,,---,0.28,VWS V14.01,2013-06-30 22:55:00,
2013-06-30 18:56:00,75.5,61.1,29.83,NE,41,1.0,11.0,61,0.00,,---,0.28,VWS V14.01,2013-06-30 22:56:00,
2013-06-30 18:57:00,75.5,61.1,29.83,NW,312,1.0,11.0,61,0.00,,---,0.28,VWS V14.01,2013-06-30 22:57:00,
2013-06-30 18:58:00,75.5,61.1,29.83,SE,127,4.0,11.0,61,0.00,,---,0.28,VWS V14.01,2013-06-30 22:58:00,
2013-06-30 18:59:00,75.5,62.0,29.84,NNW,327,3.0,11.0,63,0.00,,---,0.28,VWS V14.01,2013-06-30 22:59:00,
2013-06-30 19:00:00,75.5,61.1,29.84,West,278,1.0,11.0,61,0.00,,---,0.28,VWS V14.01,2013-06-30 23:00:00,
2013-06-30 19:01:00,75.5,61.6,29.83,NNW,330,2.0,3.0,62,0.00,,---,0.28,VWS V14.01,2013-06-30 23:01:00,
2013-06-30 19:02:00,75.4,61.0,29.84,NW,304,0.0,3.0,61,0.00,,---,0.28,VWS V14.01,2013-06-30 23:02:00,
2013-06-30 19:03:00,75.3,60.9,29.84,SW,232,1.0,3.0,61,0.00,,---,0.28,VWS V14.01,2013-06-30 23:03:00,
2013-06-30 19:04:00,75.2,61.3,29.83,ENE,61,5.0,5.0,62,0.00,,---,0.28,VWS V14.01,2013-06-30 23:04:00,
2013-06-30 19:05:00,75.2,61.3,29.84,NW,315,0.0,5.0,62,0.00,,---,0.28,VWS V14.01,2013-06-30 23:05:00,
2013-06-30 19:06:00,75.1,60.8,29.84,NE,49,5.0,5.0,61,0.00,,---,0.28,VWS V14.01,2013-06-30 23:06:00,
2013-06-30 19:07:00,75.0,60.7,29.84,WNW,285,2.0,6.0,61,0.00,,---,0.28,VWS V14.01,2013-06-30 23:07:00,
2013-06-30 19:08:00,74.9,61.5,29.84,NW,316,2.0,6.0,63,0.00,,---,0.28,VWS V14.01,2013-06-30 23:08:00,
2013-06-30 19:09:00,74.9,61.0,29.84,NW,325,1.0,6.0,62,0.00,,---,0.28,VWS V14.01,2013-06-30 23:09:00,
2013-06-30 19:10:00,74.8,61.4,29.84,NW,310,1.0,6.0,63,0.00,,---,0.28,VWS V14.01,2013-06-30 23:10:00,
2013-06-30 19:11:00,74.7,61.3,29.84,SW,215,1.0,6.0,63,0.00,,---,0.28,VWS V14.01,2013-06-30 23:11:00,
2013-06-30 19:12:00,74.6,60.7,29.84,SW,215,0.0,6.0,62,0.00,,---,0.28,VWS V14.01,2013-06-30 23:12:00,
2013-06-30 19:13:00,74.5,61.1,29.84,North,9,5.0,8.0,63,0.00,,---,0.28,VWS V14.01,2013-06-30 23:13:00,
2013-06-30 19:14:00,74.5,61.1,29.84,ENE,60,4.0,8.0,63,0.00,,---,0.28,VWS V14.01,2013-06-30 23:14:00,
2013-06-30 19:15:00,74.4,61.0,29.84,NNE,32,4.0,8.0,63,0.00,,---,0.28,VWS V14.01,2013-06-30 23:15:00,
2013-06-30 19:16:00,74.3,61.8,29.84,NNW,343,2.0,8.0,65,0.00,,---,0.28,VWS V14.01,2013-06-30 23:16:00,
2013-06-30 19:17:00,74.2,60.8,29.84,ENE,77,3.0,8.0,63,0.00,,---,0.28,VWS V14.01,2013-06-30 23:17:00,
2013-06-30 19:18:00,74.1,60.7,29.84,NE,51,3.0,8.0,63,0.00,,---,0.28,VWS V14.01,2013-06-30 23:18:00,
2013-06-30 19:19:00,74.1,61.2,29.84,North,352,1.0,8.0,64,0.00,,---,0.28,VWS V14.01,2013-06-30 23:19:00,
2013-06-30 19:20:00,74.0,61.1,29.84,NNE,32,1.0,8.0,64,0.00,,---,0.28,VWS V14.01,2013-06-30 23:20:00,
2013-06-30 19:21:00,74.0,61.5,29.84,NW,319,1.0,8.0,65,0.00,,---,0.28,VWS V14.01,2013-06-30 23:21:00,
2013-06-30 19:22:00,73.9,61.0,29.84,North,356,1.0,8.0,64,0.00,,---,0.28,VWS V14.01,2013-06-30 23:22:00,
2013-06-30 19:23:00,73.9,61.0,29.84,NNW,340,0.0,8.0,64,0.00,,---,0.28,VWS V14.01,2013-06-30 23:23:00,
2013-06-30 19:24:00,73.9,61.0,29.84,NE,39,2.0,8.0,64,0.00,,---,0.28,VWS V14.01,2013-06-30 23:24:00,
2013-06-30 19:25:00,73.9,61.0,29.84,NNE,20,3.0,8.0,64,0.00,,---,0.28,VWS V14.01,2013-06-30 23:25:00,
2013-06-30 19:26:00,73.8,60.9,29.84,ENE,60,1.0,8.0,64,0.00,,---,0.28,VWS V14.01,2013-06-30 23:26:00,
2013-06-30 19:27:00,73.8,60.9,29.84,ENE,68,4.0,8.0,64,0.00,,---,0.28,VWS V14.01,2013-06-30 23:27:00,
2013-06-30 19:28:00,73.8,60.9,29.84,NNW,345,4.0,8.0,64,0.00,,---,0.28,VWS V14.01,2013-06-30 23:28:00,
2013-06-30 19:29:00,73.7,60.8,29.84,SSE,155,1.0,8.0,64,0.00,,---,0.28,VWS V14.01,2013-06-30 23:29:00,
2013-06-30 19:30:00,73.7,61.2,29.84,NW,325,1.0,8.0,65,0.00,,---,0.28,VWS V14.01,2013-06-30 23:30:00,
2013-06-30 19:31:00,73.6,61.5,29.84,NNE,15,2.0,5.0,66,0.00,,---,0.28,VWS V14.01,2013-06-30 23:31:00,
2013-06-30 19:32:00,73.5,61.0,29.84,North,352,2.0,5.0,65,0.00,,---,0.28,VWS V14.01,2013-06-30 23:32:00,
2013-06-30 19:33:00,73.5,61.0,29.84,NE,41,2.0,5.0,65,0.00,,---,0.28,VWS V14.01,2013-06-30 23:33:00,
2013-06-30 19:34:00,73.4,60.9,29.84,NW,312,1.0,5.0,65,0.00,,---,0.28,VWS V14.01,2013-06-30 23:34:00,
2013-06-30 19:35:00,73.4,60.9,29.84,NNE,30,1.0,5.0,65,0.00,,---,0.28,VWS V14.01,2013-06-30 23:35:00,
2013-06-30 19:36:00,73.3,61.3,29.84,NNE,26,3.0,5.0,66,0.00,,---,0.28,VWS V14.01,2013-06-30 23:36:00,
2013-06-30 19:37:00,73.3,60.8,29.85,NE,45,2.0,5.0,65,0.00,,---,0.28,VWS V14.01,2013-06-30 23:37:00,
2013-06-30 19:38:00,73.2,61.2,29.85,East,84,1.0,5.0,66,0.00,,---,0.28,VWS V14.01,2013-06-30 23:38:00,
2013-06-30 19:39:00,73.2,61.2,29.84,North,356,1.0,5.0,66,0.00,,---,0.28,VWS V14.01,2013-06-30 23:39:00,
2013-06-30 19:40:00,73.2,61.2,29.85,North,356,0.0,5.0,66,0.00,,---,0.28,VWS V14.01,2013-06-30 23:40:00,
2013-06-30 19:41:00,73.1,61.1,29.85,NNE,16,1.0,5.0,66,0.00,,---,0.28,VWS V14.01,2013-06-30 23:41:00,
2013-06-30 19:42:00,73.1,61.1,29.85,SW,218,1.0,5.0,66,0.00,,---,0.28,VWS V14.01,2013-06-30 23:42:00,
2013-06-30 19:43:00,73.1,61.1,29.85,North,9,3.0,5.0,66,0.00,,---,0.28,VWS V14.01,2013-06-30 23:43:00,
2013-06-30 19:44:00,73.0,61.4,29.85,NE,41,3.0,5.0,67,0.00,,---,0.28,VWS V14.01,2013-06-30 23:44:00,
2013-06-30 19:45:00,72.9,61.3,29.85,NNE,22,1.0,5.0,67,0.00,,---,0.28,VWS V14.01,2013-06-30 23:45:00,
2013-06-30 19:46:00,72.9,61.3,29.85,North,4,0.0,5.0,67,0.00,,---,0.28,VWS V14.01,2013-06-30 23:46:00,
2013-06-30 19:47:00,72.8,61.2,29.85,ESE,111,0.0,5.0,67,0.00,,---,0.28,VWS V14.01,2013-06-30 23:47:00,
2013-06-30 19:48:00,72.8,61.6,29.85,ESE,110,0.0,5.0,68,0.00,,---,0.28,VWS V14.01,2013-06-30 23:48:00,
2013-06-30 19:49:00,72.7,61.5,29.85,NNW,347,2.0,5.0,68,0.00,,---,0.28,VWS V14.01,2013-06-30 23:49:00,
2013-06-30 19:50:00,72.6,61.4,29.85,NNW,329,1.0,5.0,68,0.00,,---,0.28,VWS V14.01,2013-06-30 23:50:00,
2013-06-30 19:51:00,72.6,61.4,29.85,NNW,329,1.0,5.0,68,0.00,,---,0.28,VWS V14.01,2013-06-30 23:51:00,
2013-06-30 19:52:00,72.5,61.3,29.85,ENE,58,2.0,5.0,68,0.00,,---,0.28,VWS V14.01,2013-06-30 23:52:00,
2013-06-30 19:53:00,72.4,61.2,29.85,ENE,58,0.0,5.0,68,0.00,,---,0.28,VWS V14.01,2013-06-30 23:53:00,
2013-06-30 19:54:00,72.4,61.2,29.85,ENE,58,0.0,5.0,68,0.00,,---,0.28,VWS V14.01,2013-06-30 23:54:00,
2013-06-30 19:55:00,72.4,61.7,29.85,NE,55,1.0,5.0,69,0.00,,---,0.28,VWS V14.01,2013-06-30 23:55:00,
2013-06-30 19:56:00,72.3,61.6,29.85,NNW,336,1.0,5.0,69,0.00,,---,0.28,VWS V14.01,2013-06-30 23:56:00,
2013-06-30 19:57:00,72.3,61.6,29.85,NNE,23,1.0,5.0,69,0.00,,---,0.28,VWS V14.01,2013-06-30 23:57:00,
2013-06-30 19:58:00,72.2,61.5,29.85,NNW,339,0.0,5.0,69,0.00,,---,0.28,VWS V14.01,2013-06-30 23:58:00,
2013-06-30 19:59:00,72.1,61.4,29.85,NNW,339,0.0,5.0,69,0.00,,---,0.28,VWS V14.01,2013-06-30 23:59:00,
2013-06-30 20:00:00,72.1,61.4,29.85,NNW,339,0.0,5.0,69,0.00,,---,0.28,VWS V14.01,2013-07-01 00:00:00,
2013-06-30 20:01:00,72.0,61.7,29.85,NNW,338,0.0,1.0,70,0.00,,---,0.28,VWS V14.01,2013-07-01 00:01:00,
2013-06-30 20:02:00,72.0,61.7,29.85,North,350,0.0,1.0,70,0.00,,---,0.28,VWS V14.01,2013-07-01 00:02:00,
2013-06-30 20:03:00,71.9,62.0,29.85,NNW,345,2.0,3.0,71,0.00,,---,0.28,VWS V14.01,2013-07-01 00:03:00,
2013-06-30 20:04:00,71.8,61.9,29.85,NNW,335,1.0,3.0,71,0.00,,---,0.28,VWS V14.01,2013-07-01 00:04:00,
2013-06-30 20:05:00,71.7,61.8,29.86,NNW,340,1.0,5.0,71,0.00,,---,0.28,VWS V14.01,2013-07-01 00:05:00,
2013-06-30 20:06:00,71.6,61.3,29.86,NNW,340,1.0,5.0,70,0.00,,---,0.28,VWS V14.01,2013-07-01 00:06:00,
2013-06-30 20:07:00,71.6,61.7,29.86,NNW,335,1.0,5.0,71,0.00,,---,0.28,VWS V14.01,2013-07-01 00:07:00,
2013-06-30 20:08:00,71.5,61.6,29.86,NNW,335,1.0,5.0,71,0.00,,---,0.28,VWS V14.01,2013-07-01 00:08:00,
2013-06-30 20:09:00,71.4,61.9,29.86,NNW,330,2.0,5.0,72,0.00,,---,0.28,VWS V14.01,2013-07-01 00:09:00,
2013-06-30 20:10:00,71.4,61.5,29.86,NW,326,1.0,5.0,71,0.00,,---,0.28,VWS V14.01,2013-07-01 00:10:00,
2013-06-30 20:11:00,71.3,61.8,29.86,North,4,1.0,5.0,72,0.00,,---,0.28,VWS V14.01,2013-07-01 00:11:00,
2013-06-30 20:12:00,71.2,61.7,29.86,North,1,0.0,5.0,72,0.00,,---,0.28,VWS V14.01,2013-07-01 00:12:00,
2013-06-30 20:13:00,71.2,61.7,29.86,NW,304,2.0,5.0,72,0.00,,---,0.28,VWS V14.01,2013-07-01 00:13:00,
2013-06-30 20:14:00,71.1,61.6,29.86,NW,315,1.0,5.0,72,0.00,,---,0.28,VWS V14.01,2013-07-01 00:14:00,
2013-06-30 20:15:00,71.1,61.6,29.86,NW,315,0.0,5.0,72,0.00,,---,0.28,VWS V14.01,2013-07-01 00:15:00,
2013-06-30 20:16:00,71.1,62.0,29.86,NW,315,0.0,5.0,73,0.00,,---,0.28,VWS V14.01,2013-07-01 00:16:00,
2013-06-30 20:17:00,71.0,61.9,29.86,North,5,3.0,5.0,73,0.00,,---,0.28,VWS V14.01,2013-07-01 00:17:00,
2013-06-30 20:18:00,71.0,61.9,29.86,NNW,346,1.0,5.0,73,0.00,,---,0.28,VWS V14.01,2013-07-01 00:18:00,
2013-06-30 20:19:00,70.9,61.8,29.86,NNE,12,0.0,5.0,73,0.00,,---,0.28,VWS V14.01,2013-07-01 00:19:00,
2013-06-30 20:20:00,70.9,61.8,29.86,NNE,12,0.0,5.0,73,0.00,,---,0.28,VWS V14.01,2013-07-01 00:20:00,
2013-06-30 20:21:00,70.9,61.8,29.86,NNE,12,0.0,5.0,73,0.00,,---,0.28,VWS V14.01,2013-07-01 00:21:00,
2013-06-30 20:22:00,70.9,61.8,29.86,North,11,0.0,5.0,73,0.00,,---,0.28,VWS V14.01,2013-07-01 00:22:00,
2013-06-30 20:23:00,70.9,62.2,29.86,North,6,0.0,5.0,74,0.00,,---,0.28,VWS V14.01,2013-07-01 00:23:00,
2013-06-30 20:24:00,70.8,61.7,29.86,North,6,0.0,5.0,73,0.00,,---,0.28,VWS V14.01,2013-07-01 00:24:00,
2013-06-30 20:25:00,70.8,62.1,29.86,North,6,0.0,5.0,74,0.00,,---,0.28,VWS V14.01,2013-07-01 00:25:00,
2013-06-30 20:26:00,70.7,61.6,29.86,NNE,22,2.0,5.0,73,0.00,,---,0.28,VWS V14.01,2013-07-01 00:26:00,
2013-06-30 20:27:00,70.7,62.0,29.86,NNE,22,0.0,5.0,74,0.00,,---,0.28,VWS V14.01,2013-07-01 00:27:00,
2013-06-30 20:28:00,70.6,61.9,29.86,NNE,22,0.0,5.0,74,0.00,,---,0.28,VWS V14.01,2013-07-01 00:28:00,
2013-06-30 20:29:00,70.6,61.9,29.86,ENE,60,2.0,5.0,74,0.00,,---,0.28,VWS V14.01,2013-07-01 00:29:00,
2013-06-30 20:30:00,70.6,61.9,29.86,NE,56,0.0,5.0,74,0.00,,---,0.28,VWS V14.01,2013-07-01 00:30:00,
2013-06-30 20:31:00,70.6,62.3,29.86,NW,311,0.0,1.0,75,0.00,,---,0.28,VWS V14.01,2013-07-01 00:31:00,
2013-06-30 20:32:00,70.5,62.2,29.86,NW,311,0.0,1.0,75,0.00,,---,0.28,VWS V14.01,2013-07-01 00:32:00,
2013-06-30 20:33:00,70.5,61.8,29.86,NW,311,0.0,1.0,74,0.00,,---,0.28,VWS V14.01,2013-07-01 00:33:00,
2013-06-30 20:34:00,70.4,62.1,29.86,NW,311,0.0,1.0,75,0.00,,---,0.28,VWS V14.01,2013-07-01 00:34:00,
2013-06-30 20:35:00,70.4,62.1,29.86,NW,311,0.0,1.0,75,0.00,,---,0.28,VWS V14.01,2013-07-01 00:35:00,
2013-06-30 20:36:00,70.4,62.1,29.86,NW,311,0.0,1.0,75,0.00,,---,0.28,VWS V14.01,2013-07-01 00:36:00,
2013-06-30 20:37:00,70.3,62.0,29.86,NW,311,0.0,1.0,75,0.00,,---,0.28,VWS V14.01,2013-07-01 00:37:00,
2013-06-30 20:38:00,70.3,62.0,29.86,NW,311,0.0,1.0,75,0.00,,---,0.28,VWS V14.01,2013-07-01 00:38:00,
2013-06-30 20:39:00,70.3,62.0,29.86,NE,56,1.0,2.0,75,0.00,,---,0.28,VWS V14.01,2013-07-01 00:39:00,
2013-06-30 20:40:00,70.3,62.0,29.86,NE,56,0.0,2.0,75,0.00,,---,0.28,VWS V14.01,2013-07-01 00:40:00,
2013-06-30 20:41:00,70.2,61.9,29.86,NE,56,0.0,2.0,75,0.00,,---,0.28,VWS V14.01,2013-07-01 00:41:00,
2013-06-30 20:42:00,70.2,61.9,29.87,ENE,65,0.0,2.0,75,0.00,,---,0.28,VWS V14.01,2013-07-01 00:42:00,
2013-06-30 20:43:00,70.2,61.9,29.87,ENE,68,0.0,2.0,75,0.00,,---,0.28,VWS V14.01,2013-07-01 00:43:00,
2013-06-30 20:44:00,70.2,61.9,29.87,ENE,68,0.0,2.0,75,0.00,,---,0.28,VWS V14.01,2013-07-01 00:44:00,
2013-06-30 20:45:00,70.2,62.3,29.87,ENE,68,0.0,2.0,76,0.00,,---,0.28,VWS V14.01,2013-07-01 00:45:00,
2013-06-30 20:46:00,70.2,62.3,29.87,ENE,68,0.0,2.0,76,0.00,,---,0.28,VWS V14.01,2013-07-01 00:46:00,
2013-06-30 20:47:00,70.1,62.2,29.87,SSW,194,0.0,2.0,76,0.00,,---,0.28,VWS V14.01,2013-07-01 00:47:00,
2013-06-30 20:48:00,70.1,62.2,29.86,SSW,194,0.0,2.0,76,0.00,,---,0.28,VWS V14.01,2013-07-01 00:48:00,
2013-06-30 20:49:00,70.0,62.1,29.86,SSW,194,0.0,2.0,76,0.00,,---,0.28,VWS V14.01,2013-07-01 00:49:00,
2013-06-30 20:50:00,69.9,62.0,29.87,SSW,193,1.0,2.0,76,0.00,,---,0.28,VWS V14.01,2013-07-01 00:50:00,
2013-06-30 20:51:00,69.9,62.0,29.86,SSW,193,0.0,2.0,76,0.00,,---,0.28,VWS V14.01,2013-07-01 00:51:00,
2013-06-30 20:52:00,69.9,62.4,29.87,SSW,193,0.0,2.0,77,0.00,,---,0.28,VWS V14.01,2013-07-01 00:52:00,
2013-06-30 20:53:00,69.8,62.3,29.87,South,191,0.0,2.0,77,0.00,,---,0.28,VWS V14.01,2013-07-01 00:53:00,
2013-06-30 20:54:00,69.8,62.3,29.87,South,191,0.0,2.0,77,0.00,,---,0.28,VWS V14.01,2013-07-01 00:54:00,
2013-06-30 20:55:00,69.7,62.2,29.87,South,191,0.0,2.0,77,0.00,,---,0.28,VWS V14.01,2013-07-01 00:55:00,
2013-06-30 20:56:00,69.7,62.2,29.87,South,191,0.0,2.0,77,0.00,,---,0.28,VWS V14.01,2013-07-01 00:56:00,
2013-06-30 20:57:00,69.7,62.2,29.87,ESE,109,0.0,2.0,77,0.00,,---,0.28,VWS V14.01,2013-07-01 00:57:00,
2013-06-30 20:58:00,69.6,62.1,29.87,ESE,108,0.0,2.0,77,0.00,,---,0.28,VWS V14.01,2013-07-01 00:58:00,
2013-06-30 20:59:00,69.6,62.1,29.87,East,101,0.0,2.0,77,0.00,,---,0.28,VWS V14.01,2013-07-01 00:59:00,
2013-06-30 21:00:00,69.6,62.4,29.87,ESE,102,0.0,2.0,78,0.00,,---,0.28,VWS V14.01,2013-07-01 01:00:00,
2013-06-30 21:01:00,69.6,62.4,29.87,ESE,102,0.0,1.0,78,0.00,,---,0.28,VWS V14.01,2013-07-01 01:01:00,
2013-06-30 21:02:00,69.5,62.3,29.87,ESE,102,0.0,1.0,78,0.00,,---,0.28,VWS V14.01,2013-07-01 01:02:00,
2013-06-30 21:03:00,69.5,62.3,29.87,East,101,0.0,1.0,78,0.00,,---,0.28,VWS V14.01,2013-07-01 01:03:00,
2013-06-30 21:04:00,69.4,62.2,29.87,East,101,0.0,1.0,78,0.00,,---,0.28,VWS V14.01,2013-07-01 01:04:00,
2013-06-30 21:05:00,69.3,62.2,29.87,North,359,1.0,2.0,78,0.00,,---,0.28,VWS V14.01,2013-07-01 01:05:00,
2013-06-30 21:06:00,69.3,62.2,29.87,North,360,0.0,2.0,78,0.00,,---,0.28,VWS V14.01,2013-07-01 01:06:00,
2013-06-30 21:07:00,69.3,62.2,29.87,North,360,0.0,2.0,78,0.00,,---,0.28,VWS V14.01,2013-07-01 01:07:00,
2013-06-30 21:08:00,69.2,62.4,29.87,North,359,0.0,2.0,79,0.00,,---,0.28,VWS V14.01,2013-07-01 01:08:00,
2013-06-30 21:09:00,69.2,62.4,29.87,North,359,0.0,2.0,79,0.00,,---,0.28,VWS V14.01,2013-07-01 01:09:00,
2013-06-30 21:10:00,69.1,62.3,29.87,North,1,0.0,2.0,79,0.00,,---,0.28,VWS V14.01,2013-07-01 01:10:00,
2013-06-30 21:11:00,69.1,62.3,29.87,North,359,0.0,2.0,79,0.00,,---,0.28,VWS V14.01,2013-07-01 01:11:00,
2013-06-30 21:12:00,69.0,62.2,29.87,North,360,0.0,2.0,79,0.00,,---,0.28,VWS V14.01,2013-07-01 01:12:00,
2013-06-30 21:13:00,68.9,62.1,29.87,North,359,0.0,2.0,79,0.00,,---,0.28,VWS V14.01,2013-07-01 01:13:00,
2013-06-30 21:14:00,68.9,62.5,29.87,North,359,0.0,2.0,80,0.00,,---,0.28,VWS V14.01,2013-07-01 01:14:00,
2013-06-30 21:15:00,68.8,62.4,29.87,North,358,0.0,2.0,80,0.00,,---,0.28,VWS V14.01,2013-07-01 01:15:00,
2013-06-30 21:16:00,68.7,62.3,29.87,NNE,22,0.0,2.0,80,0.00,,---,0.28,VWS V14.01,2013-07-01 01:16:00,
2013-06-30 21:17:00,68.6,62.2,29.87,NNE,20,0.0,2.0,80,0.00,,---,0.28,VWS V14.01,2013-07-01 01:17:00,
2013-06-30 21:18:00,68.6,62.2,29.87,NNE,20,0.0,2.0,80,0.00,,---,0.28,VWS V14.01,2013-07-01 01:18:00,
2013-06-30 21:19:00,68.6,62.2,29.87,NNE,20,0.0,2.0,80,0.00,,---,0.28,VWS V14.01,2013-07-01 01:19:00,
2013-06-30 21:20:00,68.5,62.5,29.87,NNE,20,0.0,2.0,81,0.00,,---,0.28,VWS V14.01,2013-07-01 01:20:00,
2013-06-30 21:21:00,68.5,62.5,29.87,NNE,20,0.0,2.0,81,0.00,,---,0.28,VWS V14.01,2013-07-01 01:21:00,
2013-06-30 21:22:00,68.4,62.3,29.87,NNE,22,0.0,2.0,81,0.00,,---,0.28,VWS V14.01,2013-07-01 01:22:00,
2013-06-30 21:23:00,68.3,62.6,29.87,NNE,20,0.0,2.0,82,0.00,,---,0.28,VWS V14.01,2013-07-01 01:23:00,
2013-06-30 21:24:00,68.2,62.5,29.88,NNE,20,0.0,2.0,82,0.00,,---,0.28,VWS V14.01,2013-07-01 01:24:00,
2013-06-30 21:25:00,68.2,62.5,29.88,NNE,20,0.0,2.0,82,0.00,,---,0.28,VWS V14.01,2013-07-01 01:25:00,
2013-06-30 21:26:00,68.1,62.4,29.88,NNE,20,0.0,2.0,82,0.00,,---,0.28,VWS V14.01,2013-07-01 01:26:00,
2013-06-30 21:27:00,68.0,62.3,29.88,NNE,22,0.0,2.0,82,0.00,,---,0.28,VWS V14.01,2013-07-01 01:27:00,
2013-06-30 21:28:00,68.0,62.3,29.88,NNE,20,0.0,2.0,82,0.00,,---,0.28,VWS V14.01,2013-07-01 01:28:00,
2013-06-30 21:29:00,67.9,62.2,29.88,NNE,22,0.0,2.0,82,0.00,,---,0.28,VWS V14.01,2013-07-01 01:29:00,
2013-06-30 21:30:00,67.9,62.2,29.88,NNE,20,0.0,2.0,82,0.00,,---,0.28,VWS V14.01,2013-07-01 01:30:00,
2013-06-30 21:31:00,67.9,62.5,29.88,NNE,20,0.0,0.0,83,0.00,,---,0.28,VWS V14.01,2013-07-01 01:31:00,
2013-06-30 21:32:00,67.8,62.5,29.88,NNE,20,0.0,0.0,83,0.00,,---,0.28,VWS V14.01,2013-07-01 01:32:00,
2013-06-30 21:33:00,67.8,62.5,29.88,NNE,22,0.0,1.0,83,0.00,,---,0.28,VWS V14.01,2013-07-01 01:33:00,
2013-06-30 21:34:00,67.7,62.4,29.88,NNE,20,0.0,1.0,83,0.00,,---,0.28,VWS V14.01,2013-07-01 01:34:00,
2013-06-30 21:35:00,67.7,62.4,29.88,NNE,22,0.0,1.0,83,0.00,,---,0.28,VWS V14.01,2013-07-01 01:35:00,
2013-06-30 21:36:00,67.7,62.4,29.88,NNE,20,0.0,1.0,83,0.00,,---,0.28,VWS V14.01,2013-07-01 01:36:00,
2013-06-30 21:37:00,67.7,62.4,29.88,NNE,20,0.0,1.0,83,0.00,,---,0.28,VWS V14.01,2013-07-01 01:37:00,
2013-06-30 21:38:00,67.7,62.4,29.88,NNE,20,0.0,1.0,83,0.00,,---,0.28,VWS V14.01,2013-07-01 01:38:00,
2013-06-30 21:39:00,67.7,62.4,29.88,NNE,20,0.0,1.0,83,0.00,,---,0.28,VWS V14.01,2013-07-01 01:39:00,
2013-06-30 21:40:00,67.7,62.4,29.88,NNE,20,0.0,1.0,83,0.00,,---,0.28,VWS V14.01,2013-07-01 01:40:00,
2013-06-30 21:41:00,67.7,62.4,29.88,NNE,20,0.0,1.0,83,0.00,,---,0.28,VWS V14.01,2013-07-01 01:41:00,
2013-06-30 21:42:00,67.7,62.4,29.88,NNE,20,0.0,1.0,83,0.00,,---,0.28,VWS V14.01,2013-07-01 01:42:00,
2013-06-30 21:43:00,67.7,62.4,29.88,NNE,20,0.0,1.0,83,0.00,,---,0.28,VWS V14.01,2013-07-01 01:43:00,
2013-06-30 21:44:00,67.7,62.7,29.88,NNE,20,0.0,1.0,84,0.00,,---,0.28,VWS V14.01,2013-07-01 01:44:00,
2013-06-30 21:45:00,67.7,62.7,29.88,NNE,20,0.0,1.0,84,0.00,,---,0.28,VWS V14.01,2013-07-01 01:45:00,
2013-06-30 21:46:00,67.6,62.6,29.88,NNE,20,0.0,1.0,84,0.00,,---,0.28,VWS V14.01,2013-07-01 01:46:00,
2013-06-30 21:47:00,67.6,62.6,29.88,NNE,20,0.0,1.0,84,0.00,,---,0.28,VWS V14.01,2013-07-01 01:47:00,
2013-06-30 21:48:00,67.5,62.5,29.88,NNE,20,0.0,1.0,84,0.00,,---,0.28,VWS V14.01,2013-07-01 01:48:00,
2013-06-30 21:49:00,67.5,62.5,29.88,NNE,20,0.0,1.0,84,0.00,,---,0.28,VWS V14.01,2013-07-01 01:49:00,
2013-06-30 21:50:00,67.4,62.4,29.88,NNE,20,0.0,1.0,84,0.00,,---,0.28,VWS V14.01,2013-07-01 01:50:00,
2013-06-30 21:51:00,67.4,62.4,29.88,NNE,20,0.0,1.0,84,0.00,,---,0.28,VWS V14.01,2013-07-01 01:51:00,
2013-06-30 21:52:00,67.3,62.3,29.88,NNE,20,0.0,1.0,84,0.00,,---,0.28,VWS V14.01,2013-07-01 01:52:00,
2013-06-30 21:53:00,67.3,62.3,29.88,NNE,20,0.0,1.0,84,0.00,,---,0.28,VWS V14.01,2013-07-01 01:53:00,
2013-06-30 21:54:00,67.3,62.3,29.88,NNE,20,0.0,1.0,84,0.00,,---,0.28,VWS V14.01,2013-07-01 01:54:00,
2013-06-30 21:55:00,67.2,62.2,29.88,NNE,20,0.0,1.0,84,0.00,,---,0.28,VWS V14.01,2013-07-01 01:55:00,
2013-06-30 21:56:00,67.2,62.2,29.88,NNE,20,0.0,1.0,84,0.00,,---,0.28,VWS V14.01,2013-07-01 01:56:00,
2013-06-30 21:57:00,67.1,62.5,29.88,NNE,20,0.0,1.0,85,0.00,,---,0.28,VWS V14.01,2013-07-01 01:57:00,
2013-06-30 21:58:00,67.1,62.5,29.88,NNE,20,0.0,1.0,85,0.00,,---,0.28,VWS V14.01,2013-07-01 01:58:00,
2013-06-30 21:59:00,67.1,62.5,29.88,NNE,15,0.0,1.0,85,0.00,,---,0.28,VWS V14.01,2013-07-01 01:59:00,
2013-06-30 22:00:00,67.1,62.5,29.88,NNE,15,0.0,1.0,85,0.00,,---,0.28,VWS V14.01,2013-07-01 02:00:00,
2013-06-30 22:01:00,67.1,62.5,29.88,NNE,15,0.0,0.0,85,0.00,,---,0.28,VWS V14.01,2013-07-01 02:01:00,
2013-06-30 22:02:00,67.0,62.3,29.88,NNE,15,0.0,1.0,85,0.00,,---,0.28,VWS V14.01,2013-07-01 02:02:00,
2013-06-30 22:03:00,66.9,62.2,29.88,NNE,14,0.0,1.0,85,0.00,,---,0.28,VWS V14.01,2013-07-01 02:03:00,
2013-06-30 22:04:00,66.9,62.2,29.88,NNE,15,0.0,1.0,85,0.00,,---,0.28,VWS V14.01,2013-07-01 02:04:00,
2013-06-30 22:05:00,66.9,62.6,29.88,NNE,15,0.0,1.0,86,0.00,,---,0.28,VWS V14.01,2013-07-01 02:05:00,
2013-06-30 22:06:00,66.9,62.6,29.88,NNE,15,0.0,1.0,86,0.00,,---,0.28,VWS V14.01,2013-07-01 02:06:00,
2013-06-30 22:07:00,66.8,62.5,29.88,NNE,14,0.0,1.0,86,0.00,,---,0.28,VWS V14.01,2013-07-01 02:07:00,
2013-06-30 22:08:00,66.8,62.5,29.88,NNE,15,0.0,1.0,86,0.00,,---,0.28,VWS V14.01,2013-07-01 02:08:00,
2013-06-30 22:09:00,66.7,62.4,29.88,NNE,14,0.0,1.0,86,0.00,,---,0.28,VWS V14.01,2013-07-01 02:09:00,
2013-06-30 22:10:00,66.7,62.4,29.88,NNE,15,0.0,1.0,86,0.00,,---,0.28,VWS V14.01,2013-07-01 02:10:00,
2013-06-30 22:11:00,66.7,62.4,29.88,NNE,26,1.0,1.0,86,0.00,,---,0.28,VWS V14.01,2013-07-01 02:11:00,
2013-06-30 22:12:00,66.7,62.4,29.88,NNW,346,1.0,2.0,86,0.00,,---,0.28,VWS V14.01,2013-07-01 02:12:00,
2013-06-30 22:13:00,66.7,62.4,29.88,NNW,347,0.0,2.0,86,0.00,,---,0.28,VWS V14.01,2013-07-01 02:13:00,
2013-06-30 22:14:00,66.7,62.4,29.88,NNW,347,0.0,2.0,86,0.00,,---,0.28,VWS V14.01,2013-07-01 02:14:00,
2013-06-30 22:15:00,66.8,62.5,29.88,NNW,347,0.0,2.0,86,0.00,,---,0.28,VWS V14.01,2013-07-01 02:15:00,
2013-06-30 22:16:00,66.7,62.4,29.88,NNW,347,0.0,2.0,86,0.00,,---,0.28,VWS V14.01,2013-07-01 02:16:00,
2013-06-30 22:17:00,66.7,62.4,29.88,NNW,347,0.0,2.0,86,0.00,,---,0.28,VWS V14.01,2013-07-01 02:17:00,
2013-06-30 22:18:00,66.7,62.4,29.88,NNW,347,0.0,2.0,86,0.00,,---,0.28,VWS V14.01,2013-07-01 02:18:00,
2013-06-30 22:19:00,66.7,62.4,29.88,NNW,347,0.0,2.0,86,0.00,,---,0.28,VWS V14.01,2013-07-01 02:19:00,
2013-06-30 22:20:00,66.7,62.4,29.88,NNW,346,0.0,2.0,86,0.00,,---,0.28,VWS V14.01,2013-07-01 02:20:00,
2013-06-30 22:21:00,66.7,62.4,29.88,NNW,345,0.0,2.0,86,0.00,,---,0.28,VWS V14.01,2013-07-01 02:21:00,
2013-06-30 22:22:00,66.7,62.4,29.88,NNW,347,0.0,2.0,86,0.00,,---,0.28,VWS V14.01,2013-07-01 02:22:00,
2013-06-30 22:23:00,66.8,62.5,29.88,NNW,335,3.0,3.0,86,0.00,,---,0.28,VWS V14.01,2013-07-01 02:23:00,
2013-06-30 22:24:00,66.8,62.5,29.89,NNW,344,2.0,3.0,86,0.00,,---,0.28,VWS V14.01,2013-07-01 02:24:00,
2013-06-30 22:25:00,66.9,62.6,29.89,NNW,343,1.0,3.0,86,0.00,,---,0.28,VWS V14.01,2013-07-01 02:25:00,
2013-06-30 22:26:00,67.0,62.7,29.89,NNW,343,0.0,3.0,86,0.00,,---,0.28,VWS V14.01,2013-07-01 02:26:00,
2013-06-30 22:27:00,67.1,62.8,29.89,NNW,343,0.0,3.0,86,0.00,,---,0.28,VWS V14.01,2013-07-01 02:27:00,
2013-06-30 22:28:00,67.1,62.8,29.89,NNW,342,0.0,3.0,86,0.00,,---,0.28,VWS V14.01,2013-07-01 02:28:00,
2013-06-30 22:29:00,67.1,62.8,29.89,NNW,327,0.0,3.0,86,0.00,,---,0.28,VWS V14.01,2013-07-01 02:29:00,
2013-06-30 22:30:00,67.0,62.7,29.89,North,359,1.0,3.0,86,0.00,,---,0.28,VWS V14.01,2013-07-01 02:30:00,
2013-06-30 22:31:00,67.0,62.7,29.89,North,356,0.0,2.0,86,0.00,,---,0.28,VWS V14.01,2013-07-01 02:31:00,
2013-06-30 22:32:00,67.0,62.3,29.89,NNE,20,3.0,4.0,85,0.00,,---,0.28,VWS V14.01,2013-07-01 02:32:00,
2013-06-30 22:33:00,67.0,62.7,29.89,North,8,1.0,4.0,86,0.00,,---,0.28,VWS V14.01,2013-07-01 02:33:00,
2013-06-30 22:34:00,67.0,62.3,29.89,NNW,339,2.0,4.0,85,0.00,,---,0.28,VWS V14.01,2013-07-01 02:34:00,
2013-06-30 22:35:00,67.0,62.3,29.89,NNW,335,1.0,4.0,85,0.00,,---,0.28,VWS V14.01,2013-07-01 02:35:00,
2013-06-30 22:36:00,67.0,62.3,29.89,NW,326,1.0,4.0,85,0.00,,---,0.28,VWS V14.01,2013-07-01 02:36:00,
2013-06-30 22:37:00,67.1,62.5,29.89,NNW,335,1.0,4.0,85,0.00,,---,0.28,VWS V14.01,2013-07-01 02:37:00,
2013-06-30 22:38:00,67.1,62.5,29.89,NNW,333,1.0,4.0,85,0.00,,---,0.28,VWS V14.01,2013-07-01 02:38:00,
2013-06-30 22:39:00,67.2,62.2,29.89,North,10,1.0,4.0,84,0.00,,---,0.28,VWS V14.01,2013-07-01 02:39:00,
2013-06-30 22:40:00,67.2,62.2,29.89,NW,318,2.0,4.0,84,0.00,,---,0.28,VWS V14.01,2013-07-01 02:40:00,
2013-06-30 22:41:00,67.3,62.3,29.89,North,352,2.0,4.0,84,0.00,,---,0.28,VWS V14.01,2013-07-01 02:41:00,
2013-06-30 22:42:00,67.3,62.3,29.89,NNW,338,3.0,4.0,84,0.00,,---,0.28,VWS V14.01,2013-07-01 02:42:00,
2013-06-30 22:43:00,67.3,62.3,29.89,North,352,2.0,4.0,84,0.00,,---,0.28,VWS V14.01,2013-07-01 02:43:00,
2013-06-30 22:44:00,67.4,62.1,29.89,NNW,328,2.0,4.0,83,0.00,,---,0.28,VWS V14.01,2013-07-01 02:44:00,
2013-06-30 22:45:00,67.5,62.2,29.89,NW,318,1.0,4.0,83,0.00,,---,0.28,VWS V14.01,2013-07-01 02:45:00,
2013-06-30 22:46:00,67.5,62.2,29.89,ENE,68,1.0,4.0,83,0.00,,---,0.28,VWS V14.01,2013-07-01 02:46:00,
2013-06-30 22:47:00,67.5,62.2,29.89,NNW,328,1.0,4.0,83,0.00,,---,0.28,VWS V14.01,2013-07-01 02:47:00,
2013-06-30 22:48:00,67.5,62.2,29.89,NNE,26,1.0,4.0,83,0.00,,---,0.28,VWS V14.01,2013-07-01 02:48:00,
2013-06-30 22:49:00,67.5,61.8,29.89,North,352,3.0,4.0,82,0.00,,---,0.28,VWS V14.01,2013-07-01 02:49:00,
2013-06-30 22:50:00,67.6,61.9,29.89,NW,323,3.0,4.0,82,0.00,,---,0.28,VWS V14.01,2013-07-01 02:50:00,
2013-06-30 22:51:00,67.6,61.9,29.89,NE,37,4.0,5.0,82,0.00,,---,0.28,VWS V14.01,2013-07-01 02:51:00,
2013-06-30 22:52:00,67.6,61.6,29.89,NW,319,3.0,5.0,81,0.00,,---,0.28,VWS V14.01,2013-07-01 02:52:00,
2013-06-30 22:53:00,67.7,61.7,29.89,NW,316,3.0,5.0,81,0.00,,---,0.28,VWS V14.01,2013-07-01 02:53:00,
2013-06-30 22:54:00,67.7,61.7,29.89,North,354,4.0,5.0,81,0.00,,---,0.28,VWS V14.01,2013-07-01 02:54:00,
2013-06-30 22:55:00,67.8,61.8,29.89,NNW,328,2.0,5.0,81,0.00,,---,0.28,VWS V14.01,2013-07-01 02:55:00,
2013-06-30 22:56:00,67.8,61.4,29.88,NNW,331,2.0,6.0,80,0.00,,---,0.28,VWS V14.01,2013-07-01 02:56:00,
2013-06-30 22:57:00,67.9,61.5,29.88,NNW,347,2.0,6.0,80,0.00,,---,0.28,VWS V14.01,2013-07-01 02:57:00,
2013-06-30 22:58:00,67.9,61.9,29.89,NNW,328,1.0,6.0,81,0.00,,---,0.28,VWS V14.01,2013-07-01 02:58:00,
2013-06-30 22:59:00,67.8,61.8,29.89,NNW,338,3.0,6.0,81,0.00,,---,0.28,VWS V14.01,2013-07-01 02:59:00,
2013-06-30 23:00:00,67.8,61.8,29.89,NNW,343,1.0,6.0,81,0.00,,---,0.28,VWS V14.01,2013-07-01 03:00:00,
2013-06-30 23:01:00,67.7,61.7,29.89,NW,325,3.0,3.0,81,0.00,,---,0.28,VWS V14.01,2013-07-01 03:01:00,
2013-06-30 23:02:00,67.8,61.4,29.89,NNW,339,4.0,4.0,80,0.00,,---,0.28,VWS V14.01,2013-07-01 03:02:00,
2013-06-30 23:03:00,67.8,61.4,29.89,NW,321,2.0,6.0,80,0.00,,---,0.28,VWS V14.01,2013-07-01 03:03:00,
2013-06-30 23:04:00,67.8,61.4,29.89,North,6,4.0,6.0,80,0.00,,---,0.28,VWS V14.01,2013-07-01 03:04:00,
2013-06-30 23:05:00,67.8,61.4,29.89,North,352,2.0,8.0,80,0.00,,---,0.28,VWS V14.01,2013-07-01 03:05:00,
2013-06-30 23:06:00,67.8,61.4,29.89,North,1,2.0,8.0,80,0.00,,---,0.28,VWS V14.01,2013-07-01 03:06:00,
2013-06-30 23:07:00,67.8,61.4,29.89,NNW,348,2.0,8.0,80,0.00,,---,0.28,VWS V14.01,2013-07-01 03:07:00,
2013-06-30 23:08:00,67.8,61.4,29.89,NNW,328,2.0,8.0,80,0.00,,---,0.28,VWS V14.01,2013-07-01 03:08:00,
2013-06-30 23:09:00,67.8,61.8,29.89,NW,305,2.0,8.0,81,0.00,,---,0.28,VWS V14.01,2013-07-01 03:09:00,
2013-06-30 23:10:00,67.7,61.3,29.89,NNW,335,2.0,8.0,80,0.00,,---,0.28,VWS V14.01,2013-07-01 03:10:00,
2013-06-30 23:11:00,67.7,61.3,29.89,North,355,2.0,8.0,80,0.00,,---,0.28,VWS V14.01,2013-07-01 03:11:00,
2013-06-30 23:12:00,67.7,61.3,29.89,NNW,345,1.0,8.0,80,0.00,,---,0.28,VWS V14.01,2013-07-01 03:12:00,
2013-06-30 23:13:00,67.6,61.2,29.89,NW,326,1.0,8.0,80,0.00,,---,0.28,VWS V14.01,2013-07-01 03:13:00,
2013-06-30 23:14:00,67.6,61.2,29.89,NNW,333,3.0,8.0,80,0.00,,---,0.28,VWS V14.01,2013-07-01 03:14:00,
2013-06-30 23:15:00,67.6,61.2,29.89,NNW,340,4.0,8.0,80,0.00,,---,0.28,VWS V14.01,2013-07-01 03:15:00,
2013-06-30 23:16:00,67.6,61.2,29.89,NNW,348,2.0,8.0,80,0.00,,---,0.28,VWS V14.01,2013-07-01 03:16:00,
2013-06-30 23:17:00,67.6,61.6,29.89,NNW,341,1.0,8.0,81,0.00,,---,0.28,VWS V14.01,2013-07-01 03:17:00,
2013-06-30 23:18:00,67.5,61.5,29.89,NW,319,2.0,8.0,81,0.00,,---,0.28,VWS V14.01,2013-07-01 03:18:00,
2013-06-30 23:19:00,67.5,61.5,29.89,NNW,333,4.0,8.0,81,0.00,,---,0.28,VWS V14.01,2013-07-01 03:19:00,
2013-06-30 23:20:00,67.5,61.1,29.89,NNW,342,3.0,8.0,80,0.00,,---,0.28,VWS V14.01,2013-07-01 03:20:00,
2013-06-30 23:21:00,67.5,61.1,29.89,NNW,340,2.0,8.0,80,0.00,,---,0.28,VWS V14.01,2013-07-01 03:21:00,
2013-06-30 23:22:00,67.5,61.1,29.89,NNW,339,2.0,8.0,80,0.00,,---,0.28,VWS V14.01,2013-07-01 03:22:00,
2013-06-30 23:23:00,67.5,61.1,29.89,NW,313,3.0,8.0,80,0.00,,---,0.28,VWS V14.01,2013-07-01 03:23:00,
2013-06-30 23:24:00,67.5,61.1,29.89,NNW,331,2.0,8.0,80,0.00,,---,0.28,VWS V14.01,2013-07-01 03:24:00,
2013-06-30 23:25:00,67.5,61.1,29.89,NNW,345,1.0,8.0,80,0.00,,---,0.28,VWS V14.01,2013-07-01 03:25:00,
2013-06-30 23:26:00,67.5,61.1,29.89,NW,326,1.0,8.0,80,0.00,,---,0.28,VWS V14.01,2013-07-01 03:26:00,
2013-06-30 23:27:00,67.5,61.1,29.89,NNW,342,3.0,8.0,80,0.00,,---,0.28,VWS V14.01,2013-07-01 03:27:00,
2013-06-30 23:28:00,67.5,61.1,29.89,North,9,4.0,8.0,80,0.00,,---,0.28,VWS V14.01,2013-07-01 03:28:00,
2013-06-30 23:29:00,67.5,61.1,29.89,NNW,340,2.0,8.0,80,0.00,,---,0.28,VWS V14.01,2013-07-01 03:29:00,
2013-06-30 23:30:00,67.4,61.4,29.89,NNW,348,2.0,8.0,81,0.00,,---,0.28,VWS V14.01,2013-07-01 03:30:00,
2013-06-30 23:31:00,67.3,61.3,29.89,NW,308,2.0,2.0,81,0.00,,---,0.28,VWS V14.01,2013-07-01 03:31:00,
2013-06-30 23:32:00,67.3,61.3,29.89,NNW,342,3.0,5.0,81,0.00,,---,0.28,VWS V14.01,2013-07-01 03:32:00,
2013-06-30 23:33:00,67.3,60.9,29.89,NNW,335,2.0,5.0,80,0.00,,---,0.28,VWS V14.01,2013-07-01 03:33:00,
2013-06-30 23:34:00,67.4,61.4,29.89,NW,314,3.0,5.0,81,0.00,,---,0.28,VWS V14.01,2013-07-01 03:34:00,
2013-06-30 23:35:00,67.3,60.9,29.89,NNE,15,4.0,5.0,80,0.00,,---,0.28,VWS V14.01,2013-07-01 03:35:00,
2013-06-30 23:36:00,67.4,61.0,29.89,NNE,22,2.0,5.0,80,0.00,,---,0.28,VWS V14.01,2013-07-01 03:36:00,
2013-06-30 23:37:00,67.4,61.0,29.89,NNW,346,2.0,5.0,80,0.00,,---,0.28,VWS V14.01,2013-07-01 03:37:00,
2013-06-30 23:38:00,67.3,61.3,29.89,North,6,4.0,5.0,81,0.00,,---,0.28,VWS V14.01,2013-07-01 03:38:00,
2013-06-30 23:39:00,67.3,61.3,29.89,NNW,330,3.0,5.0,81,0.00,,---,0.28,VWS V14.01,2013-07-01 03:39:00,
2013-06-30 23:40:00,67.3,61.3,29.89,NW,326,1.0,5.0,81,0.00,,---,0.28,VWS V14.01,2013-07-01 03:40:00,
2013-06-30 23:41:00,67.3,61.3,29.89,NNW,338,0.0,5.0,81,0.00,,---,0.28,VWS V14.01,2013-07-01 03:41:00,
2013-06-30 23:42:00,67.2,61.2,29.89,NNW,338,1.0,5.0,81,0.00,,---,0.28,VWS V14.01,2013-07-01 03:42:00,
2013-06-30 23:43:00,67.2,61.2,29.89,NW,321,2.0,5.0,81,0.00,,---,0.28,VWS V14.01,2013-07-01 03:43:00,
2013-06-30 23:44:00,67.1,61.1,29.89,NNW,331,2.0,5.0,81,0.00,,---,0.28,VWS V14.01,2013-07-01 03:44:00,
2013-06-30 23:45:00,67.2,61.2,29.89,NNW,335,0.0,5.0,81,0.00,,---,0.28,VWS V14.01,2013-07-01 03:45:00,
2013-06-30 23:46:00,67.2,61.2,29.89,NNW,335,1.0,5.0,81,0.00,,---,0.28,VWS V14.01,2013-07-01 03:46:00,
2013-06-30 23:47:00,67.1,61.1,29.89,NNW,348,1.0,5.0,81,0.00,,---,0.28,VWS V14.01,2013-07-01 03:47:00,
2013-06-30 23:48:00,67.1,61.1,29.89,North,6,4.0,5.0,81,0.00,,---,0.28,VWS V14.01,2013-07-01 03:48:00,
2013-06-30 23:49:00,67.0,61.0,29.89,NNW,335,1.0,5.0,81,0.00,,---,0.28,VWS V14.01,2013-07-01 03:49:00,
2013-06-30 23:50:00,67.0,61.0,29.89,North,1,3.0,5.0,81,0.00,,---,0.28,VWS V14.01,2013-07-01 03:50:00,
2013-06-30 23:51:00,67.1,61.1,29.89,NE,36,0.0,5.0,81,0.00,,---,0.28,VWS V14.01,2013-07-01 03:51:00,
2013-06-30 23:52:00,67.0,61.0,29.89,North,351,1.0,5.0,81,0.00,,---,0.28,VWS V14.01,2013-07-01 03:52:00,
2013-06-30 23:53:00,67.1,61.1,29.89,North,349,0.0,5.0,81,0.00,,---,0.28,VWS V14.01,2013-07-01 03:53:00,
2013-06-30 23:54:00,67.1,61.1,29.88,ENE,70,3.0,5.0,81,0.00,,---,0.28,VWS V14.01,2013-07-01 03:54:00,
2013-06-30 23:55:00,67.1,61.1,29.88,NNW,333,1.0,5.0,81,0.00,,---,0.28,VWS V14.01,2013-07-01 03:55:00,
2013-06-30 23:56:00,67.1,61.1,29.88,NNW,347,3.0,5.0,81,0.00,,---,0.28,VWS V14.01,2013-07-01 03:56:00,
2013-06-30 23:57:00,67.1,61.1,29.88,NNW,347,2.0,5.0,81,0.00,,---,0.28,VWS V14.01,2013-07-01 03:57:00,
2013-06-30 23:58:00,67.0,61.0,29.88,NNW,330,1.0,5.0,81,0.00,,---,0.28,VWS V14.01,2013-07-01 03:58:00,
2013-06-30 23:59:00,67.0,61.0,29.88,NNE,32,1.0,5.0,81,0.00,,---,0.28,VWS V14.01,2013-07-01 03:59:00,